[[{"header":{"parameterUnit":"m.s-1","parameterCategory":1,"la1":30.6,"la2":28.766,"lo1":-90.7593,"lo2":-88.6598,"dy":0.0162,"dx":0.0183,"nx":116,"ny":114,"refTime":"2023-05-01T00:00:00:Z","depth":0,"parameterNumber":2,"parameterNumberName":"U-component_of_WINDS"},"data":[0.0,0.0,0.0,0.0,0.0,0.0,0.0,0.0,0.0,0.0,0.0,0.0,0.0,0.0,0.0,0.0,0.0,0.0,0.0,0.0,0.0,0.0,0.0,0.0,0.0,0.0,0.0,0.0,0.0,0.0,0.0,0.0,0.0,0.0,0.0,0.0,0.0,0.0,0.0,0.0,0.0,0.0,0.0,0.0,0.0,0.0,0.0,0.0,0.0,0.0,0.0,0.0,0.0,0.0,0.0,0.0,0.0,0.0,0.0,0.0,0.0,0.0,0.0,0.0,0.0,0.0,0.0,0.0,0.0,0.0,0.0,0.0,0.0,0.0,0.0,0.0,0.0,0.0,0.0,0.0,0.0,0.0,0.0,0.0,0.0,0.0,0.0,0.0,0.0,0.0,0.0,0.0,0.0,0.0,0.0,0.0,0.0,0.0,0.0,0.0,0.0,0.0,0.0,0.0,0.0,0.0,0.0,0.0,0.0,0.0,0.0,0.0,0.0,0.0,0.0,0.0,0.0,0.0,0.0,0.0,0.0,0.0,0.0,0.0,0.0,0.0,0.0,0.0,0.0,0.0,0.0,0.0,0.0,0.0,0.0,0.0,0.0,0.0,0.0,0.0,0.0,0.0,0.0,0.0,0.0,0.0,0.0,0.0,0.0,0.0,0.0,0.0,0.0,0.0,0.0,0.0,0.0,0.0,0.0,0.0,0.0,0.0,0.0,0.0,0.0,0.0,0.0,0.0,0.0,0.0,0.0,0.0,0.0,0.0,0.0,0.0,0.0,0.0,0.0,0.0,0.0,0.0,0.0,0.0,0.0,0.0,0.0,0.0,0.0,0.0,0.0,0.0,0.0,0.0,0.0,0.0,0.0,0.0,0.0,0.0,0.0,0.0,0.0,0.0,0.0,0.0,0.0,0.0,0.0,0.0,0.0,0.0,0.0,0.0,0.0,0.0,0.0,0.0,0.0,0.0,0.0,0.0,0.0,0.0,0.0,0.0,0.0,0.0,0.0,0.0,0.0,0.0,0.0,0.0,0.0,0.0,0.0,0.0,0.0,0.0,0.0,0.0,0.0,0.0,0.0,0.0,0.0,0.0,0.0,0.0,0.0,0.0,0.0,0.0,0.0,0.0,0.0,0.0,0.0,0.0,0.0,0.0,0.0,0.0,0.0,0.0,0.0,0.0,0.0,0.0,0.0,0.0,0.0,0.0,0.0,0.0,0.0,0.0,0.0,0.0,0.0,0.0,0.0,0.0,0.0,0.0,0.0,0.0,0.0,0.0,0.0,0.0,0.0,0.0,0.0,0.0,0.0,0.0,0.0,0.0,0.0,0.0,0.0,0.0,0.0,0.0,0.0,0.0,0.0,0.0,0.0,0.0,0.0,0.0,0.0,0.0,0.0,0.0,0.0,0.0,0.0,0.0,0.0,0.0,0.0,0.0,0.0,0.0,0.0,0.0,0.0,0.0,0.0,0.0,0.0,0.0,0.0,0.0,0.0,0.0,0.0,0.0,0.0,0.0,0.0,0.0,0.0,0.0,0.0,0.0,0.0,0.0,0.0,0.0,0.0,0.0,0.0,0.0,0.0,0.0,0.0,0.0,0.0,0.0,0.0,0.0,0.0,0.0,0.0,0.0,0.0,0.0,0.0,0.0,0.0,0.0,0.0,0.0,0.0,0.0,0.0,0.0,0.0,0.0,0.0,0.0,0.0,0.0,0.0,0.0,0.0,0.0,0.0,0.0,0.0,0.0,0.0,0.0,0.0,0.0,0.0,0.0,0.0,0.0,0.0,0.0,0.0,0.0,0.0,0.0,0.0,0.0,0.0,0.0,0.0,0.0,0.0,0.0,0.0,0.0,0.0,0.0,0.0,0.0,0.0,0.0,0.0,0.0,0.0,0.0,0.0,0.0,0.0,0.0,0.0,0.0,0.0,0.0,0.0,0.0,0.0,0.0,0.0,0.0,0.0,0.0,0.0,0.0,0.0,0.0,0.0,0.0,0.0,0.0,0.0,0.0,0.0,0.0,0.0,0.0,0.0,0.0,0.0,0.0,0.0,0.0,0.0,0.0,0.0,0.0,0.0,0.0,0.0,0.0,0.0,0.0,0.0,0.0,0.0,0.0,0.0,0.0,0.0,0.0,0.0,0.0,0.0,0.0,0.0,0.0,0.0,0.0,0.0,0.0,0.0,0.0,0.0,0.0,0.0,0.0,0.0,0.0,0.0,0.0,0.0,0.0,0.0,0.0,0.0,0.0,0.0,0.0,0.0,0.0,0.0,0.0,0.0,0.0,0.0,0.0,0.0,0.0,0.0,0.0,0.0,0.0,0.0,0.0,0.0,0.0,0.0,0.0,0.0,0.0,0.0,0.0,0.0,0.0,0.0,0.0,0.0,0.0,0.0,0.0,0.0,0.0,0.0,0.0,0.0,0.0,0.0,0.0,0.0,0.0,0.0,0.0,0.0,0.0,0.0,0.0,0.0,0.0,0.0,0.0,0.0,0.0,0.0,0.0,0.0,0.0,0.0,0.0,0.0,0.0,0.0,0.0,0.0,0.0,0.0,0.0,0.0,0.0,0.0,0.0,0.0,0.0,0.0,0.0,0.0,0.0,0.0,0.0,0.0,0.0,0.0,0.0,0.0,0.0,0.0,0.0,0.0,0.0,0.0,0.0,0.0,0.0,0.0,0.0,0.0,0.0,0.0,0.0,0.0,0.0,0.0,0.0,0.0,0.0,0.0,0.0,0.0,0.0,0.0,0.0,0.0,0.0,0.0,0.0,0.0,0.0,0.0,0.0,0.0,0.0,0.0,0.0,0.0,0.0,0.0,0.0,0.0,0.0,0.0,0.0,0.0,0.0,0.0,0.0,0.0,0.0,0.0,0.0,0.0,0.0,0.0,0.0,0.0,0.0,0.0,0.0,0.0,0.0,0.0,0.0,0.0,0.0,0.0,0.0,0.0,0.0,0.0,0.0,0.0,0.0,0.0,0.0,0.0,0.0,0.0,0.0,0.0,0.0,0.0,0.0,0.0,0.0,0.0,0.0,0.0,0.0,0.0,0.0,0.0,0.0,0.0,0.0,0.0,0.0,0.0,0.0,0.0,0.0,0.0,0.0,0.0,0.0,0.0,0.0,0.0,0.0,0.0,0.0,0.0,0.0,0.0,0.0,0.0,0.0,0.0,0.0,0.0,0.0,0.0,0.0,0.0,0.0,0.0,0.0,0.0,0.0,0.0,0.0,0.0,0.0,0.0,0.0,0.0,0.0,0.0,0.0,0.0,0.0,0.0,0.0,0.0,0.0,0.0,0.0,0.0,0.0,0.0,0.0,0.0,0.0,0.0,0.0,0.0,0.0,0.0,0.0,0.0,0.0,0.0,0.0,0.0,0.0,0.0,0.0,0.0,0.0,0.0,0.0,0.0,0.0,0.0,0.0,0.0,0.0,0.0,0.0,0.0,0.0,0.0,0.0,0.0,0.0,0.0,0.0,0.0,0.0,0.0,0.0,0.0,0.0,0.0,0.0,0.0,0.0,0.0,0.0,0.0,0.0,0.0,0.0,0.0,0.0,0.0,0.0,0.0,0.0,0.0,0.0,0.0,0.0,0.0,0.0,0.0,0.0,0.0,0.0,0.0,0.0,0.0,0.0,0.0,0.0,0.0,0.0,0.0,0.0,0.0,0.0,0.0,0.0,0.0,0.0,0.0,0.0,0.0,0.0,0.0,0.0,0.0,0.0,0.0,0.0,0.0,0.0,0.0,0.0,0.0,0.0,0.0,0.0,0.0,0.0,0.0,0.0,0.0,0.0,0.0,0.0,0.0,0.0,0.0,0.0,0.0,0.0,0.0,0.0,0.0,0.0,0.0,0.0,0.0,0.0,0.0,0.0,0.0,0.0,0.0,0.0,0.0,0.0,0.0,0.0,0.0,0.0,0.0,0.0,0.0,0.0,0.0,0.0,0.0,0.0,0.0,0.0,0.0,0.0,0.0,0.0,0.0,0.0,0.0,0.0,0.0,0.0,0.0,0.0,0.0,0.0,0.0,0.0,0.0,0.0,0.0,0.0,0.0,0.0,0.0,0.0,0.0,0.0,0.0,0.0,0.0,0.0,0.0,0.0,0.0,0.0,0.0,0.0,0.0,0.0,0.0,0.0,0.0,0.0,0.0,0.0,0.0,0.0,0.0,0.0,0.0,0.0,0.0,0.0,0.0,0.0,0.0,0.0,0.0,0.0,0.0,0.0,0.0,0.0,0.0,0.0,0.0,0.0,0.0,0.0,0.0,0.0,0.0,0.0,0.0,0.0,0.0,0.0,0.0,0.0,0.0,0.0,0.0,0.0,0.0,0.0,0.0,0.0,0.0,0.0,0.0,0.0,0.0,0.0,0.0,0.0,0.0,0.0,0.0,0.0,0.0,0.0,0.0,0.0,0.0,0.0,0.0,0.0,0.0,0.0,0.0,0.0,0.0,0.0,0.0,0.0,0.0,0.0,0.0,0.0,0.0,0.0,0.0,0.0,0.0,0.0,0.0,0.0,0.0,0.0,0.0,0.0,0.0,0.0,0.0,0.0,0.0,0.0,0.0,0.0,0.0,0.0,0.0,0.0,0.0,0.0,0.0,0.0,0.0,0.0,0.0,0.0,0.0,0.0,0.0,0.0,0.0,0.0,0.0,0.0,0.0,0.0,0.0,0.0,0.0,0.0,0.0,0.0,0.0,0.0,0.0,0.0,0.0,0.0,0.0,0.0,0.0,0.0,0.0,0.0,0.0,0.0,0.0,0.0,0.0,0.0,0.0,0.0,0.0,0.0,0.0,0.0,0.0,0.0,0.0,0.0,0.0,0.0,0.0,0.0,0.0,0.0,0.0,0.0,0.0,0.0,0.0,0.0,0.0,0.0,0.0,0.0,0.0,0.0,0.0,0.0,0.0,0.0,0.0,0.0,0.0,0.0,0.0,0.0,0.0,0.0,0.0,0.0,0.0,0.0,0.0,0.0,0.0,0.0,0.0,0.0,0.0,0.0,0.0,0.0,0.0,0.0,0.0,0.0,0.0,0.0,0.0,0.0,0.0,0.0,0.0,0.0,0.0,0.0,0.0,0.0,0.0,0.0,0.0,0.0,0.0,0.0,0.0,0.0,0.0,0.0,0.0,0.0,0.0,0.0,0.0,0.0,0.0,0.0,0.0,0.0,0.0,0.0,0.0,0.0,0.0,0.0,0.0,0.0,0.0,0.0,0.0,0.0,0.0,0.0,0.0,0.0,0.0,0.0,0.0,0.0,0.0,0.0,0.0,0.0,0.0,0.0,0.0,0.0,0.0,0.0,0.0,0.0,0.0,0.0,0.0,0.0,0.0,0.0,0.0,0.0,0.0,0.0,0.0,0.0,0.0,0.0,0.0,0.0,0.0,0.0,0.0,0.0,0.0,0.0,0.0,0.0,0.0,0.0,0.0,0.0,0.0,0.0,0.0,0.0,0.0,0.0,0.0,0.0,0.0,0.0,0.0,0.0,0.0,0.0,0.0,0.0,0.0,0.0,0.0,0.0,0.0,0.0,0.0,0.0,0.0,0.0,0.0,0.0,0.0,0.0,0.0,0.0,0.0,0.0,0.0,0.0,0.0,0.0,0.0,0.0,0.0,0.0,0.0,0.0,0.0,0.0,0.0,0.0,0.0,0.0,0.0,0.0,0.0,0.0,0.0,0.0,0.0,0.0,0.0,0.0,0.0,0.0,0.0,0.0,0.0,0.0,0.0,0.0,0.0,0.0,0.0,0.0,0.0,0.0,0.0,0.0,0.0,0.0,0.0,0.0,0.0,0.0,0.0,0.0,0.0,0.0,0.0,0.0,0.0,0.0,0.0,0.0,0.0,0.0,0.0,0.0,0.0,0.0,0.0,0.0,0.0,0.0,0.0,0.0,0.0,0.0,0.0,0.0,0.0,0.0,0.0,0.0,0.0,0.0,0.0,0.0,0.0,0.0,0.0,0.0,0.0,0.0,0.0,0.0,0.0,0.0,0.0,0.0,0.0,0.0,0.0,0.0,0.0,0.0,0.0,0.0,0.0,0.0,0.0,0.0,0.0,0.0,0.0,0.0,0.0,0.0,0.0,0.0,2.253,0.0,0.0,0.0,0.0,0.0,0.0,0.0,0.0,0.0,0.0,0.0,0.0,0.0,0.0,0.0,0.0,0.0,0.0,0.0,0.0,0.0,0.0,0.0,0.0,0.0,0.0,0.0,0.0,0.0,0.0,0.0,0.0,0.0,0.0,0.0,0.0,0.0,0.0,0.0,0.0,0.0,0.0,0.0,0.0,0.0,0.0,0.0,0.0,0.0,0.0,0.0,0.0,0.0,0.0,0.0,0.0,0.0,0.0,0.0,0.0,0.0,0.0,0.0,0.0,0.0,0.0,0.0,0.0,0.0,0.0,0.0,0.0,0.0,0.0,0.0,0.0,0.0,0.0,0.0,0.0,0.0,0.0,0.0,0.0,0.0,0.0,0.0,0.0,0.0,0.0,0.0,0.0,0.0,0.0,0.0,0.0,0.0,0.0,0.0,0.0,0.0,0.0,0.0,0.0,0.0,0.0,0.0,0.0,0.0,0.0,0.0,0.0,0.0,0.0,0.0,0.0,2.2278,0.0,0.0,0.0,0.0,0.0,0.0,0.0,0.0,0.0,0.0,0.0,0.0,0.0,0.0,0.0,0.0,0.0,0.0,0.0,0.0,0.0,0.0,0.0,0.0,0.0,0.0,0.0,0.0,0.0,0.0,0.0,0.0,0.0,0.0,0.0,0.0,0.0,0.0,0.0,0.0,0.0,0.0,0.0,0.0,0.0,0.0,0.0,0.0,0.0,0.0,0.0,0.0,0.0,0.0,0.0,0.0,0.0,0.0,0.0,0.0,0.0,0.0,0.0,0.0,0.0,0.0,0.0,0.0,0.0,0.0,0.0,0.0,0.0,0.0,0.0,0.0,0.0,0.0,0.0,0.0,0.0,0.0,0.0,0.0,0.0,0.0,0.0,0.0,0.0,0.0,0.0,0.0,0.0,0.0,0.0,0.0,0.0,0.0,0.0,0.0,0.0,0.0,0.0,0.0,0.0,0.0,0.0,0.0,2.152,2.1753,2.2439,2.1826,2.1662,2.188,2.2391,2.3139,2.3869,2.2551,0.0,0.0,0.0,0.0,0.0,0.0,0.0,0.0,0.0,0.0,0.0,0.0,0.0,0.0,0.0,0.0,0.0,0.0,0.0,0.0,0.0,0.0,0.0,0.0,0.0,0.0,0.0,0.0,0.0,0.0,0.0,0.0,0.0,0.0,0.0,0.0,0.0,0.0,0.0,0.0,0.0,0.0,0.0,0.0,0.0,0.0,0.0,0.0,0.0,0.0,0.0,0.0,0.0,0.0,0.0,0.0,0.0,0.0,0.0,0.0,0.0,0.0,0.0,0.0,0.0,0.0,0.0,0.0,0.0,0.0,0.0,0.0,0.0,0.0,0.0,0.0,0.0,0.0,0.0,0.0,0.0,0.0,0.0,0.0,0.0,0.0,1.9933,2.1451,0.0,0.0,0.0,0.0,0.0,0.0,0.0,0.0,0.0,0.0,0.0,0.0,0.0,2.1305,2.0745,2.166,2.2117,2.2124,2.2658,2.2963,2.3091,2.3256,2.348,2.3621,2.2736,0.0,2.3063,2.2919,0.0,0.0,0.0,0.0,0.0,0.0,0.0,0.0,0.0,0.0,0.0,0.0,0.0,0.0,0.0,0.0,0.0,0.0,0.0,0.0,0.0,0.0,0.0,0.0,0.0,0.0,0.0,0.0,0.0,0.0,0.0,0.0,0.0,0.0,0.0,0.0,0.0,0.0,0.0,0.0,0.0,0.0,0.0,0.0,0.0,0.0,0.0,0.0,0.0,0.0,0.0,0.0,0.0,0.0,0.0,0.0,0.0,0.0,0.0,0.0,0.0,0.0,0.0,0.0,0.0,0.0,0.0,0.0,0.0,0.0,0.0,0.0,0.0,0.0,0.0,0.0,0.0,0.0,0.0,0.0,0.0,0.0,0.0,0.0,0.0,1.9968,2.0713,2.1742,2.1699,2.1461,0.0,0.0,0.0,0.0,0.0,0.0,0.0,0.0,0.0,1.9323,2.0896,2.1227,2.0141,2.1678,2.2478,2.2488,2.2961,2.3193,2.3196,2.3347,2.3624,2.3952,2.2986,2.283,2.3168,2.2508,2.2392,2.2536,0.0,0.0,0.0,0.0,1.8501,1.8742,0.0,0.0,0.0,0.0,0.0,0.0,0.0,0.0,0.0,0.0,0.0,0.0,0.0,0.0,0.0,0.0,0.0,0.0,0.0,0.0,0.0,0.0,0.0,0.0,0.0,0.0,0.0,0.0,0.0,0.0,0.0,0.0,0.0,0.0,0.0,0.0,0.0,0.0,0.0,0.0,0.0,0.0,0.0,0.0,0.0,0.0,0.0,0.0,0.0,0.0,0.0,0.0,0.0,0.0,0.0,0.0,0.0,0.0,0.0,0.0,0.0,0.0,0.0,0.0,0.0,0.0,0.0,0.0,0.0,0.0,0.0,0.0,0.0,0.0,0.0,0.0,0.0,2.0661,2.1148,2.1915,2.1879,2.168,0.0,0.0,0.0,0.0,0.0,0.0,2.0608,2.1188,2.0931,1.9651,2.1198,2.1383,2.0018,2.1721,2.2587,2.2587,2.2859,2.2963,2.2971,2.3032,2.3287,2.3623,2.305,2.2858,2.2905,2.1893,2.1589,2.1694,2.0929,2.038,1.9918,1.8732,1.8525,1.8861,0.0,0.0,0.0,0.0,0.0,0.0,0.0,0.0,0.0,0.0,0.0,0.0,0.0,0.0,0.0,0.0,0.0,0.0,0.0,0.0,0.0,0.0,0.0,0.0,0.0,0.0,0.0,0.0,0.0,0.0,0.0,0.0,0.0,0.0,0.0,0.0,0.0,0.0,0.0,0.0,0.0,0.0,0.0,0.0,0.0,0.0,0.0,0.0,0.0,0.0,0.0,0.0,0.0,0.0,0.0,0.0,0.0,0.0,0.0,0.0,0.0,0.0,0.0,0.0,0.0,0.0,0.0,0.0,0.0,0.0,0.0,0.0,0.0,0.0,0.0,0.0,0.0,0.0,0.0,2.1826,2.2387,0.0,0.0,0.0,0.0,2.1243,2.1224,2.1384,2.1688,2.1982,2.2134,2.2122,2.2452,2.2496,2.2152,2.226,2.2327,2.2327,2.2338,2.2338,2.2344,2.2615,2.2739,2.2774,2.2803,2.2337,2.1584,2.1258,2.1587,2.2023,1.9669,1.9213,1.9719,1.8061,1.835,1.9561,0.0,0.0,0.0,0.0,0.0,0.0,0.0,0.0,0.0,0.0,0.0,0.0,0.0,0.0,0.0,0.0,0.0,0.0,0.0,0.0,0.0,0.0,0.0,0.0,0.0,0.0,0.0,0.0,0.0,0.0,0.0,0.0,0.0,0.0,0.0,0.0,0.0,0.0,0.0,0.0,0.0,0.0,0.0,0.0,0.0,0.0,0.0,0.0,0.0,0.0,0.0,0.0,0.0,0.0,0.0,0.0,0.0,0.0,0.0,0.0,0.0,0.0,0.0,0.0,0.0,0.0,0.0,0.0,0.0,0.0,0.0,0.0,0.0,0.0,0.0,0.0,0.0,0.0,0.0,2.1816,2.2148,0.0,2.1727,2.1068,2.0446,1.9918,2.0204,2.0557,2.0948,2.1494,2.1953,2.2293,2.2371,2.2415,2.231,2.231,2.231,2.231,2.231,2.231,2.231,2.2406,2.2553,2.266,2.2181,2.191,2.1742,2.0644,2.0384,2.0639,2.0009,1.9952,2.0115,1.9255,1.9269,1.9739,0.0,0.0,0.0,0.0,0.0,0.0,0.0,0.0,0.0,0.0,0.0,0.0,0.0,0.0,0.0,0.0,0.0,0.0,0.0,0.0,0.0,0.0,0.0,0.0,0.0,0.0,0.0,0.0,0.0,0.0,0.0,0.0,0.0,0.0,0.0,0.0,0.0,0.0,0.0,0.0,0.0,0.0,1.7136,0.0,0.0,0.0,0.0,0.0,0.0,0.0,0.0,0.0,0.0,0.0,0.0,0.0,0.0,0.0,0.0,0.0,0.0,0.0,0.0,0.0,0.0,0.0,0.0,0.0,0.0,0.0,0.0,0.0,0.0,0.0,0.0,0.0,0.0,0.0,2.0679,2.1533,2.1777,2.1764,2.1496,2.0699,2.0085,1.9767,2.0076,2.0411,2.0652,2.1138,2.1598,2.2032,2.2061,2.2135,2.231,2.231,2.231,2.231,2.231,2.231,2.231,2.231,2.2153,2.1939,2.1632,2.1421,2.1191,2.0394,2.0083,2.0111,1.9873,1.9791,1.9756,1.9502,1.9404,1.9424,0.0,0.0,0.0,0.0,0.0,0.0,0.0,0.0,0.0,0.0,0.0,0.0,0.0,0.0,0.0,0.0,0.0,0.0,0.0,0.0,0.0,0.0,0.0,0.0,0.0,0.0,0.0,0.0,0.0,0.0,0.0,0.0,0.0,0.0,0.0,0.0,0.0,0.0,0.0,0.0,0.0,0.0,1.7323,0.0,0.0,0.0,0.0,0.0,0.0,0.0,0.0,0.0,0.0,0.0,0.0,0.0,0.0,0.0,0.0,0.0,0.0,0.0,0.0,0.0,0.0,0.0,0.0,0.0,0.0,0.0,0.0,0.0,0.0,0.0,0.0,0.0,1.7941,1.967,2.0918,2.0969,2.1342,2.1598,2.1582,2.1213,2.0959,2.0959,2.0975,2.0959,2.0959,2.0943,2.1117,2.1516,2.1579,2.179,2.2248,2.2282,2.2316,2.2316,2.2299,2.231,2.231,2.231,2.167,2.0605,2.1245,2.09,1.992,2.0552,2.0815,2.0657,1.922,1.8673,1.8656,1.8619,1.8601,1.8658,0.0,0.0,0.0,0.0,0.0,0.0,0.0,0.0,0.0,0.0,0.0,0.0,0.0,0.0,0.0,0.0,0.0,0.0,0.0,0.0,0.0,0.0,0.0,0.0,0.0,0.0,0.0,0.0,0.0,0.0,0.0,0.0,0.0,0.0,0.0,0.0,0.0,0.0,0.0,0.0,0.0,0.0,1.5333,0.0,0.0,0.0,0.0,0.0,0.0,0.0,0.0,0.0,0.0,0.0,0.0,0.0,0.0,0.0,0.0,0.0,0.0,0.0,0.0,0.0,0.0,0.0,0.0,0.0,0.0,0.0,0.0,0.0,0.0,0.0,0.0,1.9562,2.0,2.0454,2.1099,2.2032,2.181,2.1491,2.1181,2.0748,2.0348,2.0085,2.005,2.0174,2.0483,1.989,1.974,2.0206,2.0694,2.1005,2.1133,2.2073,2.2512,2.2512,2.2358,2.231,2.231,2.231,2.2119,2.1804,2.2003,2.1896,2.1603,2.1218,2.1088,2.1019,2.0212,1.9921,1.9829,1.9097,1.8935,1.8997,0.0,0.0,0.0,0.0,0.0,0.0,0.0,0.0,0.0,0.0,0.0,0.0,0.0,0.0,0.0,0.0,0.0,0.0,0.0,0.0,0.0,0.0,0.0,0.0,0.0,0.0,0.0,0.0,0.0,0.0,0.0,0.0,0.0,0.0,0.0,0.0,0.0,0.0,0.0,0.0,0.0,0.0,1.4533,1.4833,1.4687,1.4369,1.5005,1.5151,1.5148,1.5583,0.0,0.0,0.0,0.0,0.0,0.0,0.0,0.0,0.0,0.0,0.0,0.0,0.0,0.0,0.0,0.0,0.0,0.0,0.0,0.0,0.0,0.0,0.0,0.0,1.9562,2.0624,2.1858,2.1668,2.1649,2.2401,2.1872,2.1502,2.155,2.0636,2.0066,2.013,2.0124,2.0204,2.0477,2.0252,2.0004,1.9698,2.1002,2.146,2.0904,2.2562,2.3233,2.2934,2.2811,2.2587,2.231,2.231,2.2023,2.158,2.206,2.2017,2.1558,2.1636,2.1658,0.0,0.0,0.0,0.0,0.0,1.9464,1.9522,0.0,0.0,0.0,0.0,0.0,0.0,0.0,0.0,0.0,0.0,0.0,0.0,0.0,0.0,0.0,0.0,0.0,0.0,0.0,0.0,0.0,0.0,0.0,0.0,0.0,0.0,0.0,0.0,0.0,0.0,0.0,0.0,0.0,0.0,0.0,0.0,0.0,0.0,0.0,0.0,0.0,0.0,1.4408,1.4408,1.4285,1.4237,1.4877,1.5335,1.5575,1.5641,0.0,0.0,0.0,0.0,0.0,0.0,0.0,0.0,0.0,0.0,0.0,0.0,0.0,0.0,0.0,0.0,0.0,0.0,0.0,0.0,0.0,0.0,0.0,0.0,2.023,2.128,2.3518,2.3173,2.264,2.2524,2.1852,2.1657,2.2254,2.0849,2.0168,2.0782,2.0827,2.0827,2.0827,0.0,0.0,0.0,0.0,2.2378,2.1305,2.3409,2.4149,2.357,2.3539,2.313,2.2429,2.2412,2.1782,2.0749,2.1832,2.1687,2.0782,2.1877,2.231,2.2175,2.0779,2.0204,2.0145,2.0069,2.0086,2.0154,0.0,0.0,0.0,0.0,0.0,0.0,0.0,0.0,0.0,0.0,0.0,0.0,0.0,0.0,0.0,0.0,0.0,0.0,0.0,0.0,0.0,0.0,0.0,0.0,0.0,0.0,0.0,0.0,0.0,0.0,0.0,0.0,0.0,0.0,0.0,0.0,0.0,0.0,0.0,0.0,0.0,0.0,1.367,1.367,1.3494,1.332,1.4429,1.4861,1.5061,1.6255,1.6474,1.6335,1.6761,0.0,0.0,0.0,0.0,0.0,0.0,0.0,0.0,0.0,0.0,0.0,0.0,0.0,0.0,0.0,0.0,0.0,0.0,0.0,0.0,2.082,2.2089,2.3443,2.5001,2.5092,2.4699,2.401,2.2856,2.2161,2.23,2.1697,2.1365,2.15,2.1515,2.1515,2.1515,2.0935,2.0534,2.0264,2.1221,2.1779,2.1907,2.3414,2.43,2.453,0.0,0.0,2.319,2.3181,2.2734,2.1973,2.2215,2.2153,2.1973,2.2215,2.231,2.2276,2.1989,2.1498,2.0925,2.0539,2.0632,2.0849,0.0,0.0,0.0,0.0,0.0,0.0,0.0,0.0,0.0,0.0,0.0,0.0,0.0,0.0,0.0,0.0,0.0,0.0,0.0,0.0,0.0,0.0,0.0,0.0,0.0,0.0,0.0,0.0,0.0,0.0,0.0,0.0,0.0,0.0,0.0,0.0,0.0,0.0,0.0,0.0,0.0,0.0,1.4717,1.4072,1.3555,1.3333,1.4547,1.4853,1.488,1.6245,1.6565,1.6432,1.6586,1.6447,1.6261,0.0,0.0,0.0,0.0,0.0,0.0,0.0,0.0,0.0,0.0,0.0,0.0,0.0,0.0,1.751,0.0,0.0,2.0205,2.1984,2.293,2.4064,2.5856,2.5809,2.5453,2.4985,2.4058,2.3588,2.3921,2.3152,2.2787,2.3146,2.2847,2.2652,2.2652,2.2243,2.1636,2.0767,2.2143,2.2588,2.1983,2.3759,2.459,2.447,2.4596,2.4246,2.356,2.346,2.3215,2.283,2.2457,2.231,2.231,2.231,2.231,2.231,2.231,2.2073,2.1712,2.1481,2.1549,2.1661,0.0,0.0,0.0,0.0,0.0,0.0,0.0,0.0,0.0,0.0,0.0,0.0,0.0,0.0,0.0,0.0,0.0,0.0,0.0,0.0,0.0,0.0,0.0,0.0,0.0,0.0,0.0,0.0,0.0,0.0,0.0,0.0,0.0,0.0,0.0,0.0,0.0,0.0,0.0,0.0,0.0,0.0,1.6587,1.5426,1.4553,1.4123,1.5154,1.531,1.5188,1.6188,1.6522,1.6446,1.5994,1.6437,1.694,1.582,1.6182,0.0,0.0,0.0,0.0,0.0,0.0,0.0,0.0,0.0,1.6794,1.7327,1.7714,1.8259,1.928,1.9995,2.1108,2.3084,2.3724,2.4646,2.6681,2.6527,2.6198,2.6198,2.5375,2.5031,2.5555,2.4627,2.4223,2.4731,2.4298,2.3984,2.3984,2.3984,2.3393,2.2017,2.3713,2.394,2.2492,2.43,2.4923,2.4313,2.4808,2.4607,2.3783,2.3806,2.3701,2.3426,2.2932,2.257,2.231,2.2457,2.244,2.2327,2.2451,2.2502,2.2485,2.2333,2.231,2.231,0.0,0.0,0.0,0.0,0.0,0.0,0.0,0.0,0.0,0.0,0.0,0.0,0.0,0.0,0.0,0.0,0.0,0.0,0.0,0.0,0.0,0.0,0.0,0.0,0.0,0.0,0.0,0.0,0.0,0.0,0.0,0.0,0.0,0.0,0.0,0.0,0.0,0.0,0.0,0.0,0.0,0.0,1.8859,1.8258,1.7003,1.568,1.6107,1.6232,1.6264,1.6442,1.6522,1.6509,1.6446,1.6502,1.6541,1.627,0.0,1.6344,1.607,1.5459,1.53,1.6793,1.6627,1.6533,0.0,0.0,1.8725,1.8986,1.9295,1.9795,2.066,2.1664,2.287,2.4365,2.5542,2.6711,2.8158,2.8308,2.8263,2.8263,2.6632,2.5525,2.56,2.5465,2.542,2.5495,2.5435,2.539,2.539,2.539,2.5285,2.5107,2.5363,2.5333,2.4994,2.5268,2.5268,2.5093,2.5611,2.5236,2.4067,2.4963,2.4729,2.3676,2.407,2.3511,2.2344,2.3022,2.2892,2.235,2.3013,2.33,2.3216,2.2535,2.231,2.231,0.0,0.0,0.0,0.0,0.0,0.0,0.0,0.0,0.0,0.0,0.0,0.0,0.0,0.0,0.0,0.0,0.0,0.0,0.0,0.0,0.0,0.0,0.0,0.0,0.0,0.0,0.0,0.0,0.0,0.0,0.0,0.0,0.0,0.0,0.0,0.0,0.0,0.0,0.0,0.0,0.0,0.0,1.9986,1.931,1.8391,1.7364,1.6631,1.6194,0.0,0.0,1.6032,1.6095,1.6421,1.6452,1.6381,1.6336,1.6062,0.0,1.5743,1.6195,0.0,0.0,1.7967,1.841,1.9178,1.9442,1.9586,2.0038,2.0461,2.0986,2.1629,2.269,2.3828,0.0,2.6179,2.7228,2.7925,2.8353,2.8457,2.8053,2.6814,2.6168,2.6626,2.6705,2.6883,2.7204,2.657,2.6348,2.6722,2.6019,2.5615,2.5615,2.5615,2.5558,2.5546,2.5546,2.527,2.4856,2.5774,2.5719,2.475,2.5412,2.4978,2.372,2.4262,2.3714,2.2541,2.3616,2.3624,2.3011,2.3735,2.4052,2.4014,2.3684,2.3308,2.2936,0.0,0.0,0.0,0.0,0.0,0.0,0.0,0.0,0.0,0.0,0.0,0.0,0.0,0.0,0.0,0.0,0.0,0.0,0.0,0.0,0.0,0.0,0.0,0.0,0.0,0.0,0.0,0.0,0.0,0.0,0.0,0.0,0.0,0.0,0.0,0.0,0.0,0.0,0.0,0.0,0.0,0.0,2.0772,1.9832,1.9107,1.8286,1.6859,1.6125,0.0,0.0,1.5567,1.5731,1.5982,1.6087,1.6125,1.5957,1.5619,1.5391,1.5839,0.0,0.0,1.8474,1.9195,1.98,2.0162,2.0376,2.0614,2.1029,2.1893,2.2731,2.3302,2.4409,2.5507,2.6408,2.7277,2.7989,2.8329,2.8667,2.8659,2.8107,2.7176,2.6746,2.7196,2.7271,2.7591,2.8369,2.7463,2.7066,2.7595,2.6841,2.6348,2.6153,2.6333,2.6258,2.5884,2.5884,2.5555,2.4911,2.5893,2.5932,2.5035,2.5454,2.5118,2.4259,2.4856,2.4347,2.3211,2.4343,2.4368,2.3761,2.452,2.4785,2.4842,2.5036,2.4492,2.3663,0.0,0.0,0.0,0.0,0.0,0.0,0.0,0.0,0.0,0.0,0.0,0.0,0.0,0.0,0.0,0.0,0.0,0.0,0.0,0.0,0.0,0.0,0.0,0.0,0.0,0.0,0.0,0.0,0.0,0.0,0.0,0.0,0.0,0.0,0.0,0.0,0.0,0.0,0.0,0.0,0.0,0.0,2.135,2.021,1.9121,1.8056,1.6904,0.0,0.0,0.0,1.5254,1.5605,1.513,1.5318,0.0,1.5092,1.4824,0.0,0.0,0.0,1.674,1.9695,1.9969,1.9848,2.1121,2.1845,2.2234,2.2259,2.3728,2.5328,2.6125,2.7371,2.8533,2.9327,2.9505,2.9753,3.0328,2.9924,2.9493,2.9265,2.8025,2.7108,0.0,2.6583,2.6977,2.8464,2.7985,2.7595,2.7625,2.8173,2.8203,2.758,2.8158,2.7874,2.6572,2.6557,2.6228,2.5585,2.6107,2.5756,2.4612,2.5026,2.5342,2.5564,2.6319,2.5803,2.4497,2.5274,2.5124,2.453,2.528,2.5564,2.5665,2.6354,2.5693,2.434,0.0,0.0,0.0,0.0,0.0,0.0,0.0,0.0,0.0,0.0,0.0,0.0,0.0,0.0,0.0,0.0,0.0,0.0,0.0,0.0,0.0,0.0,0.0,0.0,0.0,0.0,0.0,0.0,0.0,0.0,0.0,0.0,0.0,0.0,0.0,0.0,0.0,0.0,0.0,0.0,0.0,0.0,2.2297,1.9723,1.8292,1.7413,0.0,0.0,0.0,0.0,1.4488,1.4676,1.4853,0.0,0.0,1.4375,1.5227,1.6402,1.6545,0.0,1.9331,2.0692,2.1207,2.1554,2.2372,2.3025,2.3326,2.2937,2.3321,2.3594,2.3082,2.3751,2.469,2.5436,2.6337,2.7485,2.9026,2.8622,2.8301,2.8783,2.7396,0.0,0.0,0.0,0.0,2.8793,2.854,2.8622,2.9475,2.934,2.8951,2.8263,2.8472,2.8158,2.7245,2.7245,2.6692,2.56,2.5606,2.5627,2.5665,2.6036,2.6075,2.5907,2.6464,2.5931,2.479,2.5882,2.5912,2.528,2.6034,2.632,2.6371,2.6623,2.6387,2.5845,0.0,0.0,0.0,0.0,0.0,0.0,0.0,0.0,0.0,0.0,0.0,0.0,0.0,0.0,0.0,0.0,0.0,0.0,0.0,0.0,0.0,0.0,0.0,0.0,0.0,0.0,0.0,0.0,0.0,0.0,0.0,0.0,0.0,0.0,0.0,0.0,0.0,0.0,0.0,0.0,0.0,0.0,2.0803,1.8279,1.6835,0.0,0.0,0.0,0.0,0.0,0.0,0.0,0.0,1.4254,1.4201,1.4445,1.5517,1.687,1.7868,1.9487,2.1104,2.2283,2.2837,2.3301,2.3665,2.4253,2.4602,2.3952,2.406,2.3819,2.2358,2.2707,2.3296,2.3484,2.4471,2.6048,2.8278,2.797,2.789,2.9055,2.7782,2.7486,0.0,0.0,0.0,2.9061,2.8759,2.8888,2.972,2.9599,2.9328,2.8951,2.8951,2.8622,2.7949,2.7694,2.7141,2.6303,2.5916,2.6146,2.6949,2.6934,2.6728,2.6454,2.6894,2.64,2.5326,2.6301,2.6421,2.6034,2.6522,2.6691,2.6691,2.6691,2.6691,2.659,0.0,0.0,0.0,0.0,0.0,0.0,0.0,0.0,0.0,0.0,0.0,0.0,0.0,0.0,0.0,0.0,0.0,0.0,0.0,0.0,0.0,0.0,0.0,0.0,0.0,0.0,0.0,0.0,0.0,0.0,0.0,0.0,0.0,0.0,0.0,0.0,0.0,0.0,0.0,0.0,0.0,0.0,1.7287,1.607,0.0,0.0,0.0,0.0,0.0,0.0,0.0,0.0,0.0,0.0,1.3691,1.5199,1.5807,1.6785,2.0467,2.1587,2.2171,2.4293,2.482,2.482,2.4885,2.5471,2.5871,2.515,2.566,2.5628,0.0,0.0,2.4206,2.3672,2.4148,2.551,2.8269,2.8045,2.8293,0.0,0.0,0.0,0.0,0.0,0.0,2.9412,0.0,2.8521,2.8568,2.9119,2.9459,2.9663,2.9594,2.9265,2.8607,2.7874,2.7565,2.7565,2.6905,2.7149,2.8184,2.7598,2.7273,2.7203,2.7636,2.7181,2.6169,2.6539,2.6691,2.6691,2.6691,2.6691,2.6691,2.6691,2.6691,2.659,0.0,0.0,0.0,0.0,0.0,0.0,0.0,0.0,0.0,0.0,0.0,0.0,0.0,0.0,0.0,0.0,0.0,0.0,0.0,0.0,0.0,0.0,0.0,0.0,0.0,0.0,0.0,0.0,0.0,0.0,0.0,0.0,0.0,0.0,0.0,0.0,0.0,0.0,0.0,0.0,0.0,0.0,1.7739,0.0,0.0,0.0,0.0,0.0,0.0,0.0,0.0,0.0,0.0,1.5176,1.5932,1.592,1.7879,2.0141,2.0708,2.2344,2.4104,2.4682,2.482,2.5,2.5597,2.587,2.5561,2.4122,2.3225,2.214,0.0,0.0,0.0,2.3133,2.3744,0.0,2.8625,2.8602,0.0,3.0151,0.0,3.0256,3.1511,3.1509,0.0,0.0,3.0539,3.0187,3.0699,3.0839,3.0709,3.0283,2.9819,2.9265,2.8607,2.744,2.6841,2.6826,2.6564,2.6594,2.6936,2.7598,2.763,2.7206,2.7635,2.7362,2.6691,2.6691,2.6691,2.6691,2.6691,2.6691,2.6691,2.6691,2.6691,2.6674,0.0,0.0,0.0,0.0,0.0,0.0,0.0,0.0,0.0,0.0,0.0,0.0,0.0,0.0,0.0,0.0,0.0,0.0,0.0,0.0,0.0,0.0,0.0,0.0,0.0,0.0,0.0,0.0,0.0,0.0,0.0,0.0,0.0,0.0,0.0,0.0,0.0,0.0,0.0,0.0,0.0,0.0,0.0,0.0,0.0,0.0,0.0,0.0,0.0,0.0,0.0,1.4424,1.5286,1.6447,1.7611,1.7996,0.0,2.1977,2.2592,2.3974,2.5287,2.5908,2.609,2.5948,2.5342,2.5418,2.4984,2.2574,2.1299,0.0,0.0,0.0,0.0,0.0,0.0,0.0,2.755,2.8014,2.8629,0.0,3.0751,0.0,3.2811,3.2946,3.2781,0.0,3.1425,3.1046,3.1369,3.1112,3.094,3.0956,3.0058,2.9131,2.8158,2.7395,2.7021,2.7021,2.6955,2.7056,2.7319,2.7977,2.7904,2.7294,0.0,2.7181,2.6539,2.6453,2.6522,2.6691,2.6691,2.6691,2.6691,2.6691,2.6691,2.6691,0.0,0.0,0.0,0.0,0.0,0.0,0.0,0.0,0.0,0.0,0.0,0.0,0.0,0.0,0.0,0.0,0.0,0.0,0.0,0.0,0.0,0.0,0.0,0.0,0.0,0.0,0.0,0.0,0.0,0.0,0.0,0.0,0.0,0.0,0.0,0.0,0.0,0.0,0.0,0.0,0.0,0.0,0.0,0.0,0.0,0.0,0.0,0.0,0.0,0.0,1.5093,1.5454,1.6427,1.7726,1.9182,2.063,2.1884,2.315,2.5048,2.5719,2.6225,2.7498,2.7789,2.7173,2.5036,2.4847,2.4297,2.1069,0.0,1.9208,1.7963,1.7693,1.8029,1.9043,0.0,2.2776,2.5854,2.7103,2.8581,3.0905,3.1244,3.1957,3.3486,3.3469,3.32,3.2811,3.2042,3.1496,3.1313,3.0746,3.0745,3.136,3.0298,2.9056,2.7775,2.7709,2.7715,2.7625,2.7625,2.7845,2.8367,2.8463,2.8132,2.7403,2.7357,2.6916,2.6237,2.6048,2.6286,2.6691,2.6691,2.6691,2.6691,2.6691,2.6691,2.6691,0.0,0.0,0.0,0.0,0.0,0.0,0.0,0.0,0.0,0.0,1.1002,1.1367,0.0,0.0,0.0,0.0,0.0,0.0,0.0,0.0,0.0,0.0,0.0,0.0,0.0,0.0,0.0,0.0,0.0,0.0,0.0,0.0,0.0,0.0,0.0,0.0,0.0,0.0,0.0,0.0,0.0,0.0,0.0,0.0,0.0,0.0,0.0,0.0,0.0,0.0,1.598,1.6483,1.8691,2.0302,2.1502,2.2197,2.3653,2.5138,2.5512,2.6414,2.7524,2.821,2.8141,2.7734,2.6933,2.5602,0.0,0.0,0.0,1.8647,1.792,1.7362,1.8143,2.1455,0.0,0.0,0.0,0.0,2.9509,0.0,0.0,0.0,0.0,0.0,0.0,0.0,3.3532,3.2601,3.1519,3.1354,3.1072,3.0687,3.0462,2.9729,2.8427,2.8427,2.8128,2.7625,2.7625,2.766,2.776,2.8271,2.8167,2.7561,2.7399,0.0,2.6952,2.6258,2.6286,2.6691,2.6691,2.6691,2.6691,2.6691,2.6691,2.6691,0.0,0.0,0.0,0.0,0.0,0.0,0.0,0.9247,0.9853,1.0274,1.119,1.17,1.1431,1.2282,0.0,0.0,0.0,0.0,0.0,0.0,0.0,0.0,0.0,0.0,0.0,0.0,0.0,0.0,0.0,0.0,0.0,0.0,0.0,0.0,0.0,0.0,0.0,0.0,0.0,0.0,0.0,0.0,0.0,0.0,0.0,0.0,0.0,0.0,0.0,0.0,1.5563,1.6643,1.9714,2.2002,2.3594,2.3609,2.4966,2.6612,2.7178,2.7708,2.8412,2.9594,2.9038,2.7513,2.497,0.0,0.0,0.0,0.0,1.6576,1.6281,0.0,0.0,0.0,0.0,0.0,0.0,0.0,0.0,0.0,0.0,0.0,0.0,0.0,0.0,3.2886,3.2596,3.2385,3.2527,3.1898,3.121,3.0522,3.0507,3.0058,2.9116,2.8771,2.8427,2.8098,2.779,2.7625,2.7625,2.791,2.7859,2.7479,2.7088,2.6765,2.6412,2.5889,2.5857,2.6135,2.6286,2.6488,2.6691,2.6691,2.6691,2.6691,0.0,0.0,0.0,0.0,0.0,0.0,0.0,0.8954,0.9412,1.0062,1.1126,1.1847,1.1957,1.2354,1.2615,0.0,0.0,0.0,0.0,0.0,0.0,0.0,0.0,0.0,0.0,0.0,0.0,0.0,0.0,0.0,0.0,0.0,0.0,0.0,0.0,0.0,0.0,0.0,0.0,0.0,0.0,0.0,0.0,0.0,0.0,0.0,0.0,0.0,0.0,0.0,1.5131,1.6372,1.9423,2.2133,2.4121,2.4109,2.5567,2.7501,2.8565,2.8912,2.9222,3.0634,2.9622,2.721,2.2899,2.1291,0.0,0.0,1.4648,1.5054,1.5209,0.0,0.0,0.0,0.0,0.0,0.0,0.0,0.0,0.0,0.0,0.0,0.0,0.0,0.0,3.1719,3.1743,3.2133,3.3006,3.2093,3.1285,3.0746,3.0717,3.0357,2.9594,2.9071,2.8667,2.8368,2.7829,2.7625,2.7625,2.7625,2.7557,2.7425,2.6841,2.6329,2.581,2.5673,2.5615,2.566,2.6059,2.6418,2.6691,2.6691,2.6691,2.6691,0.0,0.0,0.0,0.0,0.0,0.0,0.0,0.8868,0.9676,0.976,1.0933,1.1957,1.2401,1.2838,1.2943,0.0,0.0,0.0,0.0,0.0,0.0,0.0,0.0,0.0,0.0,0.0,0.0,0.0,0.0,0.0,0.0,0.0,0.0,0.0,0.0,0.0,0.0,0.0,0.0,0.0,0.0,0.0,0.0,0.0,0.0,0.0,0.0,0.0,0.0,0.0,0.0,1.5956,1.7343,1.9426,2.1592,2.2867,0.0,0.0,2.8253,2.9302,3.0158,3.0158,2.936,2.7518,2.352,0.0,0.0,1.6323,1.5664,1.5876,1.6512,0.0,0.0,0.0,0.0,1.8309,0.0,0.0,0.0,0.0,0.0,0.0,0.0,0.0,0.0,3.2332,3.2976,3.2841,3.1764,3.1541,3.1437,3.1377,3.1377,3.0851,2.9594,2.952,2.8876,2.7715,2.7655,2.7625,2.7625,2.7625,2.758,2.754,2.6905,2.6336,0.0,2.6206,2.6029,2.5686,2.6494,2.6776,2.6691,2.6691,2.6691,2.6691,0.0,0.0,0.0,0.0,0.0,0.0,0.8076,0.8557,0.9093,0.958,1.0661,1.1431,1.1525,1.2527,1.3116,0.0,0.0,0.0,0.0,0.0,0.0,0.0,0.0,0.0,0.0,0.0,0.0,0.0,0.0,0.0,0.0,0.0,0.0,0.0,0.0,0.0,0.0,0.0,0.0,0.0,0.0,0.0,0.0,0.0,0.0,0.0,0.0,0.0,0.0,0.0,0.0,0.0,1.4739,1.6445,0.0,0.0,2.3744,2.6219,2.8531,2.9958,3.0805,3.0939,2.9159,2.6363,2.2398,0.0,0.0,1.5261,1.5244,1.5771,1.5609,0.0,0.0,0.0,0.0,0.0,0.0,0.0,0.0,0.0,0.0,0.0,0.0,0.0,3.0593,3.1141,3.1486,3.1644,3.1482,3.1855,3.1943,3.1482,3.1482,3.1091,3.0148,2.9759,2.931,2.8771,2.8382,2.8188,2.8188,2.8188,2.7964,2.761,2.734,2.6474,0.0,2.6208,2.5708,2.4594,2.5961,2.6206,2.5916,2.6979,2.6911,2.6455,0.0,0.0,0.0,0.0,0.0,0.7802,0.8145,0.8291,0.8614,0.9164,1.0089,1.0731,1.0932,1.1895,1.269,1.3151,0.0,0.0,0.0,0.0,0.0,0.0,0.0,0.0,0.0,0.0,0.0,0.0,0.0,0.0,0.0,0.0,0.0,0.0,0.0,0.0,0.0,0.0,0.0,0.0,0.0,0.0,0.0,0.0,0.0,0.0,0.0,0.0,0.0,0.0,0.0,0.0,0.0,0.0,0.0,0.0,2.209,2.5272,2.7466,2.9327,3.0659,3.0636,2.8158,2.4777,0.0,0.0,0.0,1.4408,1.476,1.5505,1.5171,1.537,0.0,0.0,0.0,1.8391,0.0,0.0,0.0,0.0,0.0,0.0,0.0,3.0152,3.067,3.067,3.094,3.1225,3.1467,3.2153,3.2213,3.1497,3.1482,3.121,3.0507,3.0073,2.9669,2.928,2.8831,2.8486,2.8248,2.8306,2.8021,2.7523,2.7585,2.6732,0.0,2.6432,2.5808,2.4273,2.5699,2.5934,2.5648,2.6864,2.7031,2.6818,0.0,0.0,0.0,0.0,0.0,0.0,0.0,0.8105,0.8411,0.842,0.9133,1.0001,1.0979,1.0989,1.1538,1.3079,0.0,0.0,0.0,0.0,0.0,0.0,0.0,0.0,0.0,0.0,0.0,0.0,0.0,0.0,0.0,0.0,0.0,0.0,0.0,0.0,0.0,0.0,0.0,0.0,0.0,0.0,0.0,0.0,0.0,0.0,0.0,0.0,0.0,0.0,0.0,0.0,0.0,0.0,0.0,0.0,2.0218,2.4563,2.4388,2.6916,2.946,2.8801,2.6108,2.2936,0.0,0.0,0.0,1.4188,1.4496,1.5255,1.5697,1.5418,1.5475,1.6621,0.0,0.0,2.031,0.0,0.0,0.0,0.0,0.0,2.9276,3.0674,3.1509,3.1509,3.2123,0.0,3.1511,3.2153,3.2213,3.1497,3.1482,3.121,3.0507,3.0492,2.9864,2.8607,2.8607,2.8178,2.7442,2.7557,2.7546,2.7396,2.7557,2.7104,0.0,2.7252,2.6597,2.5147,2.6068,2.6302,2.62,2.6204,2.7013,2.8069,0.0,0.0,0.0,0.0,0.0,0.0,0.0,0.7812,0.8019,0.8306,0.8879,0.9457,1.0023,1.0923,1.1709,1.2199,0.0,0.0,0.0,0.0,0.0,0.0,0.0,0.0,0.0,0.0,0.0,0.0,0.0,0.0,0.0,0.0,0.0,0.0,0.0,0.0,0.0,0.0,0.0,0.0,0.0,0.0,0.0,0.0,0.0,0.0,0.0,0.0,0.0,0.0,0.0,0.0,0.0,0.0,0.0,0.0,0.0,0.0,2.1477,2.3347,2.4807,2.4612,2.2727,2.0468,1.8732,0.0,0.0,1.4223,1.4354,1.4814,1.5225,1.5195,1.5475,1.6621,1.6766,0.0,0.0,0.0,0.0,0.0,0.0,2.9783,0.0,0.0,3.0567,3.1407,3.0896,3.0806,3.1437,3.1676,3.1691,3.1482,3.1482,3.121,3.0507,3.0507,3.0298,2.9894,2.9894,2.9214,2.7963,2.8671,2.8132,2.6703,2.7327,2.7094,2.637,2.7225,2.6659,2.5363,2.6581,2.6535,2.5948,2.718,2.7328,2.7118,0.0,0.0,0.0,0.0,0.0,0.0,0.0,0.7695,0.7841,0.8233,0.859,0.907,0.9752,1.0528,1.1194,1.1697,0.0,0.0,0.0,0.0,0.0,0.0,0.0,0.0,0.0,0.0,0.0,0.0,0.0,0.0,0.0,0.0,0.0,0.0,0.0,0.0,0.0,0.0,0.0,0.0,0.0,0.0,1.3984,0.0,0.0,0.0,0.0,0.0,0.0,0.0,0.0,0.0,0.0,0.0,0.0,0.0,0.0,0.0,0.0,2.0737,2.1934,2.1934,2.0049,0.0,0.0,0.0,0.0,0.0,1.4512,1.4875,1.4868,1.5195,1.5722,1.6427,1.7261,0.0,0.0,0.0,0.0,0.0,0.0,0.0,0.0,3.0642,3.0657,3.1422,3.0776,3.0672,3.1437,3.1482,3.1482,3.1482,3.1482,3.133,3.0896,3.0627,3.0387,3.0163,2.9894,2.9109,2.7902,2.8565,2.8072,2.6749,2.7342,2.7285,0.0,2.7403,2.6869,2.5896,2.6748,2.6636,2.6091,2.7259,2.7629,2.7679,0.0,0.0,0.0,0.0,0.0,0.0,0.0,0.0,0.7841,0.8205,0.8262,0.8717,0.995,0.9816,1.0201,1.1509,0.0,0.0,0.0,0.0,0.0,0.0,0.0,0.0,0.0,0.0,0.0,0.0,1.3198,1.3198,1.3198,0.0,0.0,0.0,0.0,0.0,0.0,0.0,0.0,0.0,0.0,0.0,0.0,0.0,0.0,0.0,0.0,0.0,0.0,0.0,0.0,0.0,0.0,0.0,0.0,0.0,0.0,0.0,0.0,0.0,0.0,0.0,0.0,0.0,0.0,0.0,0.0,0.0,0.0,1.5267,1.467,1.5449,1.617,1.617,1.7979,0.0,0.0,0.0,0.0,0.0,2.6521,0.0,3.0026,3.0917,3.1409,3.1351,3.1409,3.1409,3.1409,3.1467,3.1452,3.1407,3.1407,3.1422,3.1482,3.0851,3.0163,2.9544,2.8936,2.8162,2.7319,2.7557,2.7561,0.0,2.7542,2.7625,2.7625,2.7625,2.725,2.6672,2.6672,2.6672,2.6672,2.6672,2.7786,2.9277,0.0,0.0,0.0,0.0,0.0,0.0,0.0,0.0,0.0,0.0,0.7841,0.8088,0.8746,0.9701,1.041,0.0,0.0,0.0,0.0,0.0,0.0,0.0,0.0,0.0,0.0,0.0,0.0,1.3198,1.3198,1.3198,1.3198,1.3198,0.0,0.0,0.0,0.0,0.0,0.0,0.0,0.0,0.0,0.0,0.0,0.0,0.0,0.0,1.2416,1.2647,0.0,0.0,0.0,0.0,0.0,0.0,0.0,0.0,1.4011,1.4533,1.5093,0.0,1.6234,1.6366,1.5459,0.0,0.0,0.0,0.0,0.0,0.0,1.5082,1.524,1.6176,1.693,1.6877,1.7619,1.8684,2.0113,0.0,0.0,2.4509,2.8473,3.0275,2.7563,2.9276,3.0329,2.9628,3.0208,3.0584,3.0584,3.1161,3.1228,3.0761,3.0746,3.1001,3.1467,3.0851,3.0072,2.9291,2.932,2.8267,2.6298,2.7716,2.7724,2.6581,2.7297,2.7625,2.7625,2.7625,2.7515,2.7375,2.7375,2.7375,2.7375,2.7375,2.7985,2.8701,0.0,0.0,0.0,0.0,0.0,0.0,0.0,0.0,0.0,0.0,0.0,0.0,0.0,0.0,0.0,0.0,0.0,0.0,0.0,0.0,0.0,0.0,0.0,0.0,0.0,0.0,0.0,0.0,0.0,1.3198,0.0,0.0,0.0,0.0,0.0,0.0,0.0,0.0,0.0,0.0,1.3311,0.0,0.0,0.0,0.0,0.0,1.2416,1.2605,0.0,1.2534,1.2785,1.316,0.0,0.0,0.0,0.0,1.4264,1.4654,1.489,1.4404,1.3982,1.4588,1.3671,1.2882,0.0,0.0,0.0,0.0,0.0,0.0,1.5453,1.6441,0.0,1.7208,1.8014,0.0,0.0,0.0,0.0,2.4519,2.6977,2.8353,0.0,2.8751,2.969,2.9566,3.0011,3.0329,3.0329,3.1087,3.1172,3.0425,3.0488,3.0687,3.1061,3.0103,2.9313,2.8759,2.8716,2.7762,2.6143,2.7516,2.768,2.6881,2.694,2.7252,2.756,2.717,2.7265,2.7625,2.7625,2.7625,2.7625,2.7625,2.7993,2.8517,0.0,0.0,0.0,0.0,0.0,0.0,0.0,0.0,0.0,0.0,0.0,0.0,0.0,0.0,0.0,0.0,0.0,0.0,0.0,0.0,0.0,0.0,0.0,0.0,0.0,0.0,0.0,0.0,0.0,0.0,0.0,0.0,0.0,0.0,0.0,0.0,0.0,0.0,0.0,0.0,1.3073,0.0,0.0,0.0,0.0,0.0,0.0,0.0,0.0,1.2002,1.2467,1.3123,1.268,0.0,0.0,0.0,0.0,0.0,1.4941,1.3927,1.3068,1.4187,1.2823,1.165,0.0,0.0,0.0,0.0,0.0,0.0,0.0,0.0,0.0,0.0,0.0,0.0,2.1636,2.2569,2.3492,2.4369,2.5023,0.0,2.7485,2.8516,2.9289,2.9704,3.0072,3.0269,3.0133,3.097,3.1175,3.0379,3.0347,3.0357,3.0357,2.919,2.8429,2.8038,2.7735,2.7164,2.6335,2.7206,2.7625,2.7565,0.0,0.0,2.7538,2.6787,2.6935,2.7625,2.7625,2.7625,2.7625,2.7625,2.8001,2.852,0.0,0.0,0.0,0.0,0.0,0.0,0.0,0.0,0.0,0.0,0.0,0.0,0.0,0.0,0.0,0.0,0.0,0.0,0.0,0.0,0.0,0.0,0.0,0.0,0.0,0.0,0.0,0.0,0.0,0.0,1.3198,1.3198,1.3198,0.0,0.0,0.0,1.2472,1.204,1.2115,1.2529,1.2529,0.0,0.0,0.0,0.0,0.0,0.0,0.0,0.0,1.2973,1.306,1.3185,1.3098,0.0,0.0,0.0,0.0,0.0,1.312,1.3014,1.3472,1.4935,1.4,1.2905,0.0,0.0,0.0,0.0,0.0,0.0,0.0,0.0,0.0,0.0,0.0,2.1554,0.0,0.0,2.6079,2.3628,0.0,2.8876,2.4905,2.7664,2.8969,2.7201,2.9066,2.995,2.9254,3.0644,3.1198,3.0488,2.9988,2.9729,2.9729,2.8981,2.8203,2.7348,2.7523,2.7164,2.6335,2.7206,2.7625,2.761,0.0,2.7485,2.757,2.744,2.75,2.7625,2.7625,2.7625,2.7625,2.7625,2.8017,2.8586,0.0,0.0,0.0,0.0,0.0,0.0,0.0,0.0,0.0,0.0,0.0,0.0,0.0,0.0,0.0,0.0,0.0,0.0,0.0,0.0,0.0,0.0,0.0,0.0,0.0,0.0,0.0,0.0,0.0,1.291,1.3198,1.3198,1.3048,1.2747,0.0,0.0,1.2379,1.1826,1.1738,1.1964,0.0,0.0,0.0,0.0,0.0,0.0,0.0,0.0,0.0,0.0,1.2947,1.3148,1.2847,0.0,0.0,0.0,0.0,0.0,1.3797,1.3709,1.4008,1.5299,1.3912,0.0,0.0,0.0,0.0,0.0,0.0,0.0,0.0,0.0,0.0,0.0,0.0,2.2841,2.3054,2.4319,2.4842,0.0,0.0,2.6764,2.5045,2.6804,2.7758,2.7175,2.8684,2.9442,2.9002,3.0208,3.0529,2.9869,2.9239,2.8935,2.9056,2.8382,2.778,2.7179,2.7478,2.7164,2.6335,2.7206,2.7625,2.758,0.0,2.7145,2.755,2.7087,2.717,2.7625,2.7625,2.7625,2.7625,2.7625,2.8017,2.8591,0.0,0.0,0.0,0.0,0.0,0.0,0.0,0.0,0.0,0.0,0.0,0.0,0.0,0.0,0.0,0.0,0.0,0.0,0.0,0.0,0.0,0.0,0.0,0.0,0.0,0.0,0.0,1.15,1.2005,1.2581,1.3198,1.3198,1.2973,0.0,0.0,0.0,1.2178,1.1487,1.1261,1.1399,0.0,0.0,0.0,0.0,0.0,0.0,0.0,0.0,0.0,0.0,0.0,0.0,0.0,0.0,0.0,1.377,1.3984,1.4123,1.4286,1.4211,1.4224,1.4771,0.0,0.0,0.0,0.0,0.0,0.0,0.0,0.0,0.0,0.0,0.0,0.0,2.2598,2.3636,2.3875,2.3978,2.4185,2.4624,2.4738,2.5088,2.5871,2.6575,2.7101,2.743,2.8292,2.8719,2.8543,2.9214,2.934,2.8868,2.8197,2.7992,2.8314,2.7698,2.734,2.7298,2.7504,2.7233,2.6611,2.7308,2.7625,2.755,2.6714,2.6743,2.728,2.6489,2.6642,2.739,2.739,2.7434,2.7625,2.7625,2.7906,2.8374,0.0,0.0,0.0,0.0,0.0,0.0,0.0,0.0,0.0,0.0,0.0,0.0,0.0,0.0,0.0,0.0,0.0,0.0,0.0,0.0,0.0,0.0,0.0,0.0,0.0,0.9358,1.0059,1.0587,1.142,1.2302,1.3198,1.3198,1.3173,1.3098,0.0,0.0,1.1575,1.0483,1.032,1.0806,1.1374,0.0,0.0,0.0,0.0,0.0,0.0,0.0,0.0,0.0,0.0,0.0,0.0,0.0,1.321,1.3248,1.3647,1.3871,1.2856,1.3308,1.3863,1.2794,0.0,0.0,0.0,0.0,0.0,0.0,0.0,0.0,0.0,0.0,0.0,2.033,2.1592,2.3301,2.5866,0.0,2.6823,2.6413,2.7188,2.7452,2.6564,2.7631,2.7884,2.6696,2.7608,2.7913,2.7123,2.7366,2.7499,2.7457,2.6828,2.6863,2.757,2.6934,2.6901,2.76,2.7595,2.758,2.7525,2.758,2.7625,2.758,2.6876,2.6621,2.6602,2.5916,2.6042,2.6672,2.6672,2.7045,2.7625,2.7625,2.764,2.767,0.0,0.0,0.0,0.0,0.0,0.0,0.0,0.0,0.0,0.0,0.0,0.0,0.0,0.0,0.0,0.0,0.0,0.0,0.0,0.0,0.0,0.0,0.0,0.8262,0.8411,0.9223,0.9558,0.9446,1.0942,1.2038,1.2697,1.3035,0.0,0.0,0.0,0.0,1.0998,1.0219,1.0018,1.0232,1.0445,1.1086,0.0,0.0,0.0,0.0,0.0,0.0,0.0,0.0,1.2756,1.2838,1.3094,1.3198,1.3198,1.3198,1.3348,1.3458,1.2998,1.3471,1.4074,1.3939,0.0,0.0,0.0,0.0,0.0,0.0,0.0,0.0,0.0,0.0,0.0,2.1236,2.2972,2.4845,2.6332,2.664,2.676,2.6546,2.6829,2.6917,2.6571,2.6629,2.6518,2.6005,2.6527,2.676,2.64,2.6484,2.6598,2.6757,2.6013,2.5772,2.6188,2.5964,2.5946,2.6269,2.7137,2.7625,2.7625,2.7625,2.735,2.6946,2.6692,2.6363,2.5989,2.6126,2.6381,2.6643,2.7071,2.739,2.7625,2.7625,2.7625,2.7625,0.0,0.0,0.0,0.0,0.0,0.0,0.0,0.0,0.0,0.0,0.0,0.0,0.0,0.0,0.0,0.0,0.0,0.0,0.0,0.0,0.0,0.0,0.0,0.8008,0.8174,0.9271,0.9653,0.9345,1.1216,1.2215,1.2416,0.0,0.0,0.0,0.0,0.0,0.0,1.0212,0.9951,0.9918,0.9976,1.0538,0.0,0.0,0.0,0.0,0.0,0.0,0.0,0.0,1.2508,1.2579,1.306,0.0,1.3198,1.3198,1.3198,1.3198,1.3198,1.3509,1.3959,0.0,0.0,0.0,0.0,0.0,0.0,0.0,0.0,0.0,0.0,0.0,0.0,0.0,2.3256,2.4946,2.6038,2.6189,2.6319,2.6508,2.6533,2.6458,2.6201,2.5824,2.5523,2.536,2.5396,2.5449,2.5449,2.5097,2.5024,2.5329,2.4642,2.4503,2.5077,2.5063,2.5175,2.5398,2.6428,2.6916,2.6916,2.7152,2.6885,2.6248,2.6266,2.6019,2.5615,2.5888,2.6206,2.6693,2.736,2.7625,2.7625,2.7625,2.7625,2.7625,0.0,0.0,0.0,0.0,0.0,0.0,0.0,0.0,0.0,0.0,0.0,0.0,0.0,0.0,0.0,0.0,0.0,0.0,0.0,0.0,0.0,0.0,0.0,0.8164,0.7715,0.9422,1.0359,1.051,1.2289,1.2897,1.2404,1.2416,0.0,0.0,0.0,0.0,0.0,0.0,1.0079,0.9917,1.0109,1.0412,1.0819,0.0,0.0,0.0,0.0,0.0,0.0,0.0,1.2496,1.2567,1.3047,0.0,0.0,1.321,1.321,1.3198,1.321,1.3198,0.0,0.0,0.0,0.0,0.0,0.0,0.0,0.0,0.0,0.0,0.0,0.0,0.0,2.1369,2.1958,2.31,2.5285,2.5598,2.5799,2.6445,2.6521,2.6214,2.5649,2.5586,2.536,2.4858,2.4305,2.3991,2.3991,2.2924,2.2573,2.3053,2.2611,2.2923,2.4292,2.4292,2.4681,2.5398,2.5398,2.5398,2.5398,2.6176,2.6136,2.5473,2.5583,2.56,2.5555,2.4896,2.5394,2.6684,2.7315,2.756,2.756,2.7625,2.7625,2.7625,0.0,0.0,0.0,0.0,0.0,0.0,0.0,0.0,0.0,0.0,0.0,0.0,0.0,0.0,0.0,0.0,0.0,0.0,0.0,0.0,0.0,0.0,0.0,0.0,0.0,0.0,1.057,1.1271,1.138,1.16,0.0,0.0,0.0,1.16,0.0,0.0,0.0,0.0,0.9789,0.9892,0.971,1.0043,1.0731,0.0,0.0,0.0,0.0,0.0,0.0,0.0,0.0,0.0,1.2854,0.0,0.0,1.3613,1.3047,1.2364,1.307,1.2745,0.0,0.0,0.0,0.0,0.0,0.0,0.0,0.0,0.0,0.0,0.0,0.0,0.0,2.155,2.2611,2.3991,2.5398,2.5285,2.5247,2.5787,2.5523,2.5247,2.5071,2.4707,2.4406,2.4255,2.3715,2.3389,2.3389,2.3075,2.2962,2.3065,2.2975,2.3022,2.3471,2.3484,2.359,2.3754,2.3754,2.4323,2.5384,2.5213,2.4982,2.479,2.4927,2.4941,2.4881,2.5135,2.5744,2.654,2.6772,2.6825,2.6905,2.7405,2.7625,2.7625,0.0,0.0,0.0,0.0,0.0,0.0,0.0,0.0,0.0,0.0,0.0,0.0,0.0,0.0,0.0,0.0,0.0,0.0,0.0,0.0,0.0,0.0,0.0,0.0,0.0,0.991,1.0358,0.0,0.0,0.0,0.0,0.0,0.0,1.1232,0.0,1.129,0.0,0.0,0.9962,0.9684,0.9513,0.9738,1.0229,0.0,0.0,0.0,0.0,0.0,0.0,0.0,0.0,0.0,0.0,0.0,0.0,1.3349,1.2974,1.2545,1.3123,0.0,0.0,0.0,0.0,0.0,0.0,0.0,0.0,0.0,0.0,0.0,0.0,0.0,0.0,2.2189,2.2987,2.3954,2.4833,2.4695,2.4695,2.5222,2.5008,2.4745,2.4519,2.4192,2.3904,2.3665,2.3339,2.3078,2.3078,2.2924,2.2811,2.2811,2.2598,2.2485,2.2485,2.2698,2.2811,2.2752,2.3025,2.359,2.4483,2.4446,2.4285,2.4062,2.4436,2.4576,2.4583,2.5501,2.6149,2.6526,2.6827,2.6948,2.7015,2.7419,2.7625,2.7625,0.0,0.0,0.0,0.0,0.0,0.0,0.0,0.0,0.0,0.0,0.0,0.0,0.0,0.0,0.0,0.0,0.0,0.0,0.0,0.0,0.0,0.0,0.0,0.0,0.0,0.0,0.0,0.0,0.0,0.0,0.0,0.0,1.0712,1.0725,0.0,1.1173,0.0,0.0,1.0221,0.9274,0.9346,0.9363,0.9437,1.022,0.0,0.0,0.0,0.0,0.0,0.0,0.0,0.0,1.1395,0.0,1.2922,1.2543,1.2768,1.3158,0.0,0.0,0.0,0.0,0.0,0.0,0.0,0.0,0.0,0.0,0.0,0.0,0.0,0.0,2.2188,2.2942,2.304,2.3339,2.3916,2.3954,2.413,2.4682,2.4695,2.4469,2.3966,2.3916,2.3703,2.3115,2.3078,2.3078,2.3078,2.2661,2.2359,2.2309,2.1832,2.1543,2.1493,2.2033,2.2284,2.2246,2.2799,2.3002,2.3062,2.3807,2.3795,2.3326,2.4136,2.4486,2.4609,2.5871,2.6373,2.6454,2.7197,2.7496,2.7515,2.756,2.7625,2.7625,0.0,0.0,0.0,0.0,0.0,0.0,0.0,0.0,0.0,0.0,0.0,0.0,0.0,0.0,0.0,0.0,0.0,0.0,0.0,0.0,0.0,0.0,0.0,0.0,0.0,0.0,0.0,0.0,0.0,0.0,0.0,0.0,0.0,1.0779,0.0,1.052,0.0,0.9259,0.8644,0.8239,0.8415,0.863,0.8874,0.9057,0.9463,0.0,0.0,0.0,0.0,0.0,0.0,0.0,1.0469,1.0642,1.0695,1.1705,1.1841,1.191,0.0,0.0,0.0,0.0,0.0,0.0,0.0,0.0,0.0,0.0,0.0,0.0,0.0,2.2081,2.225,2.2426,2.2862,2.3339,2.3916,2.3602,2.3527,2.4104,2.3778,2.3452,2.3265,2.3265,2.3215,2.3078,2.3078,2.3078,2.3078,2.2965,2.2761,2.2322,2.2196,2.1933,2.1493,2.2033,2.2096,2.1669,2.2221,2.2485,2.2485,2.266,2.2974,2.3437,2.471,2.5216,2.5191,2.5511,2.5654,2.5712,2.6437,2.674,2.6811,2.7405,2.7625,2.7625,0.0,0.0,0.0,0.0,0.0,0.0,0.0,0.0,0.0,0.0,0.0,0.0,0.0,0.0,0.0,0.0,0.0,0.0,0.0,0.0,0.0,0.0,0.0,0.0,0.0,0.0,0.0,0.0,0.0,0.0,0.0,0.0,0.0,1.0516,0.0,1.036,0.0,0.0,0.8615,0.7813,0.8033,0.8066,0.8063,0.8251,0.8634,0.9128,0.9404,0.0,0.0,0.0,0.0,0.0,0.0,0.0,1.0238,1.0703,1.0999,1.1346,0.0,0.0,0.0,0.0,0.0,0.0,0.0,0.0,0.0,0.0,0.0,0.0,2.1493,2.1732,2.2008,2.2272,2.2548,2.2937,2.3502,2.3326,2.3251,2.3552,2.3314,2.3078,2.3078,2.3078,2.3078,2.3078,2.3078,2.2965,2.2761,2.2736,2.2372,2.1543,2.1518,2.1255,2.069,2.1242,2.1534,2.1555,2.2065,2.2687,2.3283,2.2852,2.3096,2.3874,2.4184,2.4303,2.4368,2.508,2.5418,2.5526,2.6586,2.6811,2.6549,2.6957,2.7055,2.7045,0.0,0.0,0.0,0.0,0.0,0.0,0.0,0.0,0.0,0.0,0.0,0.0,0.0,0.0,0.0,0.0,0.0,0.0,0.0,0.0,0.0,0.0,0.0,0.0,0.0,0.0,0.0,0.0,0.0,0.0,0.0,0.0,0.0,1.0356,0.0,0.0,0.0,0.0,0.0,0.0,0.0,0.0,0.7304,0.7647,0.7956,0.8283,0.8897,0.8908,0.8677,0.8849,0.0,0.0,0.0,0.0,1.004,0.9656,1.0231,1.0944,0.0,0.0,0.0,0.0,0.0,0.0,0.0,0.0,0.0,0.0,0.0,2.1317,2.1217,2.128,2.1493,2.1945,2.2108,2.2359,2.2912,2.2927,2.3025,2.3065,2.3078,2.3078,2.3078,2.299,2.2927,2.2927,2.2912,2.2648,2.2196,2.2171,2.1763,2.0904,2.0772,2.0494,1.9952,2.0482,2.0974,2.147,2.2102,2.3137,2.4413,2.3568,2.3632,2.4452,2.393,2.3636,2.3577,2.4772,2.537,2.5687,2.6836,2.6935,2.6506,2.6489,2.6398,2.6255,0.0,0.0,0.0,0.0,0.0,0.0,0.0,0.0,0.0,0.0,0.0,0.0,0.0,0.0,0.0,0.0,0.0,0.0,0.0,0.0,0.0,0.0,0.0,0.0,0.0,0.0,0.0,0.0,0.0,0.0,0.0,0.0,0.0,0.0,0.0,0.0,0.0,0.0,0.0,0.0,0.0,0.0,0.0,0.7195,0.7669,0.8351,0.8914,0.8669,0.8219,0.9057,0.8678,0.0,0.0,0.0,0.8219,0.8829,0.952,1.021,0.0,0.0,0.0,0.0,0.0,0.0,0.0,0.0,0.0,0.0,2.0376,2.0627,2.0112,2.0439,2.0857,2.092,2.128,2.1794,2.2347,2.2422,2.2598,2.3015,2.3078,2.3078,2.3078,2.2698,2.2422,2.2422,2.1983,2.1681,2.1606,2.1594,2.1568,2.1485,2.0972,2.0705,2.066,2.0679,2.077,2.0914,2.2038,2.3292,2.4611,2.3754,2.4055,2.5287,2.5837,2.5673,2.5078,2.475,2.528,2.6301,2.6002,2.6126,2.6506,2.6489,2.6088,2.5549,0.0,0.0,0.0,0.0,0.0,0.0,0.0,0.0,0.0,0.0,0.0,0.0,0.0,0.0,0.0,0.0,0.0,0.0,0.0,0.0,0.0,0.0,0.7658,0.0,0.0,0.0,0.0,0.0,0.0,0.0,0.0,1.0576,1.0583,0.0,0.0,0.0,0.0,0.0,0.0,0.0,0.0,0.0,0.0,0.0,0.7025,0.767,0.8009,0.8348,0.8633,0.8846,0.8794,0.8634,0.8606,0.0,0.0,0.0,0.0,0.0,0.0,0.0,0.0,0.0,0.0,0.0,0.0,0.0,0.0,0.0,1.9108,1.9384,1.9736,2.0012,2.0288,2.0668,2.092,2.1217,2.1782,2.2121,2.2284,2.2221,2.2485,2.2548,2.2246,2.1995,2.1845,2.1845,2.1631,2.1509,2.1545,2.1532,2.1564,2.165,2.1402,2.1269,2.1293,2.1269,2.1628,2.2456,2.3669,2.4801,2.5751,2.5741,2.5845,2.5986,2.5511,2.5338,2.5439,2.5542,2.5948,2.6539,2.6645,2.6606,2.6433,2.6022,2.5657,2.5302,0.0,0.0,0.0,0.0,0.0,0.0,0.0,0.0,0.0,0.0,0.0,0.0,0.0,0.0,0.0,0.0,0.0,0.0,0.0,0.0,0.0,0.7628,0.7357,0.7335,0.7637,0.0,0.0,0.0,0.0,0.0,1.0661,1.0269,1.0101,0.0,1.0475,0.0,0.0,0.0,0.0,0.0,0.0,0.0,0.0,0.0,0.0,0.0,0.0,0.8221,0.8737,0.867,0.8751,0.882,0.8752,0.8653,0.0,0.0,0.0,0.0,0.0,0.0,0.0,0.0,0.0,0.0,0.0,0.0,0.0,0.0,1.7956,1.8493,1.9422,1.961,1.9798,2.0351,2.0451,2.0639,2.1204,2.1631,2.1838,2.1729,2.1958,2.199,2.1729,2.1466,2.128,2.128,2.1029,2.0942,2.1147,2.1144,2.1372,2.171,2.1697,2.1805,2.1946,2.1946,2.255,2.3692,2.4828,2.5794,2.6602,2.6752,2.6742,2.646,2.5578,2.5396,2.5692,2.5974,2.6124,2.6294,2.6701,2.6583,2.6163,2.5604,2.5272,2.494,0.0,0.0,0.0,0.0,0.0,0.0,0.0,0.0,0.0,0.0,0.0,0.0,0.0,0.0,0.0,0.7292,0.7634,0.7768,0.759,0.7575,0.7469,0.7235,0.7223,0.0,0.7235,0.0,0.0,0.0,0.0,0.0,0.9207,0.9364,0.9716,1.0206,1.0279,1.0202,0.9975,0.0,0.0,0.0,0.0,0.7551,0.0,0.0,0.0,0.0,0.0,0.0,0.7895,0.8772,0.8287,0.7459,0.826,0.8287,0.8212,0.0,0.0,0.0,0.0,0.0,0.0,0.0,0.0,0.0,0.0,0.0,0.0,0.0,1.7223,1.838,1.897,1.9021,1.9246,1.9761,1.9849,2.0049,2.068,2.0794,2.1186,2.2256,2.1869,2.1784,2.2322,2.1371,2.0756,2.0756,1.9748,1.9359,1.9875,2.0028,2.0576,2.1683,2.1697,2.2007,2.2649,2.2649,2.3011,2.3692,2.4369,2.536,2.6557,2.533,2.5418,2.6628,2.721,2.7071,2.644,2.5287,2.5135,2.561,2.5039,2.5133,2.5553,2.5423,2.4995,2.4337,0.0,0.0,0.0,0.0,0.0,0.0,0.0,0.0,0.0,0.0,0.0,0.0,0.0,0.0,0.7502,0.7927,0.7928,0.787,0.7797,0.7783,0.7694,0.747,0.7576,0.7591,0.7454,0.0,0.0,0.0,0.0,0.8053,0.8843,0.8921,0.9391,1.0202,1.0525,1.0168,0.9343,0.9704,0.0,0.0,0.8678,0.8412,0.0,0.0,0.0,0.0,0.0,0.0,0.0,0.8896,0.8799,0.8476,0.8789,0.9034,0.9274,0.9636,0.0,0.0,0.0,0.0,0.0,0.0,0.0,0.0,0.0,0.0,1.3167,1.4495,1.6011,1.7187,1.7375,1.8244,1.9345,2.0268,2.0446,2.0662,2.1246,2.1656,2.1944,2.1943,2.2079,2.1967,2.1404,2.0987,2.0607,2.0126,1.9094,1.9035,2.0298,2.0192,2.0759,2.2294,2.2731,2.3039,2.329,2.329,2.3615,2.4279,2.4476,2.5315,2.6557,2.5674,2.5749,2.6572,2.6393,2.6183,2.5944,2.5453,2.5396,2.5568,2.5349,2.5385,2.5524,2.4998,2.4648,2.4388,0.0,0.0,0.0,0.0,0.0,0.0,0.0,0.0,0.0,0.0,0.0,0.0,0.0,0.0,0.8092,0.8375,0.8198,0.804,0.7969,0.7955,0.7884,0.7709,0.7841,0.7841,0.7709,0.0,0.0,0.0,0.0,0.0,0.0,0.0,0.9167,0.9817,1.0265,1.0167,0.0,0.0,0.0,0.8744,0.0,0.903,0.8394,0.0,0.0,0.0,0.0,0.0,0.0,0.0,0.9235,0.9071,0.912,0.0,0.0,0.0,0.0,0.0,0.0,0.0,0.0,0.0,0.0,0.0,0.0,0.0,1.2876,1.3493,1.5149,1.6572,1.6773,1.7852,1.9015,1.9811,2.0411,2.0864,2.1118,2.1801,2.2228,2.2049,2.2179,2.2,2.1172,2.0904,2.0543,1.9847,1.8959,0.0,2.0656,2.0486,2.1197,2.2951,2.3385,2.3595,2.3595,2.3595,2.3939,2.4582,2.4582,2.5315,2.6557,2.5674,2.563,2.6213,2.5315,2.5061,2.527,2.527,2.5136,2.4956,2.5196,2.5248,2.5217,2.4693,2.4526,2.4459,0.0,0.0,0.0,0.0,0.0,0.0,0.0,0.0,0.0,0.0,0.0,0.0,0.0,0.0,0.0,0.8451,0.8403,0.8322,0.8115,0.8102,0.8051,0.7914,0.7914,0.7899,0.7899,0.0,0.0,0.0,0.0,0.0,0.0,0.0,0.8987,0.0,0.9416,1.0205,1.123,0.0,1.0763,1.0064,0.0,0.9454,0.8644,0.0,0.0,0.0,1.0862,1.0709,0.0,0.9916,0.0,0.0,0.0,0.0,0.0,0.0,0.0,0.0,0.0,0.0,0.0,0.0,0.0,0.0,0.0,0.0,1.266,1.2707,1.4693,1.6647,1.7225,1.7816,1.8187,1.816,1.9633,2.0607,2.0159,2.1043,2.1979,2.2649,2.2132,2.1741,2.1685,2.1128,2.0505,1.9839,1.9237,1.9444,2.073,2.0898,2.1766,2.355,2.358,2.3565,2.3565,2.3565,2.3909,2.4522,2.4552,2.527,2.6497,2.5196,2.4956,2.551,2.4178,2.3984,2.4552,2.4552,2.4208,2.367,2.4343,2.4551,2.4574,2.4504,2.4507,2.4468,0.0,0.0,0.0,0.0,0.0,0.0,0.0,0.0,0.0,0.0,0.0,0.0,0.0,0.0,0.0,0.8261,0.8322,0.8374,0.8322,0.8322,0.8227,0.8065,0.8051,0.8011,0.7899,0.7899,0.0,0.0,0.0,0.0,0.0,0.0,0.0,0.0,0.9593,0.9913,0.9988,1.0941,0.0,0.0,1.1121,1.0903,0.0,0.0,0.0,0.0,0.0,1.0909,1.031,0.0,1.0354,0.9655,0.0,0.0,0.0,0.0,0.0,0.0,0.9855,0.0,0.0,0.0,0.0,0.0,0.0,0.0,0.0,1.2411,1.3988,1.5492,1.6057,1.6954,1.7467,1.7024,1.9061,2.1009,2.1859,2.2221,2.2629,2.3274,2.279,2.2221,2.1729,2.1104,2.0454,0.0,1.8849,1.9037,2.0629,2.1665,2.2631,2.3565,2.3161,2.2936,2.2936,2.2936,2.3026,2.3221,2.367,2.4328,2.5136,2.4283,2.4253,2.4852,2.3984,2.3714,2.3879,2.3879,2.3774,2.3625,2.3804,2.3878,2.3861,2.388,2.3835,2.3831,0.0,0.0,0.0,0.0,0.0,0.0,0.0,0.0,0.0,0.0,0.0,0.0,0.0,0.0,0.0,0.8488,0.8547,0.8587,0.853,0.853,0.8438,0.824,0.8227,0.8147,0.7983,0.8068,0.0,0.0,0.0,0.0,0.0,0.0,0.0,0.0,0.0,0.0,0.0,0.0,0.0,0.0,1.1129,0.0,0.0,1.1425,1.1519,0.0,0.0,0.0,1.1131,1.1277,1.0603,0.0,0.0,0.0,0.0,0.0,0.0,0.0,0.0,0.0,0.0,0.0,0.0,0.0,1.0148,1.1353,1.2577,0.0,1.4518,1.5812,1.5618,1.6479,1.7089,1.6718,1.8212,1.9861,2.1056,2.181,2.2398,2.2772,2.2488,2.2021,2.1357,2.0907,2.0421,1.9739,1.9112,1.9339,2.0609,2.1695,2.2428,2.2802,2.2458,2.2263,2.2263,2.2547,2.2724,2.2724,2.3534,2.4157,2.4597,2.4353,2.4499,2.4923,2.4464,2.4266,2.4225,2.4032,2.3794,2.3625,2.3924,2.3849,2.361,2.3904,2.4023,2.3993,0.0,0.0,0.0,0.0,0.0,0.0,0.0,0.0,0.0,0.0,0.0,0.0,0.0,0.0,0.0,0.0,0.8936,0.8869,0.8748,0.8736,0.8652,0.8441,0.8438,0.8345,0.8144,0.8306,0.0,0.0,0.0,0.0,0.0,0.0,0.0,0.0,0.0,0.0,0.0,0.0,0.0,1.0091,1.0647,1.0875,0.0,0.0,1.1922,1.1714,1.2652,1.2629,1.208,1.1508,1.0709,0.0,0.0,0.0,0.0,0.0,0.9404,0.0,0.0,0.0,0.0,0.0,0.0,0.0,1.0532,1.1994,1.3428,0.0,1.527,1.6467,1.5461,1.6011,1.6587,1.6587,1.7086,1.7827,1.8908,2.0502,2.156,2.1485,2.1545,2.135,2.0782,2.0647,2.0378,1.9839,1.9929,2.0258,2.0797,2.1455,2.1769,2.1695,2.162,2.1629,2.1654,2.2239,2.2596,2.2768,2.3866,2.4487,2.47,2.5035,2.5258,2.5373,2.5259,2.5221,2.5182,2.4712,2.4245,2.3846,2.4298,2.4193,2.3759,2.429,2.4541,2.4483,0.0,0.0,0.0,0.0,0.0,0.0,0.0,0.0,0.0,0.0,0.0,0.0,0.0,0.0,0.0,0.0,0.0,0.9054,0.9033,0.9033,0.8913,0.8657,0.8686,0.8599,0.8348,0.8374,0.0,0.0,0.0,0.0,0.0,0.0,0.0,0.0,0.0,0.0,0.0,0.0,0.0,0.9981,1.1365,0.0,1.1124,1.2266,1.2498,1.2256,1.3252,1.3125,1.2457,1.2068,1.179,1.1613,0.0,0.0,0.0,1.1123,0.0,0.0,0.0,0.0,0.0,0.0,0.0,0.0,1.0825,1.1132,1.1694,0.0,1.3117,1.3641,1.4299,1.4599,1.473,1.473,1.5341,1.6524,1.8499,2.0013,2.0692,2.0139,2.0572,2.0857,2.0722,2.0213,2.0064,2.0483,2.1485,2.1919,2.153,2.2128,2.2248,2.171,2.1186,2.1061,2.1372,2.1495,2.2055,2.3038,2.3792,2.449,2.5076,2.5153,2.5208,2.5234,2.5192,2.5221,2.5182,2.5105,2.5058,2.4955,2.4128,2.4044,2.4358,2.3953,2.4141,2.4483,0.0,0.0,0.0,0.0,0.0,0.0,0.0,0.0,0.0,0.0,0.0,0.0,0.0,0.0,0.0,0.0,0.0,0.0,0.0,0.0,0.9129,0.9011,0.903,0.8949,0.8716,0.8785,0.8813,0.0,0.0,0.0,0.0,0.0,0.0,0.0,0.0,0.0,0.0,0.0,0.9612,0.9903,1.1226,0.0,1.1759,1.2889,1.3256,1.3203,1.3971,1.3764,1.3139,1.3211,1.2907,0.0,0.0,1.222,1.1744,0.0,1.1416,1.1113,0.0,0.0,0.0,1.092,0.0,0.0,0.0,1.1524,1.2141,1.2809,1.3487,1.3956,1.3999,1.4211,1.4392,1.4392,1.4734,1.5392,1.6504,1.8231,1.9491,1.9681,1.9989,2.0198,2.0198,1.9884,1.9974,2.0662,2.1006,2.1186,2.1201,2.1186,2.1036,2.0707,2.057,2.061,2.0791,2.1377,2.1932,2.2556,2.3455,2.4164,2.467,2.5187,2.5455,2.5615,2.5872,2.5928,2.5928,2.5689,2.5831,2.6045,2.4929,2.4496,2.4483,2.4192,2.431,2.4483,0.0,0.0,0.0,0.0,0.0,0.0,0.0,0.0,0.0,0.0,0.0,0.0,0.0,0.0,0.0,0.0,0.0,0.0,0.0,0.0,0.9515,0.9525,0.9402,0.9248,0.9067,0.921,0.922,0.0,0.0,0.0,0.0,0.0,0.0,0.0,0.0,0.0,0.0,0.0,0.0,1.0064,0.0,1.1759,1.2094,1.3225,1.3619,1.367,1.4183,1.4169,1.3925,1.4146,1.3748,1.3203,1.3387,1.3037,0.0,0.0,0.0,0.0,0.0,0.0,0.0,0.0,0.0,1.1725,0.0,0.0,0.0,1.3119,1.4065,0.0,0.0,0.0,0.0,0.0,0.0,0.0,0.0,1.628,0.0,1.8818,1.9042,1.9129,1.9299,1.9592,2.0047,2.0662,2.0438,2.0393,2.0692,2.0183,1.9861,1.9818,2.0124,2.0382,2.055,2.1469,2.2036,2.228,2.3211,2.3834,2.4204,2.518,2.5715,2.5957,2.6488,2.6691,2.6657,2.6297,2.6416,2.678,2.5765,2.5103,2.4735,2.4737,2.4787,2.4823,1.3969,1.3913,0.0,0.0,0.0,0.0,0.0,0.0,0.0,0.0,0.0,0.0,0.0,0.0,0.0,0.0,0.0,0.0,1.0537,0.0,0.0,1.0351,0.9789,0.9412,0.9266,0.9285,0.9285,0.9266,0.0,0.0,0.0,0.0,0.0,0.0,0.9588,0.0,0.0,0.0,1.048,0.0,1.2193,1.2038,0.0,1.2529,1.2844,1.2556,1.3031,1.3837,1.457,0.0,1.38,1.4063,0.0,1.3558,1.3059,1.3169,0.0,0.0,0.0,0.0,0.0,0.0,1.1762,0.0,0.0,0.0,1.2295,1.2338,0.0,0.0,0.0,0.0,0.0,0.0,0.0,0.0,1.447,1.5037,1.5542,1.6079,1.6564,1.7105,1.7788,1.9194,2.0212,2.0662,2.1724,2.1859,2.0782,2.0647,2.0488,2.0243,2.028,2.0667,2.1444,2.1573,2.2165,2.3227,2.3371,2.3793,2.4486,2.524,2.5627,2.5696,2.637,2.6691,2.6691,2.6657,2.6674,2.6622,2.56,2.5528,2.5918,2.5362,2.5491,2.5901,0.0,1.4257,0.0,0.0,0.0,0.0,0.0,0.0,0.0,0.0,0.0,0.0,0.0,0.0,0.0,0.0,0.0,1.2358,0.0,0.0,0.0,0.0,1.0288,0.9705,0.9644,0.9644,0.9644,0.9644,0.9644,0.0,0.0,0.0,0.0,0.0,0.9588,0.0,0.953,0.0,1.1135,0.0,0.0,0.0,0.0,1.3446,1.4105,1.4146,1.3901,1.4813,1.6007,0.0,1.5324,0.0,0.0,0.0,0.0,0.0,0.0,0.0,0.0,0.0,0.0,0.0,0.0,0.0,1.1629,0.0,1.2491,0.0,0.0,0.0,0.0,0.0,0.0,0.0,1.321,0.0,0.0,0.0,1.497,0.0,0.0,0.0,1.8829,1.8778,1.9092,2.0202,2.0527,2.0457,1.997,2.0268,2.043,2.028,2.0797,2.1228,2.1582,2.1869,2.2257,2.2767,2.2767,2.3139,2.3866,2.4188,2.456,2.4966,2.527,2.5659,2.6031,2.5592,2.5913,2.6624,2.5779,2.5707,2.6,2.541,2.5118,2.4946,0.0,0.0,0.0,0.0,0.0,0.0,0.0,0.0,0.0,0.0,0.0,0.0,1.1729,1.1693,0.0,0.0,1.3412,1.3611,0.0,0.0,1.2448,0.0,0.0,0.0,0.0,1.0276,1.0144,0.9893,0.9893,0.0,0.0,0.0,0.0,0.0,0.0,0.9681,0.9361,0.0,0.0,1.1899,1.3402,1.3594,1.3113,1.3994,1.4636,1.4995,1.4585,1.5381,1.6501,1.5961,1.6367,0.0,1.6126,0.0,0.0,0.0,0.0,0.0,1.3152,0.0,0.0,0.0,0.0,0.0,0.0,0.0,0.0,0.0,0.0,0.0,0.0,0.0,0.0,0.0,0.0,1.3676,0.0,1.3813,0.0,0.0,0.0,0.0,0.0,1.8327,1.8446,1.9083,1.9421,1.9513,1.9294,1.9935,2.0416,2.0634,2.1259,2.1658,2.1794,2.2135,2.231,2.231,2.231,2.2581,2.3105,2.3308,2.368,2.4218,2.4421,2.4859,2.5411,2.4995,2.5414,2.6322,2.5902,2.5929,2.6151,2.59,2.5351,2.4845,1.3796,1.4227,0.0,0.0,0.0,0.0,0.0,0.0,0.0,0.0,0.0,0.0,0.0,0.0,0.0,0.0,0.0,1.3382,1.4867,0.0,1.4061,0.0,0.0,1.1988,0.0,1.1187,1.0747,0.9893,0.9893,0.0,0.0,0.0,0.0,0.0,0.0,1.0222,1.072,1.1889,1.2415,1.2596,1.4129,1.4697,1.4512,0.0,1.3471,1.4007,1.436,0.0,0.0,1.5846,1.6274,0.0,0.0,0.0,0.0,0.0,0.0,0.0,0.0,0.0,0.0,1.2436,0.0,0.0,0.0,0.0,1.3051,0.0,0.0,0.0,0.0,0.0,0.0,0.0,0.0,0.0,0.0,0.0,0.0,0.0,0.0,0.0,0.0,1.7872,1.8856,1.7032,1.9176,2.0114,1.9079,1.983,2.0699,2.1521,2.1582,2.1823,2.2265,2.2282,2.231,2.231,2.231,2.2327,2.2361,2.3071,2.341,2.3477,2.4201,2.4688,2.5052,2.5428,2.5566,2.5561,2.5929,2.6312,2.6732,2.7118,2.6978,2.6732,0.0,0.0,0.0,0.0,0.0,0.0,0.0,1.3313,0.0,0.0,0.0,0.0,0.0,1.4212,1.4366,0.0,0.0,1.6203,1.5878,1.6086,0.0,0.0,0.0,1.4417,0.0,0.0,1.279,1.1757,1.1177,1.09,0.0,0.0,0.0,0.0,0.0,1.0228,0.0,0.0,0.0,0.0,0.0,1.4865,1.4844,0.0,1.4286,1.4777,1.5343,1.6124,0.0,1.7018,1.7547,1.8062,1.7663,1.7089,1.6488,1.6231,1.5461,0.0,0.0,0.0,1.2709,1.2745,0.0,0.0,0.0,0.0,0.0,0.0,0.0,0.0,0.0,0.0,0.0,0.0,0.0,0.0,0.0,0.0,0.0,0.0,0.0,0.0,0.0,0.0,0.0,1.6543,1.7418,1.7642,1.6915,1.926,2.055,2.0356,2.1936,2.2622,2.231,2.231,2.231,2.231,2.231,2.231,2.231,2.2564,2.2682,2.2682,2.3106,2.3667,2.4244,2.4085,2.4594,2.5517,2.5639,2.5932,2.6272,2.6725,2.6852,2.6803,1.336,0.0,0.0,0.0,0.0,0.0,0.0,0.0,0.0,0.0,1.4143,0.0,1.5695,0.0,1.5696,0.0,1.6499,1.6941,1.7506,1.683,0.0,1.8441,1.7302,0.0,0.0,0.0,0.0,1.4292,1.2375,1.1709,0.0,0.0,0.0,0.0,0.0,0.0,1.0401,0.0,1.4433,0.0,0.0,1.5253,0.0,0.0,1.5151,1.5418,0.0,1.7197,1.7853,1.8318,1.8843,1.9176,1.8609,1.8134,1.7654,1.6927,1.6213,1.5413,1.4446,1.3716,0.0,1.2981,1.3006,0.0,1.3591,0.0,1.4652,0.0,0.0,0.0,0.0,0.0,0.0,0.0,0.0,0.0,0.0,1.4508,0.0,0.0,0.0,0.0,0.0,1.6002,1.5849,1.5633,1.6326,1.6526,0.0,1.8801,2.0394,2.0322,2.2327,2.3173,2.2699,2.2699,2.2564,2.231,2.231,2.231,2.231,2.2415,2.2436,2.2463,2.2738,2.3245,2.3837,2.3671,2.4207,2.5175,2.554,2.5984,2.6493,2.7097,2.7474,2.7731,0.0,0.0,0.0,0.0,1.3233,0.0,0.0,0.0,1.4685,0.0,1.5908,1.5539,1.7504,1.6238,1.5831,1.7229,1.5382,1.5693,1.9321,1.6547,0.0,0.0,1.8656,1.7981,1.8681,0.0,0.0,0.0,0.0,0.0,0.0,0.0,0.0,0.0,1.1199,0.0,1.0567,1.4046,1.5054,1.4419,1.5232,1.5831,1.625,1.6149,1.5984,1.5985,1.7456,1.799,1.8198,1.9594,2.006,2.0002,1.976,1.9641,1.9339,1.784,1.6983,1.6237,1.5096,1.4376,1.3804,1.324,1.3535,0.0,0.0,0.0,1.5613,0.0,0.0,0.0,0.0,0.0,0.0,0.0,0.0,0.0,0.0,0.0,0.0,0.0,0.0,0.0,0.0,1.6107,1.6612,1.4381,1.5878,0.0,0.0,0.0,2.0137,2.1327,2.263,2.3333,2.3393,2.3338,2.2982,2.231,2.231,2.231,2.2321,2.2573,2.2721,2.2746,2.3069,2.3414,2.3725,2.4124,2.4407,2.4666,2.5667,2.6569,2.7424,2.8192,2.8879,2.9456,1.3614,1.2841,1.2287,0.0,1.2248,1.2369,0.0,0.0,0.0,0.0,1.6602,1.7199,1.6406,1.7133,1.7022,1.5345,1.5678,0.0,0.0,0.0,0.0,2.0398,2.0935,2.082,2.0042,2.0387,0.0,1.9357,0.0,0.0,1.5806,0.0,0.0,0.0,0.0,0.0,1.2296,1.4711,1.5969,1.6365,1.6502,1.6735,1.7076,0.0,1.8,1.8577,1.9222,1.9466,1.961,2.0462,2.0719,2.0719,2.0652,2.0369,1.9913,1.9214,1.8603,1.7877,1.6353,1.586,1.56,1.5065,1.4943,1.5039,0.0,0.0,0.0,0.0,0.0,0.0,0.0,0.0,0.0,0.0,0.0,0.0,0.0,0.0,0.0,1.485,0.0,0.0,1.4411,1.4939,1.5061,1.4465,1.4865,1.5382,1.5923,0.0,0.0,2.0904,2.1429,2.224,2.3376,2.2608,2.2246,2.231,2.231,2.2398,2.2599,2.2686,2.2848,2.3093,2.3414,2.361,2.3732,2.4073,2.4687,2.548,2.632,2.7662,2.9075,2.9289,2.9476,2.9595,1.3545,0.0,0.0,1.2228,0.0,0.0,1.3241,1.518,0.0,1.7138,1.7676,0.0,1.8029,1.8369,1.8021,1.6537,1.5962,0.0,1.7321,0.0,0.0,2.1012,2.1649,2.1554,2.0746,2.1804,0.0,2.1058,0.0,0.0,1.7488,0.0,0.0,0.0,0.0,1.2226,0.0,1.4708,1.6526,1.778,1.7691,1.7996,0.0,1.8745,1.9505,2.0491,2.1174,2.1011,2.0644,2.1338,2.1554,2.1524,2.1323,2.1038,2.0701,2.0066,1.9667,1.9068,1.7451,1.7005,1.6811,1.6102,1.6013,1.6169,1.6271,1.6535,1.6617,0.0,1.5899,1.5588,0.0,0.0,0.0,0.0,0.0,0.0,0.0,0.0,0.0,0.0,1.5536,1.558,1.4746,1.4668,1.4666,1.4666,1.4666,1.488,1.5379,0.0,1.8537,1.9499,2.0707,2.1494,2.1861,2.1278,2.1153,2.1516,2.1668,2.2071,2.2721,2.2996,2.3236,2.3455,2.3774,2.3917,2.3974,2.4498,2.5171,2.5965,2.7231,2.8593,2.9829,2.9829,2.982,2.981,0.0,0.0,0.0,0.0,0.0,0.0,0.0,1.6063,0.0,1.9829,0.0,1.8376,2.0172,1.9354,1.8699,1.8746,0.0,1.6294,1.9881,1.6591,1.6677,2.155,2.1555,2.1356,2.1204,2.2443,2.294,0.0,0.0,0.0,0.0,0.0,0.0,0.0,0.0,0.0,0.0,1.4593,1.6791,1.8658,1.8826,1.9395,2.0134,2.0154,2.0859,2.1934,2.2864,2.2447,2.1557,2.2194,2.2415,2.2343,2.1878,2.1744,2.1549,2.0653,2.0374,2.0058,1.8553,1.811,1.7893,1.6939,1.71,1.7356,1.6818,1.7491,1.7894,1.6824,1.687,1.6596,0.0,0.0,0.0,0.0,0.0,0.0,0.0,0.0,0.0,0.0,0.0,0.0,1.5106,1.4912,1.4894,1.4904,1.4904,1.4953,1.5067,0.0,1.8115,1.8067,2.0067,2.0831,2.0132,1.999,2.0205,2.0738,2.0929,2.163,2.2797,2.3414,2.3714,2.3795,2.4074,2.419,2.4263,2.5072,2.5782,2.6514,2.8265,2.9384,2.9999,2.9999,2.9984,2.9954,0.0,0.0,0.0,0.0,0.0,1.4107,1.6027,1.7633,1.8369,1.7706,1.8608,1.8821,1.7571,1.8476,1.8679,1.7467,1.7012,0.0,0.0,0.0,0.0,2.0498,2.1884,2.2518,2.2323,2.4144,2.4966,0.0,0.0,0.0,0.0,0.0,0.0,0.0,0.0,0.0,1.4685,1.5442,0.0,1.8502,1.9975,2.068,2.0967,2.2139,2.2734,2.2923,2.3112,2.3047,2.2887,2.2986,2.3038,2.2989,2.2617,2.2512,2.2361,2.1592,2.1336,2.1117,2.0091,1.9786,1.9632,1.9016,1.8958,1.8914,1.8498,1.8513,1.8387,1.7381,1.6828,1.6431,1.6174,0.0,0.0,0.0,0.0,0.0,0.0,0.0,0.0,0.0,0.0,1.6866,1.5373,1.5025,1.4896,0.0,0.0,1.5212,0.0,0.0,1.6658,0.0,1.8854,0.0,0.0,0.0,2.0709,2.198,2.1326,2.1736,2.3117,2.3522,2.3837,2.4132,2.417,2.419,2.4263,2.5072,2.6451,2.8177,2.9349,2.9865,2.9999,2.9999,2.9893,2.9782,0.0,0.0,0.0,0.0,0.0,0.0,0.0,1.8011,1.8473,1.8263,1.9099,1.939,1.86,1.8977,1.9052,1.8395,1.7707,1.7708,1.8627,1.8134,1.8527,2.0125,2.1921,2.2461,2.1475,2.4177,2.5084,2.4069,0.0,0.0,0.0,0.0,0.0,0.0,0.0,1.4597,0.0,0.0,0.0,1.9578,2.1209,2.1878,2.2007,2.3057,2.3512,2.3645,2.3808,2.3947,2.3949,2.3401,2.3189,2.3165,2.3021,2.2972,2.2873,2.2334,2.2186,2.2,2.1163,2.0943,2.0799,2.034,2.0239,2.0104,1.9637,1.9531,1.9243,1.8271,1.7571,1.7089,1.7029,1.6694,0.0,0.0,0.0,0.0,0.0,0.0,1.7171,0.0,0.0,0.0,0.0,0.0,0.0,0.0,0.0,0.0,0.0,0.0,1.6687,0.0,0.0,0.0,0.0,0.0,0.0,2.1361,2.1294,2.1936,2.323,2.3714,2.4054,2.419,2.419,2.419,2.4301,2.5782,2.7469,2.9181,2.9772,3.0089,3.0196,3.0061,3.0032,3.0052,0.0,1.5452,0.0,0.0,1.6002,0.0,1.7849,1.7892,1.8186,1.9243,1.9615,1.9912,2.0174,1.9802,1.949,1.9316,1.841,1.8085,1.8734,1.8504,1.8792,1.9838,2.1845,2.2391,2.1274,2.4122,2.4927,0.0,0.0,0.0,0.0,0.0,0.0,0.0,0.0,0.0,0.0,0.0,1.9117,2.0862,2.2312,2.2954,2.3041,2.3638,2.3985,2.4209,2.4474,2.467,2.4663,2.3832,2.3538,2.3538,2.3454,2.3406,2.3293,2.2986,2.2838,2.2678,2.2102,2.1931,2.1874,2.1562,2.1411,2.1227,2.0734,2.0539,2.0239,1.9279,1.8587,1.8086,1.7926,1.7726,0.0,0.0,0.0,0.0,0.0,0.0,0.0,0.0,0.0,0.0,1.7557,0.0,0.0,0.0,0.0,0.0,1.5649,0.0,0.0,0.0,0.0,1.8528,1.8717,0.0,1.9465,2.09,2.131,2.2093,2.3212,2.3896,2.419,2.419,2.419,2.432,2.4653,2.6476,2.8126,2.9536,2.9817,3.0095,3.0299,3.0075,3.0109,3.0228,0.0,0.0,0.0,0.0,0.0,0.0,1.8644,1.7628,1.717,1.9061,1.9814,2.0174,2.0192,2.0313,1.9837,1.8453,1.908,1.8393,1.5637,1.8339,1.9792,1.9221,2.1623,2.3328,2.4014,2.5113,2.5542,0.0,0.0,2.1595,0.0,0.0,0.0,0.0,0.0,0.0,0.0,1.7754,1.9404,2.162,2.3035,2.3723,2.393,2.4283,2.454,2.4727,2.476,2.479,2.4771,2.4678,2.4648,2.4598,2.4292,2.4081,2.3853,2.3533,2.3302,2.3141,2.3069,2.3052,2.3028,2.3003,2.278,2.2424,2.2023,2.1711,2.1195,2.0273,1.9612,1.9224,1.9221,1.9197,1.8768,0.0,0.0,0.0,0.0,0.0,1.7166,1.731,0.0,0.0,0.0,1.6072,0.0,0.0,1.5225,0.0,0.0,0.0,0.0,1.6975,0.0,1.7753,1.8793,1.886,1.9992,2.2129,2.1703,2.2091,2.3212,2.3896,2.419,2.419,2.419,2.4727,2.5633,2.6561,2.7702,2.8941,2.9496,2.9845,3.0028,3.0013,2.9893,2.9815,0.0,0.0,0.0,0.0,0.0,0.0,0.0,1.809,1.8216,1.9017,1.9758,2.0192,2.0192,2.0484,2.0447,1.9926,1.9896,1.943,1.8256,1.9499,2.0169,1.9825,2.1352,2.2652,2.3608,2.4468,2.5107,0.0,0.0,0.0,0.0,0.0,0.0,0.0,0.0,1.9278,1.9783,2.0281,2.1359,2.2816,2.3562,2.4007,2.4206,2.4551,2.4785,2.493,2.493,2.5031,2.516,2.516,2.5,2.479,2.464,2.4529,2.4416,2.4081,2.3915,2.3818,2.3601,2.356,2.356,2.356,2.3365,2.3135,2.2976,2.2743,2.2327,2.151,2.1005,2.0783,2.0971,2.1228,2.0948,1.9639,0.0,0.0,0.0,0.0,0.0,2.0121,0.0,1.8939,0.0,0.0,0.0,0.0,0.0,0.0,0.0,0.0,0.0,1.8689,0.0,1.9237,2.1533,2.0415,2.0685,2.231,2.2447,2.2764,2.3212,2.3896,2.419,2.419,2.419,2.5041,2.6469,2.6943,2.8077,2.9556,2.9947,3.0169,3.0241,3.0241,3.0182,3.0142,1.8636,0.0,1.6708,0.0,1.7587,1.777,1.7383,1.8324,1.9012,1.8915,2.0016,2.0689,2.0403,2.0893,2.0977,2.038,2.0134,1.9665,1.8847,1.9745,2.0188,1.9999,2.1103,0.0,2.3457,2.3838,2.4508,2.5493,2.2612,0.0,0.0,0.0,0.0,0.0,2.0612,2.129,2.1918,2.1899,2.2594,2.3762,2.41,2.4344,2.4531,2.4799,2.4981,2.5107,2.5126,2.5269,2.5438,2.5434,2.5245,2.5015,2.5013,2.4974,2.4872,2.4634,2.4494,2.4401,2.4163,2.4077,2.4097,2.4097,2.3915,2.3742,2.3742,2.3509,2.3136,2.2539,2.2235,2.2141,2.2398,2.2737,2.2615,2.1371,0.0,0.0,0.0,1.9862,0.0,2.1236,1.9725,1.9336,2.1198,1.8572,0.0,0.0,0.0,0.0,0.0,0.0,0.0,0.0,0.0,0.0,2.2014,2.0689,2.0771,2.231,2.2908,2.3189,2.3212,2.3896,2.4228,2.4284,2.4284,2.5058,2.6376,2.6755,2.7732,2.9052,2.9698,2.9978,3.0083,3.0333,3.0283,3.011,1.9817,1.9659,1.9414,1.8709,1.8585,1.816,1.6906,1.8133,1.9044,1.8656,2.0744,2.19,2.09,2.1671,2.132,1.8942,1.9504,1.8655,1.547,1.8432,1.996,0.0,0.0,2.2599,2.4355,2.3558,2.3902,2.5493,0.0,0.0,2.2262,0.0,2.1606,2.0526,2.1335,2.2058,2.2626,2.1778,2.2506,2.4323,2.4659,2.4864,2.4998,2.5082,2.5229,2.5399,2.5466,2.5505,2.5505,2.5498,2.5508,2.5482,2.5483,2.536,2.5178,2.5178,2.4992,2.4784,2.4784,2.478,2.479,2.479,2.4526,2.4288,2.4288,2.3878,2.3426,2.3241,2.3189,2.3189,2.3189,2.3459,2.3232,2.1828,0.0,0.0,0.0,1.9898,0.0,1.9375,1.792,1.76,1.926,1.7899,0.0,0.0,0.0,0.0,0.0,0.0,0.0,1.693,1.578,0.0,1.8837,1.8819,1.9976,2.231,2.2908,2.3189,2.3212,2.3896,2.4303,2.4495,2.4495,2.4697,2.5063,2.5735,2.6255,2.6792,2.8249,2.8989,2.9325,3.0179,3.0002,2.9433,1.6063,1.752,1.8548,1.7257,1.8126,1.8883,1.8467,1.9596,2.0451,2.0321,2.2078,2.2776,2.1301,2.1912,2.1882,0.0,1.9193,1.8493,0.0,1.8623,1.9022,1.9981,1.9411,1.9614,2.0762,2.0526,2.1165,2.2771,0.0,0.0,0.0,2.2501,2.2661,2.2839,2.3127,2.3357,2.3491,2.3086,2.362,2.4788,2.4934,2.5101,2.529,2.5346,2.5416,2.5473,2.5499,2.553,2.5572,2.5578,2.5596,2.5639,2.5634,2.5538,2.5396,2.5396,2.533,2.5271,2.5273,2.5286,2.5283,2.5283,2.5065,2.4846,2.4846,2.4422,2.3989,2.3794,2.3548,2.3436,2.3526,2.3744,2.3433,2.197,2.3054,0.0,2.1762,0.0,2.1239,2.0974,1.9529,1.9174,2.0804,1.9777,0.0,0.0,0.0,0.0,0.0,0.0,0.0,0.0,1.9363,0.0,2.2247,2.0743,2.0849,2.259,2.2996,2.3512,2.4099,2.4302,2.4512,2.47,2.4701,2.5179,2.5977,2.6228,2.6854,2.7717,2.8741,2.9183,2.9297,2.9537,2.9448,2.9195,1.6187,1.7537,1.868,1.8082,1.899,1.9748,1.9555,2.0753,2.1563,2.1328,2.2819,2.3523,2.2479,2.2814,0.0,2.0986,1.9511,1.9143,2.0235,1.9336,1.9273,2.0399,1.9413,1.9253,2.0094,1.9774,0.0,2.2027,2.2259,2.268,2.3316,2.3499,2.3684,2.3902,2.3689,2.3747,2.398,2.3562,2.4079,2.5187,2.5229,2.5138,2.4985,2.538,2.5327,2.5105,2.5446,2.5604,2.5648,2.5648,2.5673,2.5707,2.5707,2.5645,2.5587,2.5587,2.5567,2.5547,2.5536,2.5522,2.5495,2.547,2.5337,2.5195,2.509,2.4797,2.4501,2.4348,2.4136,2.4008,2.41,2.4228,2.4027,2.3139,2.414,2.4673,2.3579,0.0,2.2021,0.0,0.0,0.0,0.0,2.136,2.0808,0.0,0.0,0.0,0.0,0.0,0.0,2.1063,2.0471,2.1054,2.299,2.1581,2.155,2.288,2.3315,2.389,2.4607,2.4607,2.4734,2.4898,2.4922,2.5348,2.6062,2.6107,2.6505,2.7175,2.7997,2.8521,2.8845,2.9105,2.9019,2.8769,1.9011,1.9213,1.9641,0.0,2.0788,0.0,2.0342,2.1659,2.2486,2.1866,2.317,2.4168,2.411,2.411,2.3129,2.0696,0.0,0.0,0.0,2.0357,2.04,2.0595,2.0536,2.0826,2.1509,2.072,2.1155,2.2896,2.3579,2.4228,2.4851,2.4965,2.4581,2.3722,2.3159,2.3356,2.4068,2.3313,2.3972,2.5495,2.5438,2.4973,2.4383,2.5139,2.5004,2.4508,2.5312,2.5644,2.5699,2.5691,2.5698,2.5703,2.5703,2.5703,2.5703,2.5703,2.5664,2.5604,2.5609,2.5561,2.5508,2.5434,2.5415,2.5345,2.5072,2.5022,2.4974,2.4842,2.4799,2.4818,2.4804,2.4804,2.4855,2.4993,2.5069,2.5111,2.5072,2.3354,2.2109,0.0,0.0,0.0,2.2343,2.2604,2.25,0.0,0.0,0.0,0.0,0.0,1.945,1.9798,1.9799,2.0402,2.1671,2.1674,2.2191,2.3287,2.3812,2.4314,2.4799,2.4818,2.4926,2.512,2.5139,2.5265,2.5507,2.55,2.5469,2.5488,2.6366,2.7243,2.8099,2.8767,2.8632,2.8193,0.0,0.0,1.9979,1.924,2.068,2.1954,2.201,2.2996,2.3688,2.3525,2.4399,2.4774,2.4168,2.411,2.361,2.2387,2.0508,1.9947,2.1286,2.022,2.0152,2.1509,2.0207,1.9227,1.8756,1.9141,2.0482,2.2821,2.4245,2.4399,2.3343,2.4629,2.4149,2.2247,2.2751,2.3118,2.3353,2.3169,2.4007,2.5447,2.4833,2.4868,2.515,2.4094,2.4391,2.5312,2.4862,2.5137,2.5703,2.5709,2.5696,2.5703,2.5703,2.5703,2.5703,2.5703,2.5684,2.5683,2.568,2.5659,2.564,2.5635,2.5542,2.5428,2.5283,2.5224,2.5182,2.4986,2.4949,2.493,2.4832,2.4931,2.5031,2.507,2.526,2.4811,2.3105,2.2427,2.1448,0.0,2.0611,2.1615,2.2154,2.3815,2.4093,0.0,0.0,0.0,0.0,2.199,2.2422,2.2921,2.2837,2.3061,2.3619,2.3378,2.3511,2.4045,2.4414,2.4733,2.4949,2.5025,2.5139,2.5329,2.5444,2.5485,2.5506,2.557,2.5551,2.5563,2.6437,2.7303,2.8012,2.7486,2.7602,2.7864,1.756,1.9399,2.1039,2.0863,2.1951,2.307,2.3722,2.3986,2.4225,2.4601,2.4716,2.4736,2.4659,2.4639,2.4341,2.3561,2.1871,2.1255,2.2273,2.1531,2.1308,2.1865,2.1274,2.0319,1.9014,2.0164,2.1634,2.3398,2.3908,2.4082,2.3966,2.4861,2.4389,2.2815,2.3321,2.3592,2.3652,2.3672,2.4429,2.5556,2.5122,2.4982,2.5007,2.4488,2.4629,2.5098,2.5019,2.5293,2.5703,2.5703,2.5703,2.5703,2.5703,2.5703,2.5703,2.5703,2.5703,2.5703,2.5703,2.5703,2.5697,2.5622,2.553,2.5428,2.5322,2.5303,2.5264,2.5163,2.5141,2.5118,2.5075,2.5168,2.5248,2.5274,2.4558,2.3492,2.2076,2.1116,2.0409,2.005,2.1284,2.2562,2.3634,2.4873,2.5035,2.3663,2.3189,0.0,2.3209,2.2886,2.3203,2.4334,2.4301,2.4346,2.4542,2.4346,2.4422,2.4711,2.4892,2.5056,2.5217,2.5271,2.5331,2.5449,2.5526,2.5523,2.55,2.5538,2.5511,2.5483,2.588,2.6542,2.7194,2.6599,2.667,2.6956,2.0698,2.1323,2.212,2.3145,2.3326,2.3676,2.4724,2.4322,2.4149,2.4832,2.4332,2.4159,2.4851,2.5043,2.487,2.4274,2.3529,2.3157,2.33,2.3306,2.2927,2.213,2.2757,2.2249,2.0434,2.203,2.3284,2.411,2.3485,2.3774,2.4918,2.5168,2.4812,2.3938,2.4115,2.4245,2.4297,2.4375,2.4902,2.5684,2.5566,2.5147,2.4658,2.5127,2.5017,2.4687,2.5293,2.5586,2.5703,2.5703,2.5703,2.5703,2.5703,2.5703,2.5703,2.5703,2.5703,2.5703,2.5703,2.5703,2.5662,2.552,2.5464,2.539,2.5322,2.5303,2.5303,2.5303,2.5322,2.5341,2.5409,2.5428,2.5324,2.4985,2.3354,2.1902,2.1207,0.0,1.9819,2.1564,2.2339,2.3486,2.5488,2.5644,2.5527,2.5291,2.3686,2.3339,2.4841,2.3448,2.3298,2.4853,2.4908,2.4912,2.4905,2.4912,2.5012,2.5247,2.5241,2.5316,2.5479,2.5479,2.5473,2.5488,2.5458,2.5453,2.5441,2.5418,2.5327,2.5217,2.5051,2.5441,2.6081,2.5774,2.575,2.586,2.16,2.1771,2.1953,2.2405,2.2482,2.2622,2.2961,2.3007,2.3043,2.3178,2.3081,2.3043,2.3178,2.3851,2.4293,2.4284,2.4101,2.4057,2.4192,2.4199,2.3808,2.2959,2.3082,2.2312,2.0438,2.1977,2.3235,2.411,2.4659,2.4332,2.3216,2.4639,2.4505,2.3131,2.3879,2.4236,2.4297,2.4375,2.4902,2.5644,2.4902,2.496,2.5341,2.4,2.4331,2.543,2.4824,2.5078,2.5703,2.5703,2.5703,2.5703,2.5703,2.5703,2.5703,2.5703,2.5703,2.5703,2.5703,2.5703,2.5662,2.552,2.5483,2.5447,2.5322,2.5303,2.5322,2.537,2.539,2.5409,2.5466,2.5524,2.4852,2.2648,2.2043,2.1145,1.9094,0.0,2.1459,2.2057,2.3868,2.5191,2.5507,2.5625,2.5542,2.5231,2.5078,2.5019,2.507,2.4896,2.4961,2.5308,2.5362,2.5395,2.5388,2.5395,2.5415,2.5447,2.5398,2.5395,2.5419,2.5419,2.5426,2.5409,2.5299,2.5213,2.5149,2.4984,2.4742,2.447,2.4441,2.4791,2.519,2.4432,2.4617,2.5116,2.1376,2.176,2.2106,2.235,2.2405,2.2483,2.2681,2.2363,2.2274,2.2735,2.2389,2.2293,2.2803,2.3207,2.3515,2.364,2.3634,2.3625,2.3704,2.3703,2.3516,2.3125,2.3123,2.2917,2.2401,2.2207,2.2754,2.411,2.3524,2.3101,2.2812,2.3581,2.3553,2.288,2.3304,2.354,2.3625,2.4178,2.4629,2.5019,2.5078,2.5332,2.5605,2.4812,2.5,2.5644,2.5234,2.5059,2.5,2.5,2.4687,2.4316,2.4336,2.4648,2.5,2.5,2.5332,2.5703,2.5703,2.5703,2.5683,2.5572,2.555,2.5524,2.539,2.539,2.5409,2.5409,2.5432,2.5461,2.5534,2.5543,2.5166,2.3987,2.2756,0.0,2.0309,2.1162,2.1923,2.1933,2.404,2.5498,2.551,2.5451,2.5376,2.521,2.5199,2.5122,2.5008,2.5057,2.5105,2.5124,2.5347,2.5465,2.5492,2.5469,2.5461,2.5507,2.5356,2.5298,2.5279,2.5034,2.4898,2.4847,2.4594,2.4466,2.4393,2.4063,2.3841,2.3675,2.3304,2.3311,2.3486,2.2976,2.3035,2.3324,2.1362,2.17,2.2035,2.2242,2.2098,2.2032,2.2163,2.1643,2.1485,2.2139,2.1658,2.1515,2.2237,2.2491,2.2673,2.2786,2.2789,2.2873,2.3096,2.2707,2.2572,2.2797,2.2574,2.2785,2.3494,2.2197,2.2254,2.3802,2.2466,2.2139,2.2793,2.2793,2.2793,2.2793,2.288,2.2925,2.3032,2.3778,2.4102,2.418,2.5059,2.5273,2.5137,2.5547,2.5566,2.5429,2.5613,2.5129,2.4433,2.4606,2.409,2.3417,2.3664,2.4174,2.4683,2.4662,2.5132,2.566,2.5683,2.5698,2.5627,2.5366,2.5434,2.5466,2.5178,2.5287,2.543,2.541,2.5443,2.5492,2.555,2.5525,2.5327,2.4754,0.0,2.1906,2.1715,2.1845,2.2135,2.2554,2.427,2.5421,2.5415,2.5291,2.5148,2.5022,2.487,2.4752,2.4666,2.4657,2.4651,2.4651,2.5052,2.5305,2.5362,2.5254,2.5218,2.5255,2.5015,2.4847,2.4735,2.4377,2.4094,2.3941,2.3642,2.3476,2.3417,2.303,2.2792,2.2576,2.2057,2.1739,2.153,2.1367,2.1328,2.1328,2.2399,2.1881,2.1343,2.1541,2.0916,2.0365,2.0395,2.0432,2.0504,2.0562,2.0523,2.0504,2.0581,2.1299,2.1817,2.1899,2.1835,2.2164,2.3049,2.1536,2.0983,2.1866,2.1012,2.0916,2.1776,2.1592,2.1966,2.2889,2.2774,2.2735,2.2793,2.2793,2.2793,2.2793,2.2868,2.2896,2.2917,2.312,2.3203,2.3262,2.4141,2.4004,2.3477,2.5098,2.5195,2.4587,2.533,2.5084,2.4491,2.5184,2.4878,2.4336,2.5093,2.5405,2.5503,2.5444,2.5464,2.5547,2.5661,2.5643,2.541,2.4598,2.4904,2.5203,2.4373,2.4781,2.533,2.5388,2.5409,2.5429,2.5506,2.5496,2.471,2.2289,0.0,0.0,2.1614,2.163,2.2532,2.4935,2.538,2.5399,2.5144,2.5162,2.4986,2.4487,2.445,2.4301,2.3988,2.3909,2.3879,2.3879,2.4576,2.494,2.4945,2.469,2.4577,2.4579,2.418,2.3804,2.3436,2.3332,2.3063,2.2615,2.2408,2.232,2.2302,2.208,2.1545,2.0873,2.0827,2.0317,1.9606,1.9587,1.9602,1.9602,2.1201,2.0527,1.992,1.9998,1.9249,1.8833,1.9372,1.9522,1.9774,2.026,2.0344,2.0344,2.0344,2.0623,2.0852,2.0936,2.0912,2.1044,2.1398,2.0732,2.0527,2.0905,2.1043,2.1257,2.1583,2.1445,2.1588,2.1985,2.1367,2.1062,2.1062,2.1062,2.1062,2.1062,2.1081,2.1165,2.1328,2.1931,2.2516,2.3104,2.3985,2.4433,2.467,2.5314,2.5372,2.5109,2.5426,2.4665,2.3645,2.4428,2.3804,2.2844,2.3681,2.3968,2.3968,2.387,2.3654,2.345,2.3513,2.4408,2.513,2.4176,2.4514,2.4868,2.3997,2.4438,2.4907,2.4379,2.4582,2.4853,2.4877,2.4666,2.4257,2.3469,0.0,2.3383,2.3563,2.3577,2.395,2.495,2.5069,2.5025,2.4912,2.4645,2.4374,2.4173,2.3837,2.3616,2.3476,2.3193,2.3064,2.3064,2.3056,2.3289,2.3824,2.3744,2.3544,2.3268,2.2982,2.2779,2.2606,2.1949,2.1547,2.1361,2.0744,2.0448,2.0432,2.0104,1.981,1.9491,1.9184,1.8883,1.8589,1.8589,1.8589,1.8589,1.9614,1.9139,1.8728,1.8722,1.8193,1.7959,1.8561,1.8689,1.9023,1.9856,1.994,2.0046,2.0302,2.0341,2.0357,2.04,2.0371,2.0365,2.0377,2.0331,2.0331,2.0369,2.09,2.1171,2.1098,2.0967,2.0929,2.0976,2.0279,1.9943,1.9943,1.9943,1.9943,1.9943,1.9943,2.0012,2.0192,2.0792,2.1586,2.2487,2.3373,2.4049,2.4587,2.5116,2.5155,2.4973,2.5208,2.4399,2.3341,2.4124,2.3458,2.2391,2.2977,2.2934,2.2672,2.2595,2.2234,2.1778,2.1473,2.2495,2.3474,2.2688,2.3191,2.3601,2.2623,2.3164,2.3695,2.3111,2.3488,2.3934,2.3934,2.3906,2.3878,2.386,2.4064,2.4204,2.4157,2.4348,2.4497,2.4497,2.4487,2.4463,2.4398,2.4063,2.3775,2.359,2.3247,2.293,2.2712,2.2443,2.2324,2.2406,2.1915,2.195,2.264,2.2669,2.2495,2.2167,2.177,2.1503,2.1338,2.0495,2.0033,1.9863,1.9241,1.8994,1.8957,1.8702,1.8464,1.8271,1.7786,1.7572,1.7585,1.7395,1.7436,1.7585,1.79,1.788,1.7897,1.7885,1.7881,1.7881,1.7881,1.7889,1.8204,1.9083,1.9201,1.9511,2.0304,2.0408,2.0408,2.0408,2.0323,2.0304,2.0304,2.0304,2.0304,2.0304,2.0304,2.0205,1.9993,2.0012,1.9924,1.979,1.9809,1.9809,1.9809,1.9809,1.9809,1.9809,1.9809,1.979,1.979,1.9852,2.0367,2.1183,2.2093,2.2449,2.2562,2.4233,2.4365,2.3761,2.4511,2.4282,2.379,2.4511,2.4238,2.3556,2.3484,2.2783,2.1984,2.2049,2.1598,2.0862,1.9863,1.9911,2.0192,1.9957,2.0753,2.1265,2.0061,2.0724,2.1588,2.157,2.2164,2.2682,2.2682,2.3272,2.3529,2.2775,2.329,2.3511,2.2793,2.3327,2.3785,2.3785,2.3785,2.3707,2.3497,2.3494,2.3271,2.2729,2.2695,2.2378,2.1642,2.1598,2.1742,2.1997,2.1342,2.1124,2.1382,2.1466,2.1476,2.1492,2.0606,2.0006,1.9581,1.9042,1.8517,1.8106,1.8066,1.8066,1.8052,1.8052,1.7747,1.7216,1.6604,1.6416,1.6423,1.582,1.5952,1.638,1.8014,1.7327,1.6856,1.6847,1.6297,1.6079,1.6685,1.7374,1.8133,1.8943,1.9591,2.0003,2.0106,2.0125,2.0088,1.999,1.996,1.996,1.996,1.996,1.996,1.996,2.0031,2.0069,1.9993,1.9832,1.975,1.979,1.9707,1.9656,1.9656,1.9656,1.9572,1.9374,1.9374,1.9337,1.9226,1.9015,1.9675,2.0853,2.0441,2.0862,2.1768,2.179,2.1661,2.1443,2.1386,2.1043,2.0697,2.1188,2.1025,2.0572,2.0569,2.0246,1.9791,1.925,1.8506,1.7809,1.7502,1.7174,1.7291,1.8751,1.9809,2.0236,1.9299,1.9804,2.0332,1.9745,2.0267,2.0743,2.0506,2.0636,2.0715,2.0494,2.0649,2.0963,2.1447,2.1692,2.2,2.2407,2.2751,2.281,2.2427,2.2444,2.2452,2.2289,2.2057,2.1832,2.1612,2.1471,2.1434,2.1499,2.1054,2.0843,2.0901,2.0774,2.0578,2.028,2.0034,1.9866,1.971,1.8658,1.7904,1.7398,1.6516,1.5963,1.5716,1.5716,1.5608,1.5443,1.5264,1.5231,1.5209,1.5017,1.5062,1.5197,1.6901,1.6283,1.5834,1.5814,1.5334,1.5152,1.5693,1.6295,1.6989,1.7826,1.8674,1.9228,1.9282,1.9563,1.9684,1.9507,1.9226,1.9052,1.9052,1.9052,1.917,1.9475,1.9393,1.9489,1.9836,1.958,1.9462,1.9485,1.9301,1.9143,1.9008,1.9008,1.8837,1.8521,1.8556,1.8521,1.8414,1.8032,1.8583,1.9672,1.8884,1.9302,2.0327,1.9728,1.9504,1.9441,1.8992,1.8535,1.8215,1.8694,1.8447,1.7957,1.7808,1.7373,1.6845,1.6357,1.5675,1.5086,1.5086,1.4672,1.4587,1.5937,1.7235,1.8074,1.7436,1.7776,1.8126,1.784,1.8392,1.892,1.8874,1.9099,1.9214,1.8897,1.9104,1.9514,2.009,2.0417,2.0838,2.1466,2.1786,2.1859,2.1549,2.1632,2.1665,2.1665,2.1475,2.1275,2.1102,2.0774,2.088,2.1423,2.0506,2.0316,2.1094,2.0472,2.006,1.9822,1.9594,1.9351,1.9019,1.7812,1.701,1.6382,1.5485,1.492,1.4698,1.4698,1.4698,1.4663,1.4422,1.4468,1.4652,1.4422,1.4525,1.4652,1.5133,1.5049,1.4962,1.4885,1.4886,1.4902,1.495,1.503,1.5381,1.6181,1.7032,1.768,1.8006,1.8737,1.9105,1.8809,1.8133,1.7723,1.7697,1.7691,1.8009,1.8757,1.836,1.8503,1.9335,1.9149,1.901,1.886,1.8553,1.8216,1.7924,1.7817,1.762,1.73,1.7334,1.7401,1.7384,1.6919,1.7208,1.7863,1.7368,1.7642,1.829,1.7732,1.754,1.7468,1.6906,1.6413,1.6083,1.6488,1.6083,1.5369,1.498,1.4219,1.3478,1.3462,1.3092,1.2729,1.272,1.2491,1.2278,1.2323,1.3734,1.5067,1.4859,1.5096,1.5454,1.5802,1.6533,1.7183,1.7523,1.8235,1.8535,1.7812,1.8271,1.8719,1.8776,1.9379,2.0081,2.0814,2.0926,2.0926,2.091,2.0862,2.0846,2.0813,2.0813,2.0601,2.0196,1.9773,2.0147,2.1441,1.9822,1.9727,2.1444,2.0218,1.9612,1.9712,1.9206,1.8583,1.7855,1.6845,1.5994,1.5266,1.4835,1.4603,1.4525,1.4525,1.4525,1.4468,1.392,1.4061,1.4468,1.392,1.4061,1.4479,1.5181,1.4976,1.4885,1.4766,1.4747,1.4756,1.4766,1.5394,1.5929,1.6119,1.7259,1.7752,1.695,1.7397,1.7573,1.716,1.6725,1.6381,1.6116,1.6055,1.635,1.7086,1.6886,1.698,1.7463,1.779,1.7938,1.791,1.7054,1.6589,1.6509,1.5733,1.5457,1.5631,1.5647,1.576,1.5941,1.5557,1.5802,1.6337,1.5094,1.4984,1.5445,1.4449,1.4084,1.3973,1.3128,1.2942,1.2981,1.2219,1.1454,1.0826,1.0722,1.0871,1.1002,1.0804,1.0979,1.1271,1.1449,1.1354,1.1325,1.1812,1.1986,1.2287,1.3174,1.373,1.3984,1.3625,1.4495,1.53,1.5114,1.6074,1.6756,1.6325,1.6388,1.6846,1.7804,1.811,1.8642,1.9843,2.0261,2.033,2.0015,1.9919,1.9733,1.9309,1.9273,1.9236,1.9126,1.918,1.9369,1.9652,1.9271,1.9212,1.9487,1.841,1.8301,1.9168,1.89,1.845,1.7891,1.6913,1.5999,1.518,1.4543,1.3872,1.3296,1.3296,1.3296,1.3296,1.3152,1.32,1.3296,1.3152,1.32,1.3296,1.5082,1.4921,1.485,1.4635,1.4603,1.4624,1.4697,1.5044,1.5297,1.5297,1.6073,1.6345,1.5577,1.5836,1.5736,1.4864,1.4621,1.4567,1.4654,1.4599,1.5043,1.6024,1.5591,1.5337,1.5329,1.5361,1.5655,1.6119,1.5215,1.4609,1.4292,1.3748,1.3615,1.3825,1.3825,1.3997,1.4284,1.3923,1.396,1.4212,1.3242,1.3039,1.3236,1.2366,1.1892,1.1581,1.0856,1.0391,0.9933,0.8721,0.8269,0.8168,0.791,0.8026,0.8321,0.8365,0.863,0.902,0.9343,0.9385,0.9418,0.9728,0.9705,1.0015,1.166,1.2215,1.2446,1.2614,1.3344,1.4084,1.4602,1.5256,1.583,1.6174,1.6039,1.6358,1.7617,1.7571,1.7777,1.8815,1.9111,1.9185,1.8968,1.8631,1.8359,1.8074,1.8034,1.8034,1.8034,1.8167,1.8495,1.9072,1.8244,1.8033,1.8589,1.7435,1.7046,1.7326,1.7537,1.7272,1.6575,1.5891,1.5133,1.4358,1.3767,1.3281,1.2881,1.2881,1.2881,1.2881,1.2881,1.2881,1.2881,1.2881,1.2881,1.2881,1.4926,1.4869,1.4785,1.4545,1.4488,1.4533,1.4595,1.4482,1.4354,1.4319,1.4602,1.4633,1.4191,1.4227,1.3791,1.2584,1.2537,1.2749,1.3232,1.3264,1.3782,1.4993,1.4309,1.3632,1.3177,1.2622,1.2843,1.392,1.3217,1.2511,1.1821,1.1644,1.1661,1.1858,1.1805,1.2066,1.2468,1.2236,1.2117,1.2129,1.1788,1.1616,1.1468,1.0933,1.0377,0.9771,0.9275,0.8253,0.7031,0.5953,0.5884,0.6163,0.5738,0.5645,0.5782,0.6137,0.645,0.6773,0.7257,0.7438,0.7523,0.7602,0.7747,0.8304,1.0114,1.063,1.0991,1.18,1.2386,1.3178,1.4505,1.4916,1.5356,1.643,1.6261,1.6431,1.7605,1.7381,1.7353,1.8037,1.8106,1.8066,1.7987,1.7504,1.7151,1.6931,1.7027,1.6985,1.6793,1.6928,1.7426,1.834,1.6876,1.6561,1.7515,1.6483,1.5675,1.5147,1.5587,1.5524,1.5058,1.4662,1.4154,1.3486,1.3135,1.2949,1.2881,1.2881,1.2881,1.2881,1.2881,1.2881,1.2881,1.2881,1.2881,1.2881,1.4766,1.4727,1.4677,1.4522,1.4488,1.4453,1.4289,1.4252,1.4157,1.3993,1.4273,1.4124,1.3202,1.2824,1.2231,1.124,1.1426,1.1705,1.1943,1.1892,1.2272,1.3124,1.2513,1.1919,1.1465,1.019,1.0205,1.1542,1.1291,1.0713,0.9859,0.8984,0.9005,0.9722,0.9464,0.9782,1.0507,1.0924,1.1084,1.1095,1.1111,1.0847,1.0369,0.9894,0.9175,0.8383,0.7591,0.6259,0.4823,0.4514,0.4067,0.359,0.3548,0.3799,0.4131,0.4326,0.501,0.5823,0.6468,0.6846,0.7185,0.7665,0.7694,0.772,0.8026,0.9008,0.9842,0.9754,1.0819,1.2127,1.3162,1.407,1.5004,1.6005,1.6151,1.6349,1.7098,1.7157,1.7353,1.8037,1.8106,1.7907,1.7463,1.734,1.687,1.5872,1.6299,1.6126,1.5084,1.5531,1.5656,1.5312,1.5063,1.4929,1.4898,1.4387,1.4039,1.3791,1.3481,1.3758,1.4495,1.4242,1.389,1.3506,1.3447,1.3213,1.2881,1.2881,1.2881,1.2881,1.2881,1.2881,1.2881,1.2881,1.2881,1.2881,1.4841,1.466,1.4534,1.4511,1.4399,1.4295,1.4201,1.4092,1.3927,1.3617,1.3479,1.3181,1.2572,1.1911,1.1294,1.0681,1.0584,1.0742,1.1108,1.1102,1.1307,1.1777,1.1248,1.055,0.967,0.8995,0.8509,0.8208,0.8529,0.8383,0.7816,0.7368,0.7484,0.8075,0.7948,0.8225,0.8858,0.9226,0.931,0.9215,0.958,0.9472,0.903,0.8671,0.8134,0.736,0.5938,0.498,0.4289,0.368,0.3403,0.3219,0.3052,0.3137,0.342,0.3956,0.4482,0.5049,0.5834,0.6172,0.6364,0.6795,0.6706,0.6626,0.6951,0.7748,0.8523,0.8925,0.9712,1.0786,1.2338,1.2948,1.3791,1.5376,1.5672,1.5932,1.6596,1.6754,1.6872,1.7162,1.7188,1.7118,1.6879,1.6544,1.6145,1.5632,1.5511,1.5242,1.4744,1.4971,1.4971,1.4698,1.4376,1.4146,1.4073,1.356,1.3242,1.3154,1.2969,1.3115,1.353,1.3049,1.2725,1.2507,1.2144,1.1894,1.1742,1.1742,1.194,1.2295,1.2295,1.2559,1.2881,1.2881,1.2881,1.2881]},{"header":{"parameterUnit":"m.s-1","parameterCategory":1,"la1":30.6,"la2":28.766,"lo1":-90.7593,"lo2":-88.6598,"dy":0.0162,"dx":0.0183,"nx":116,"ny":114,"refTime":"2023-05-01T00:00:00:Z","depth":0,"parameterNumber":3,"parameterNumberName":"V-component_of_WINDS"},"data":[0.0,0.0,0.0,0.0,0.0,0.0,0.0,0.0,0.0,0.0,0.0,0.0,0.0,0.0,0.0,0.0,0.0,0.0,0.0,0.0,0.0,0.0,0.0,0.0,0.0,0.0,0.0,0.0,0.0,0.0,0.0,0.0,0.0,0.0,0.0,0.0,0.0,0.0,0.0,0.0,0.0,0.0,0.0,0.0,0.0,0.0,0.0,0.0,0.0,0.0,0.0,0.0,0.0,0.0,0.0,0.0,0.0,0.0,0.0,0.0,0.0,0.0,0.0,0.0,0.0,0.0,0.0,0.0,0.0,0.0,0.0,0.0,0.0,0.0,0.0,0.0,0.0,0.0,0.0,0.0,0.0,0.0,0.0,0.0,0.0,0.0,0.0,0.0,0.0,0.0,0.0,0.0,0.0,0.0,0.0,0.0,0.0,0.0,0.0,0.0,0.0,0.0,0.0,0.0,0.0,0.0,0.0,0.0,0.0,0.0,0.0,0.0,0.0,0.0,0.0,0.0,0.0,0.0,0.0,0.0,0.0,0.0,0.0,0.0,0.0,0.0,0.0,0.0,0.0,0.0,0.0,0.0,0.0,0.0,0.0,0.0,0.0,0.0,0.0,0.0,0.0,0.0,0.0,0.0,0.0,0.0,0.0,0.0,0.0,0.0,0.0,0.0,0.0,0.0,0.0,0.0,0.0,0.0,0.0,0.0,0.0,0.0,0.0,0.0,0.0,0.0,0.0,0.0,0.0,0.0,0.0,0.0,0.0,0.0,0.0,0.0,0.0,0.0,0.0,0.0,0.0,0.0,0.0,0.0,0.0,0.0,0.0,0.0,0.0,0.0,0.0,0.0,0.0,0.0,0.0,0.0,0.0,0.0,0.0,0.0,0.0,0.0,0.0,0.0,0.0,0.0,0.0,0.0,0.0,0.0,0.0,0.0,0.0,0.0,0.0,0.0,0.0,0.0,0.0,0.0,0.0,0.0,0.0,0.0,0.0,0.0,0.0,0.0,0.0,0.0,0.0,0.0,0.0,0.0,0.0,0.0,0.0,0.0,0.0,0.0,0.0,0.0,0.0,0.0,0.0,0.0,0.0,0.0,0.0,0.0,0.0,0.0,0.0,0.0,0.0,0.0,0.0,0.0,0.0,0.0,0.0,0.0,0.0,0.0,0.0,0.0,0.0,0.0,0.0,0.0,0.0,0.0,0.0,0.0,0.0,0.0,0.0,0.0,0.0,0.0,0.0,0.0,0.0,0.0,0.0,0.0,0.0,0.0,0.0,0.0,0.0,0.0,0.0,0.0,0.0,0.0,0.0,0.0,0.0,0.0,0.0,0.0,0.0,0.0,0.0,0.0,0.0,0.0,0.0,0.0,0.0,0.0,0.0,0.0,0.0,0.0,0.0,0.0,0.0,0.0,0.0,0.0,0.0,0.0,0.0,0.0,0.0,0.0,0.0,0.0,0.0,0.0,0.0,0.0,0.0,0.0,0.0,0.0,0.0,0.0,0.0,0.0,0.0,0.0,0.0,0.0,0.0,0.0,0.0,0.0,0.0,0.0,0.0,0.0,0.0,0.0,0.0,0.0,0.0,0.0,0.0,0.0,0.0,0.0,0.0,0.0,0.0,0.0,0.0,0.0,0.0,0.0,0.0,0.0,0.0,0.0,0.0,0.0,0.0,0.0,0.0,0.0,0.0,0.0,0.0,0.0,0.0,0.0,0.0,0.0,0.0,0.0,0.0,0.0,0.0,0.0,0.0,0.0,0.0,0.0,0.0,0.0,0.0,0.0,0.0,0.0,0.0,0.0,0.0,0.0,0.0,0.0,0.0,0.0,0.0,0.0,0.0,0.0,0.0,0.0,0.0,0.0,0.0,0.0,0.0,0.0,0.0,0.0,0.0,0.0,0.0,0.0,0.0,0.0,0.0,0.0,0.0,0.0,0.0,0.0,0.0,0.0,0.0,0.0,0.0,0.0,0.0,0.0,0.0,0.0,0.0,0.0,0.0,0.0,0.0,0.0,0.0,0.0,0.0,0.0,0.0,0.0,0.0,0.0,0.0,0.0,0.0,0.0,0.0,0.0,0.0,0.0,0.0,0.0,0.0,0.0,0.0,0.0,0.0,0.0,0.0,0.0,0.0,0.0,0.0,0.0,0.0,0.0,0.0,0.0,0.0,0.0,0.0,0.0,0.0,0.0,0.0,0.0,0.0,0.0,0.0,0.0,0.0,0.0,0.0,0.0,0.0,0.0,0.0,0.0,0.0,0.0,0.0,0.0,0.0,0.0,0.0,0.0,0.0,0.0,0.0,0.0,0.0,0.0,0.0,0.0,0.0,0.0,0.0,0.0,0.0,0.0,0.0,0.0,0.0,0.0,0.0,0.0,0.0,0.0,0.0,0.0,0.0,0.0,0.0,0.0,0.0,0.0,0.0,0.0,0.0,0.0,0.0,0.0,0.0,0.0,0.0,0.0,0.0,0.0,0.0,0.0,0.0,0.0,0.0,0.0,0.0,0.0,0.0,0.0,0.0,0.0,0.0,0.0,0.0,0.0,0.0,0.0,0.0,0.0,0.0,0.0,0.0,0.0,0.0,0.0,0.0,0.0,0.0,0.0,0.0,0.0,0.0,0.0,0.0,0.0,0.0,0.0,0.0,0.0,0.0,0.0,0.0,0.0,0.0,0.0,0.0,0.0,0.0,0.0,0.0,0.0,0.0,0.0,0.0,0.0,0.0,0.0,0.0,0.0,0.0,0.0,0.0,0.0,0.0,0.0,0.0,0.0,0.0,0.0,0.0,0.0,0.0,0.0,0.0,0.0,0.0,0.0,0.0,0.0,0.0,0.0,0.0,0.0,0.0,0.0,0.0,0.0,0.0,0.0,0.0,0.0,0.0,0.0,0.0,0.0,0.0,0.0,0.0,0.0,0.0,0.0,0.0,0.0,0.0,0.0,0.0,0.0,0.0,0.0,0.0,0.0,0.0,0.0,0.0,0.0,0.0,0.0,0.0,0.0,0.0,0.0,0.0,0.0,0.0,0.0,0.0,0.0,0.0,0.0,0.0,0.0,0.0,0.0,0.0,0.0,0.0,0.0,0.0,0.0,0.0,0.0,0.0,0.0,0.0,0.0,0.0,0.0,0.0,0.0,0.0,0.0,0.0,0.0,0.0,0.0,0.0,0.0,0.0,0.0,0.0,0.0,0.0,0.0,0.0,0.0,0.0,0.0,0.0,0.0,0.0,0.0,0.0,0.0,0.0,0.0,0.0,0.0,0.0,0.0,0.0,0.0,0.0,0.0,0.0,0.0,0.0,0.0,0.0,0.0,0.0,0.0,0.0,0.0,0.0,0.0,0.0,0.0,0.0,0.0,0.0,0.0,0.0,0.0,0.0,0.0,0.0,0.0,0.0,0.0,0.0,0.0,0.0,0.0,0.0,0.0,0.0,0.0,0.0,0.0,0.0,0.0,0.0,0.0,0.0,0.0,0.0,0.0,0.0,0.0,0.0,0.0,0.0,0.0,0.0,0.0,0.0,0.0,0.0,0.0,0.0,0.0,0.0,0.0,0.0,0.0,0.0,0.0,0.0,0.0,0.0,0.0,0.0,0.0,0.0,0.0,0.0,0.0,0.0,0.0,0.0,0.0,0.0,0.0,0.0,0.0,0.0,0.0,0.0,0.0,0.0,0.0,0.0,0.0,0.0,0.0,0.0,0.0,0.0,0.0,0.0,0.0,0.0,0.0,0.0,0.0,0.0,0.0,0.0,0.0,0.0,0.0,0.0,0.0,0.0,0.0,0.0,0.0,0.0,0.0,0.0,0.0,0.0,0.0,0.0,0.0,0.0,0.0,0.0,0.0,0.0,0.0,0.0,0.0,0.0,0.0,0.0,0.0,0.0,0.0,0.0,0.0,0.0,0.0,0.0,0.0,0.0,0.0,0.0,0.0,0.0,0.0,0.0,0.0,0.0,0.0,0.0,0.0,0.0,0.0,0.0,0.0,0.0,0.0,0.0,0.0,0.0,0.0,0.0,0.0,0.0,0.0,0.0,0.0,0.0,0.0,0.0,0.0,0.0,0.0,0.0,0.0,0.0,0.0,0.0,0.0,0.0,0.0,0.0,0.0,0.0,0.0,0.0,0.0,0.0,0.0,0.0,0.0,0.0,0.0,0.0,0.0,0.0,0.0,0.0,0.0,0.0,0.0,0.0,0.0,0.0,0.0,0.0,0.0,0.0,0.0,0.0,0.0,0.0,0.0,0.0,0.0,0.0,0.0,0.0,0.0,0.0,0.0,0.0,0.0,0.0,0.0,0.0,0.0,0.0,0.0,0.0,0.0,0.0,0.0,0.0,0.0,0.0,0.0,0.0,0.0,0.0,0.0,0.0,0.0,0.0,0.0,0.0,0.0,0.0,0.0,0.0,0.0,0.0,0.0,0.0,0.0,0.0,0.0,0.0,0.0,0.0,0.0,0.0,0.0,0.0,0.0,0.0,0.0,0.0,0.0,0.0,0.0,0.0,0.0,0.0,0.0,0.0,0.0,0.0,0.0,0.0,0.0,0.0,0.0,0.0,0.0,0.0,0.0,0.0,0.0,0.0,0.0,0.0,0.0,0.0,0.0,0.0,0.0,0.0,0.0,0.0,0.0,0.0,0.0,0.0,0.0,0.0,0.0,0.0,0.0,0.0,0.0,0.0,0.0,0.0,0.0,0.0,0.0,0.0,0.0,0.0,0.0,0.0,0.0,0.0,0.0,0.0,0.0,0.0,0.0,0.0,0.0,0.0,0.0,0.0,0.0,0.0,0.0,0.0,0.0,0.0,0.0,0.0,0.0,0.0,0.0,0.0,0.0,0.0,0.0,0.0,0.0,0.0,0.0,0.0,0.0,0.0,0.0,0.0,0.0,0.0,0.0,0.0,0.0,0.0,0.0,0.0,0.0,0.0,0.0,0.0,0.0,0.0,0.0,0.0,0.0,0.0,0.0,0.0,0.0,0.0,0.0,0.0,0.0,0.0,0.0,0.0,0.0,0.0,0.0,0.0,0.0,0.0,0.0,0.0,0.0,0.0,0.0,0.0,0.0,0.0,0.0,0.0,0.0,0.0,0.0,0.0,0.0,0.0,0.0,0.0,0.0,0.0,0.0,0.0,0.0,0.0,0.0,0.0,0.0,0.0,0.0,0.0,0.0,0.0,0.0,0.0,0.0,0.0,0.0,0.0,0.0,0.0,0.0,0.0,0.0,0.0,0.0,0.0,0.0,0.0,0.0,0.0,0.0,0.0,0.0,0.0,0.0,0.0,0.0,0.0,0.0,0.0,0.0,0.0,0.0,0.0,0.0,0.0,0.0,0.0,0.0,0.0,0.0,0.0,0.0,0.0,0.0,0.0,0.0,0.0,0.0,0.0,0.0,0.0,0.0,0.0,0.0,0.0,0.0,0.0,0.0,0.0,0.0,0.0,0.0,0.0,0.0,0.0,0.0,0.0,0.0,0.0,0.0,0.0,0.0,0.0,0.0,0.0,0.0,0.0,0.0,0.0,0.0,0.0,0.0,0.0,0.0,0.0,0.0,0.0,0.0,0.0,0.0,0.0,0.0,0.0,0.0,0.0,0.0,0.0,0.0,0.0,0.0,0.0,0.0,0.0,0.0,0.0,0.0,0.0,0.0,0.0,0.0,0.0,0.0,0.0,0.0,0.0,0.0,0.0,0.0,0.0,0.0,0.0,0.0,0.0,0.0,0.0,0.0,0.0,0.0,0.0,0.0,0.0,0.0,0.0,0.0,0.0,0.0,0.0,0.0,0.0,0.0,0.0,0.0,0.0,0.0,0.0,0.0,0.0,0.0,0.0,0.0,0.0,0.0,0.0,0.0,0.0,0.0,0.0,0.0,0.0,0.0,0.0,0.0,0.0,0.0,0.0,0.0,0.0,0.0,0.0,0.0,0.0,0.0,0.0,0.0,0.0,0.0,0.0,0.0,0.0,0.0,0.0,0.0,0.0,0.0,0.0,0.0,0.0,0.0,0.0,0.0,0.0,0.0,0.0,0.0,0.0,0.0,0.0,0.0,0.0,0.0,0.0,0.0,0.0,0.0,0.0,0.0,0.0,0.0,0.0,0.0,0.0639,0.0,0.0,0.0,0.0,0.0,0.0,0.0,0.0,0.0,0.0,0.0,0.0,0.0,0.0,0.0,0.0,0.0,0.0,0.0,0.0,0.0,0.0,0.0,0.0,0.0,0.0,0.0,0.0,0.0,0.0,0.0,0.0,0.0,0.0,0.0,0.0,0.0,0.0,0.0,0.0,0.0,0.0,0.0,0.0,0.0,0.0,0.0,0.0,0.0,0.0,0.0,0.0,0.0,0.0,0.0,0.0,0.0,0.0,0.0,0.0,0.0,0.0,0.0,0.0,0.0,0.0,0.0,0.0,0.0,0.0,0.0,0.0,0.0,0.0,0.0,0.0,0.0,0.0,0.0,0.0,0.0,0.0,0.0,0.0,0.0,0.0,0.0,0.0,0.0,0.0,0.0,0.0,0.0,0.0,0.0,0.0,0.0,0.0,0.0,0.0,0.0,0.0,0.0,0.0,0.0,0.0,0.0,0.0,0.0,0.0,0.0,0.0,0.0,0.0,0.0,0.0,0.1949,0.0,0.0,0.0,0.0,0.0,0.0,0.0,0.0,0.0,0.0,0.0,0.0,0.0,0.0,0.0,0.0,0.0,0.0,0.0,0.0,0.0,0.0,0.0,0.0,0.0,0.0,0.0,0.0,0.0,0.0,0.0,0.0,0.0,0.0,0.0,0.0,0.0,0.0,0.0,0.0,0.0,0.0,0.0,0.0,0.0,0.0,0.0,0.0,0.0,0.0,0.0,0.0,0.0,0.0,0.0,0.0,0.0,0.0,0.0,0.0,0.0,0.0,0.0,0.0,0.0,0.0,0.0,0.0,0.0,0.0,0.0,0.0,0.0,0.0,0.0,0.0,0.0,0.0,0.0,0.0,0.0,0.0,0.0,0.0,0.0,0.0,0.0,0.0,0.0,0.0,0.0,0.0,0.0,0.0,0.0,0.0,0.0,0.0,0.0,0.0,0.0,0.0,0.0,0.0,0.0,0.0,0.0,0.0,0.9135,0.835,0.6968,0.8324,0.8261,0.6794,0.4049,0.2739,0.272,0.3926,0.0,0.0,0.0,0.0,0.0,0.0,0.0,0.0,0.0,0.0,0.0,0.0,0.0,0.0,0.0,0.0,0.0,0.0,0.0,0.0,0.0,0.0,0.0,0.0,0.0,0.0,0.0,0.0,0.0,0.0,0.0,0.0,0.0,0.0,0.0,0.0,0.0,0.0,0.0,0.0,0.0,0.0,0.0,0.0,0.0,0.0,0.0,0.0,0.0,0.0,0.0,0.0,0.0,0.0,0.0,0.0,0.0,0.0,0.0,0.0,0.0,0.0,0.0,0.0,0.0,0.0,0.0,0.0,0.0,0.0,0.0,0.0,0.0,0.0,0.0,0.0,0.0,0.0,0.0,0.0,0.0,0.0,0.0,0.0,0.0,0.0,0.6961,0.6918,0.0,0.0,0.0,0.0,0.0,0.0,0.0,0.0,0.0,0.0,0.0,0.0,0.0,0.7649,0.8913,0.8044,0.8601,1.0553,1.0565,1.0224,0.9683,0.9693,0.919,0.8307,0.6305,0.0,0.4171,0.4093,0.0,0.0,0.0,0.0,0.0,0.0,0.0,0.0,0.0,0.0,0.0,0.0,0.0,0.0,0.0,0.0,0.0,0.0,0.0,0.0,0.0,0.0,0.0,0.0,0.0,0.0,0.0,0.0,0.0,0.0,0.0,0.0,0.0,0.0,0.0,0.0,0.0,0.0,0.0,0.0,0.0,0.0,0.0,0.0,0.0,0.0,0.0,0.0,0.0,0.0,0.0,0.0,0.0,0.0,0.0,0.0,0.0,0.0,0.0,0.0,0.0,0.0,0.0,0.0,0.0,0.0,0.0,0.0,0.0,0.0,0.0,0.0,0.0,0.0,0.0,0.0,0.0,0.0,0.0,0.0,0.0,0.0,0.0,0.0,0.0,0.7715,0.7899,0.7222,0.7472,0.7077,0.0,0.0,0.0,0.0,0.0,0.0,0.0,0.0,0.0,0.7856,0.8655,0.9175,0.9446,1.0398,1.1207,1.1957,1.1199,1.1124,1.1692,1.1073,1.0028,0.8659,0.7691,0.6546,0.5402,0.4477,0.415,0.4126,0.0,0.0,0.0,0.0,0.3596,0.609,0.0,0.0,0.0,0.0,0.0,0.0,0.0,0.0,0.0,0.0,0.0,0.0,0.0,0.0,0.0,0.0,0.0,0.0,0.0,0.0,0.0,0.0,0.0,0.0,0.0,0.0,0.0,0.0,0.0,0.0,0.0,0.0,0.0,0.0,0.0,0.0,0.0,0.0,0.0,0.0,0.0,0.0,0.0,0.0,0.0,0.0,0.0,0.0,0.0,0.0,0.0,0.0,0.0,0.0,0.0,0.0,0.0,0.0,0.0,0.0,0.0,0.0,0.0,0.0,0.0,0.0,0.0,0.0,0.0,0.0,0.0,0.0,0.0,0.0,0.0,0.0,0.0,0.8506,0.876,0.8031,0.8618,0.8431,0.0,0.0,0.0,0.0,0.0,0.0,0.8326,0.8453,0.8723,0.9111,1.0225,1.0603,1.0145,1.1978,1.2909,1.2909,1.1837,1.189,1.2864,1.2182,1.1107,0.9725,0.8733,0.7704,0.6568,0.5105,0.449,0.4463,0.5267,0.5366,0.4966,0.4714,0.4576,0.4922,0.0,0.0,0.0,0.0,0.0,0.0,0.0,0.0,0.0,0.0,0.0,0.0,0.0,0.0,0.0,0.0,0.0,0.0,0.0,0.0,0.0,0.0,0.0,0.0,0.0,0.0,0.0,0.0,0.0,0.0,0.0,0.0,0.0,0.0,0.0,0.0,0.0,0.0,0.0,0.0,0.0,0.0,0.0,0.0,0.0,0.0,0.0,0.0,0.0,0.0,0.0,0.0,0.0,0.0,0.0,0.0,0.0,0.0,0.0,0.0,0.0,0.0,0.0,0.0,0.0,0.0,0.0,0.0,0.0,0.0,0.0,0.0,0.0,0.0,0.0,0.0,0.0,0.0,0.0,1.0177,1.104,0.0,0.0,0.0,0.0,0.8154,0.8147,0.8803,1.0287,0.9787,1.0439,1.258,1.2064,1.2024,1.2725,1.2852,1.2891,1.2891,1.2832,1.2832,1.29,1.286,1.28,1.2494,0.9562,0.8185,0.7856,0.6146,0.5533,0.5644,0.4995,0.5555,0.6742,0.7435,0.7554,0.7411,0.0,0.0,0.0,0.0,0.0,0.0,0.0,0.0,0.0,0.0,0.0,0.0,0.0,0.0,0.0,0.0,0.0,0.0,0.0,0.0,0.0,0.0,0.0,0.0,0.0,0.0,0.0,0.0,0.0,0.0,0.0,0.0,0.0,0.0,0.0,0.0,0.0,0.0,0.0,0.0,0.0,0.0,0.0,0.0,0.0,0.0,0.0,0.0,0.0,0.0,0.0,0.0,0.0,0.0,0.0,0.0,0.0,0.0,0.0,0.0,0.0,0.0,0.0,0.0,0.0,0.0,0.0,0.0,0.0,0.0,0.0,0.0,0.0,0.0,0.0,0.0,0.0,0.0,0.0,1.0289,1.0683,0.0,1.0656,1.0793,1.0929,1.1041,1.1606,1.2049,1.2155,1.2223,1.2484,1.2871,1.2657,1.2618,1.2881,1.2881,1.2881,1.2881,1.2881,1.2881,1.2881,1.2871,1.289,1.282,1.1059,1.0043,0.951,0.8393,0.6969,0.553,0.6165,0.6724,0.7321,0.8322,0.863,0.8532,0.0,0.0,0.0,0.0,0.0,0.0,0.0,0.0,0.0,0.0,0.0,0.0,0.0,0.0,0.0,0.0,0.0,0.0,0.0,0.0,0.0,0.0,0.0,0.0,0.0,0.0,0.0,0.0,0.0,0.0,0.0,0.0,0.0,0.0,0.0,0.0,0.0,0.0,0.0,0.0,0.0,0.0,1.3815,0.0,0.0,0.0,0.0,0.0,0.0,0.0,0.0,0.0,0.0,0.0,0.0,0.0,0.0,0.0,0.0,0.0,0.0,0.0,0.0,0.0,0.0,0.0,0.0,0.0,0.0,0.0,0.0,0.0,0.0,0.0,0.0,0.0,0.0,0.0,1.0086,1.0913,1.1336,1.1694,1.21,1.2499,1.2857,1.327,1.3927,1.4094,1.3669,1.3925,1.3826,1.3238,1.319,1.3104,1.2881,1.2881,1.2881,1.2881,1.2881,1.2881,1.2881,1.2881,1.2919,1.2859,1.2177,1.1631,1.1149,1.0002,0.8473,0.6925,0.7579,0.7846,0.7932,0.8683,0.8946,0.8903,0.0,0.0,0.0,0.0,0.0,0.0,0.0,0.0,0.0,0.0,0.0,0.0,0.0,0.0,0.0,0.0,0.0,0.0,0.0,0.0,0.0,0.0,0.0,0.0,0.0,0.0,0.0,0.0,0.0,0.0,0.0,0.0,0.0,0.0,0.0,0.0,0.0,0.0,0.0,0.0,0.0,0.0,1.4993,0.0,0.0,0.0,0.0,0.0,0.0,0.0,0.0,0.0,0.0,0.0,0.0,0.0,0.0,0.0,0.0,0.0,0.0,0.0,0.0,0.0,0.0,0.0,0.0,0.0,0.0,0.0,0.0,0.0,0.0,0.0,0.0,0.0,0.9894,1.1242,1.2322,1.2351,1.3207,1.3826,1.3815,1.4376,1.4744,1.4744,1.4755,1.4744,1.4744,1.4664,1.4378,1.3773,1.3747,1.3484,1.291,1.2929,1.2949,1.2949,1.2939,1.2881,1.2881,1.2881,1.2892,1.2875,1.2765,1.2807,1.2752,1.0813,0.9984,0.9908,0.9065,0.8757,0.8749,0.8781,0.8773,0.8651,0.0,0.0,0.0,0.0,0.0,0.0,0.0,0.0,0.0,0.0,0.0,0.0,0.0,0.0,0.0,0.0,0.0,0.0,0.0,0.0,0.0,0.0,0.0,0.0,0.0,0.0,0.0,0.0,0.0,0.0,0.0,0.0,0.0,0.0,0.0,0.0,0.0,0.0,0.0,0.0,0.0,0.0,1.8112,0.0,0.0,0.0,0.0,0.0,0.0,0.0,0.0,0.0,0.0,0.0,0.0,0.0,0.0,0.0,0.0,0.0,0.0,0.0,0.0,0.0,0.0,0.0,0.0,0.0,0.0,0.0,0.0,0.0,0.0,0.0,0.0,1.4212,1.3554,1.2968,1.293,1.3834,1.3894,1.3956,1.4422,1.5005,1.5543,1.5976,1.602,1.5832,1.5365,1.4057,1.3065,1.2443,1.2806,1.2935,1.2761,1.3659,1.4135,1.4135,1.3302,1.2881,1.2881,1.2881,1.2899,1.278,1.026,1.062,1.2852,1.2312,1.187,1.1472,1.0578,1.0205,1.0213,1.0261,1.0068,0.9523,0.0,0.0,0.0,0.0,0.0,0.0,0.0,0.0,0.0,0.0,0.0,0.0,0.0,0.0,0.0,0.0,0.0,0.0,0.0,0.0,0.0,0.0,0.0,0.0,0.0,0.0,0.0,0.0,0.0,0.0,0.0,0.0,0.0,0.0,0.0,0.0,0.0,0.0,0.0,0.0,0.0,0.0,1.9374,1.9071,1.8465,1.7744,1.7261,1.6607,1.5755,1.4217,0.0,0.0,0.0,0.0,0.0,0.0,0.0,0.0,0.0,0.0,0.0,0.0,0.0,0.0,0.0,0.0,0.0,0.0,0.0,0.0,0.0,0.0,0.0,0.0,1.4607,1.6113,1.6848,1.5599,1.4879,1.5612,1.5244,1.5126,1.5729,1.5906,1.6249,1.6817,1.6886,1.6729,1.6361,1.554,1.4401,1.2915,1.3704,1.3606,1.2498,1.3758,1.4307,1.4123,1.3303,1.2909,1.2881,1.2881,1.2908,1.2775,1.0819,1.1037,1.2889,1.2872,1.2758,0.0,0.0,0.0,0.0,0.0,1.1012,1.0544,0.0,0.0,0.0,0.0,0.0,0.0,0.0,0.0,0.0,0.0,0.0,0.0,0.0,0.0,0.0,0.0,0.0,0.0,0.0,0.0,0.0,0.0,0.0,0.0,0.0,0.0,0.0,0.0,0.0,0.0,0.0,0.0,0.0,0.0,0.0,0.0,0.0,0.0,0.0,0.0,0.0,0.0,1.983,1.983,1.9217,1.8223,1.773,1.7257,1.6775,1.5709,0.0,0.0,0.0,0.0,0.0,0.0,0.0,0.0,0.0,0.0,0.0,0.0,0.0,0.0,0.0,0.0,0.0,0.0,0.0,0.0,0.0,0.0,0.0,0.0,1.5664,1.7233,1.9647,1.8682,1.7688,1.7519,1.692,1.6693,1.7231,1.6958,1.6923,1.7438,1.7476,1.7476,1.7476,0.0,0.0,0.0,0.0,1.5023,1.255,1.3789,1.4225,1.3746,1.325,1.302,1.2949,1.2939,1.2895,1.2903,1.2924,1.2902,1.2923,1.2887,1.2881,1.2803,1.2057,1.1724,1.1631,1.1528,1.1538,1.1577,0.0,0.0,0.0,0.0,0.0,0.0,0.0,0.0,0.0,0.0,0.0,0.0,0.0,0.0,0.0,0.0,0.0,0.0,0.0,0.0,0.0,0.0,0.0,0.0,0.0,0.0,0.0,0.0,0.0,0.0,0.0,0.0,0.0,0.0,0.0,0.0,0.0,0.0,0.0,0.0,0.0,0.0,2.2638,2.2638,2.2128,2.1317,2.0511,2.0176,1.9807,1.7662,1.7134,1.7213,1.6186,0.0,0.0,0.0,0.0,0.0,0.0,0.0,0.0,0.0,0.0,0.0,0.0,0.0,0.0,0.0,0.0,0.0,0.0,0.0,0.0,1.7239,1.8371,1.9584,2.0978,2.0869,2.018,1.8758,1.7697,1.7159,1.7266,1.7649,1.7928,1.8041,1.8053,1.8053,1.8053,1.6727,1.5686,1.5201,1.5846,1.5679,1.4568,1.5793,1.6084,1.5403,0.0,0.0,1.3389,1.3049,1.2928,1.2878,1.289,1.2919,1.2878,1.289,1.2881,1.2861,1.2695,1.2412,1.196,1.0921,1.1202,1.1856,0.0,0.0,0.0,0.0,0.0,0.0,0.0,0.0,0.0,0.0,0.0,0.0,0.0,0.0,0.0,0.0,0.0,0.0,0.0,0.0,0.0,0.0,0.0,0.0,0.0,0.0,0.0,0.0,0.0,0.0,0.0,0.0,0.0,0.0,0.0,0.0,0.0,0.0,0.0,0.0,0.0,0.0,2.549,2.4374,2.3477,2.2748,2.1874,2.1311,2.0766,1.9105,1.8724,1.8737,1.7942,1.7484,1.6987,0.0,0.0,0.0,0.0,0.0,0.0,0.0,0.0,0.0,0.0,0.0,0.0,0.0,0.0,1.6045,0.0,0.0,1.6879,1.8859,1.9071,1.9661,2.16,2.1656,2.1169,2.0323,1.9482,1.9101,1.9371,1.917,1.912,1.9422,1.9171,1.9007,1.9007,1.8092,1.7133,1.6152,1.6991,1.679,1.5392,1.6636,1.6979,1.6428,1.5444,1.4785,1.4297,1.3545,1.3068,1.2916,1.29,1.2881,1.2881,1.2881,1.2881,1.2881,1.2881,1.2744,1.2472,1.1846,1.2006,1.2443,0.0,0.0,0.0,0.0,0.0,0.0,0.0,0.0,0.0,0.0,0.0,0.0,0.0,0.0,0.0,0.0,0.0,0.0,0.0,0.0,0.0,0.0,0.0,0.0,0.0,0.0,0.0,0.0,0.0,0.0,0.0,0.0,0.0,0.0,0.0,0.0,0.0,0.0,0.0,0.0,0.0,0.0,2.747,2.5547,2.434,2.3505,2.2361,2.1563,2.0905,1.999,1.969,1.96,1.9061,1.8992,1.865,1.6598,1.6684,0.0,0.0,0.0,0.0,0.0,0.0,0.0,0.0,0.0,1.7774,1.8021,1.8026,1.8339,1.928,1.8162,1.7869,2.0244,1.9643,1.978,2.2289,2.2259,2.1983,2.1983,2.1292,2.1004,2.1443,2.0665,2.0326,2.0844,2.0388,2.0125,2.0125,2.0125,1.9369,1.775,1.8694,1.837,1.6492,1.7493,1.7696,1.7104,1.6342,1.5828,1.5519,1.4304,1.3478,1.3052,1.2974,1.29,1.2881,1.29,1.289,1.2891,1.3027,1.3057,1.3047,1.2959,1.2881,1.2881,0.0,0.0,0.0,0.0,0.0,0.0,0.0,0.0,0.0,0.0,0.0,0.0,0.0,0.0,0.0,0.0,0.0,0.0,0.0,0.0,0.0,0.0,0.0,0.0,0.0,0.0,0.0,0.0,0.0,0.0,0.0,0.0,0.0,0.0,0.0,0.0,0.0,0.0,0.0,0.0,0.0,0.0,2.7185,2.6318,2.5447,2.4377,2.2169,2.1346,2.11,2.0035,1.969,1.9675,1.96,1.9579,1.9367,1.815,0.0,1.7527,1.5383,1.3859,1.3242,1.4857,1.5987,1.675,0.0,0.0,2.1636,2.0271,2.1524,2.2672,2.2155,2.1949,2.1893,2.2035,2.1911,2.2314,2.3627,2.3753,2.3715,2.3715,2.2347,2.1418,2.1481,2.1368,2.133,2.1393,2.1343,2.1305,2.1305,2.1305,2.1217,2.0974,2.1094,2.0514,1.9178,1.9302,1.8783,1.7489,1.6791,1.6545,1.6774,1.5297,1.4277,1.3601,1.3137,1.2898,1.29,1.2893,1.2886,1.2969,1.3421,1.3588,1.3539,1.3077,1.2881,1.2881,0.0,0.0,0.0,0.0,0.0,0.0,0.0,0.0,0.0,0.0,0.0,0.0,0.0,0.0,0.0,0.0,0.0,0.0,0.0,0.0,0.0,0.0,0.0,0.0,0.0,0.0,0.0,0.0,0.0,0.0,0.0,0.0,0.0,0.0,0.0,0.0,0.0,0.0,0.0,0.0,0.0,0.0,2.8279,2.6456,2.5313,2.4344,2.217,2.1104,0.0,0.0,1.9106,1.9181,1.957,1.9263,1.8678,1.8222,1.7838,0.0,1.6374,1.648,0.0,0.0,1.9352,2.0717,2.0838,2.2072,2.3135,2.2849,2.3852,2.479,2.4882,2.3703,2.3011,0.0,2.2757,2.2147,2.3328,2.3791,2.3879,2.354,2.2005,2.1096,2.1275,2.2014,2.2259,2.1834,2.1902,2.2108,2.2422,2.1832,2.1493,2.1493,2.1493,2.1256,2.0686,2.0686,2.0281,1.942,1.8985,1.8261,1.733,1.6345,1.5608,1.4966,1.3518,1.3691,1.4849,1.343,1.2894,1.2953,1.3497,1.3887,1.4146,1.3743,1.3457,1.3242,0.0,0.0,0.0,0.0,0.0,0.0,0.0,0.0,0.0,0.0,0.0,0.0,0.0,0.0,0.0,0.0,0.0,0.0,0.0,0.0,0.0,0.0,0.0,0.0,0.0,0.0,0.0,0.0,0.0,0.0,0.0,0.0,0.0,0.0,0.0,0.0,0.0,0.0,0.0,0.0,0.0,0.0,2.8072,2.5846,2.4456,2.3511,2.1676,2.0639,0.0,0.0,1.8553,1.8747,1.9046,1.8752,1.8226,1.8036,1.7423,1.6944,1.7514,0.0,0.0,2.0607,2.2081,2.3389,2.4029,2.4283,2.4567,2.5061,2.5634,2.6149,2.6454,2.4947,2.3995,2.506,2.3607,2.2665,2.3666,2.4054,2.3942,2.317,2.1714,2.0616,2.0216,2.1499,2.2443,2.2566,2.2538,2.2711,2.3053,2.2523,2.2108,2.1945,2.2096,2.2033,2.1719,2.1719,2.1443,2.0903,2.0596,1.9719,1.8441,1.7412,1.6546,1.5754,1.4641,1.492,1.5952,1.3772,1.3162,1.3649,1.4014,1.4454,1.478,1.4527,1.4141,1.3662,0.0,0.0,0.0,0.0,0.0,0.0,0.0,0.0,0.0,0.0,0.0,0.0,0.0,0.0,0.0,0.0,0.0,0.0,0.0,0.0,0.0,0.0,0.0,0.0,0.0,0.0,0.0,0.0,0.0,0.0,0.0,0.0,0.0,0.0,0.0,0.0,0.0,0.0,0.0,0.0,0.0,0.0,2.5556,2.4192,2.2888,2.1614,2.0235,0.0,0.0,0.0,1.8179,1.8597,1.7951,1.8175,0.0,1.7906,1.6978,0.0,0.0,0.0,1.7718,2.1873,2.2571,2.2833,2.506,2.6033,2.6497,2.6527,2.6938,2.7042,2.6354,2.5975,2.5579,2.4937,2.4757,2.4856,2.5448,2.5109,2.4313,2.3071,2.1994,2.0334,0.0,1.9402,2.1555,2.3779,2.3378,2.3053,2.3078,2.364,2.3665,2.304,2.3627,2.3389,2.2297,2.2284,2.2008,2.1468,2.0767,2.0487,2.0561,1.8518,1.6774,1.5513,1.6848,1.6676,1.5308,1.358,1.3855,1.5328,1.534,1.5361,1.5345,1.5369,1.4834,1.4053,0.0,0.0,0.0,0.0,0.0,0.0,0.0,0.0,0.0,0.0,0.0,0.0,0.0,0.0,0.0,0.0,0.0,0.0,0.0,0.0,0.0,0.0,0.0,0.0,0.0,0.0,0.0,0.0,0.0,0.0,0.0,0.0,0.0,0.0,0.0,0.0,0.0,0.0,0.0,0.0,0.0,0.0,2.6572,2.3505,2.1799,2.0752,0.0,0.0,0.0,0.0,1.7189,1.7413,1.7623,0.0,0.0,1.6177,1.6986,1.8136,1.8375,0.0,2.1281,2.3183,2.4395,2.5461,2.6662,2.744,2.7799,2.7335,2.6828,2.6089,2.497,2.3647,2.2723,2.2802,2.2694,2.3062,2.4356,2.3281,2.2714,2.3516,2.1212,0.0,0.0,0.0,0.0,2.1895,2.3009,2.4017,2.4732,2.4619,2.4293,2.3715,2.3891,2.3627,2.2862,2.2862,2.2397,2.1481,1.9471,1.879,1.9165,1.707,1.6136,1.611,1.6138,1.644,1.6721,1.517,1.4885,1.5416,1.5412,1.5426,1.5379,1.5371,1.5234,1.4922,0.0,0.0,0.0,0.0,0.0,0.0,0.0,0.0,0.0,0.0,0.0,0.0,0.0,0.0,0.0,0.0,0.0,0.0,0.0,0.0,0.0,0.0,0.0,0.0,0.0,0.0,0.0,0.0,0.0,0.0,0.0,0.0,0.0,0.0,0.0,0.0,0.0,0.0,0.0,0.0,0.0,0.0,2.4792,2.1784,2.0064,0.0,0.0,0.0,0.0,0.0,0.0,0.0,0.0,1.6542,1.6122,1.6764,1.7929,1.9236,2.0465,2.2319,2.4277,2.5634,2.6857,2.7769,2.8203,2.8396,2.8302,2.7676,2.6721,2.5431,2.356,2.2314,2.144,2.1146,2.1179,2.1857,2.3728,2.2751,2.2384,2.3739,2.1511,2.0806,0.0,0.0,0.0,2.1602,2.2672,2.3603,2.4282,2.4184,2.4176,2.4293,2.4293,2.4017,2.3452,2.3238,2.2774,2.2071,2.0157,1.9171,1.8958,1.7408,1.6379,1.5738,1.5527,1.5941,1.6763,1.5803,1.5408,1.5412,1.539,1.541,1.541,1.541,1.541,1.5352,0.0,0.0,0.0,0.0,0.0,0.0,0.0,0.0,0.0,0.0,0.0,0.0,0.0,0.0,0.0,0.0,0.0,0.0,0.0,0.0,0.0,0.0,0.0,0.0,0.0,0.0,0.0,0.0,0.0,0.0,0.0,0.0,0.0,0.0,0.0,0.0,0.0,0.0,0.0,0.0,0.0,0.0,2.0602,1.9151,0.0,0.0,0.0,0.0,0.0,0.0,0.0,0.0,0.0,0.0,1.6683,1.9454,1.9695,2.0004,2.4283,2.5612,2.6422,2.8951,2.9579,2.9579,2.9525,2.8917,2.811,2.7446,2.6456,2.4857,0.0,0.0,2.151,2.004,2.0263,2.1405,2.3616,2.3428,2.322,0.0,0.0,0.0,0.0,0.0,0.0,2.2979,0.0,2.2183,2.2219,2.2751,2.3643,2.4781,2.4833,2.4556,2.4004,2.3389,2.3027,2.3027,2.2477,2.1402,1.9918,1.9325,1.7459,1.4693,1.5083,1.53,1.5414,1.54,1.541,1.541,1.541,1.541,1.541,1.541,1.541,1.5352,0.0,0.0,0.0,0.0,0.0,0.0,0.0,0.0,0.0,0.0,0.0,0.0,0.0,0.0,0.0,0.0,0.0,0.0,0.0,0.0,0.0,0.0,0.0,0.0,0.0,0.0,0.0,0.0,0.0,0.0,0.0,0.0,0.0,0.0,0.0,0.0,0.0,0.0,0.0,0.0,0.0,0.0,2.1141,0.0,0.0,0.0,0.0,0.0,0.0,0.0,0.0,0.0,0.0,2.0793,2.0763,2.0104,2.1786,2.3791,2.3612,2.6046,2.8727,2.9415,2.9579,2.9401,2.8805,2.8481,2.7652,2.5198,2.3124,2.1102,0.0,0.0,0.0,1.9497,1.9924,0.0,2.2872,2.265,0.0,2.3556,0.0,2.3959,2.5517,2.5859,0.0,0.0,2.473,2.4884,2.5306,2.5535,2.554,2.541,2.5021,2.4556,2.4004,2.3025,2.2523,2.251,2.1415,2.0684,2.0205,1.8879,1.8201,1.7922,1.5004,1.4396,1.541,1.541,1.541,1.541,1.541,1.541,1.541,1.541,1.541,1.54,0.0,0.0,0.0,0.0,0.0,0.0,0.0,0.0,0.0,0.0,0.0,0.0,0.0,0.0,0.0,0.0,0.0,0.0,0.0,0.0,0.0,0.0,0.0,0.0,0.0,0.0,0.0,0.0,0.0,0.0,0.0,0.0,0.0,0.0,0.0,0.0,0.0,0.0,0.0,0.0,0.0,0.0,0.0,0.0,0.0,0.0,0.0,0.0,0.0,0.0,0.0,2.0036,2.3095,2.3819,2.3584,2.3881,0.0,2.6075,2.6219,2.807,3.0003,2.9935,2.9881,2.9329,2.7295,2.6552,2.5423,2.2476,2.0568,0.0,0.0,0.0,0.0,0.0,0.0,0.0,2.1524,2.1691,2.2267,0.0,2.4025,0.0,2.741,2.7645,2.7264,0.0,2.5561,2.5253,2.5629,2.5419,2.5505,2.5975,2.5222,2.4443,2.3627,2.2987,2.2673,2.2673,2.1925,2.1425,2.1057,2.0141,1.9089,1.7894,0.0,1.53,1.4484,1.5119,1.539,1.541,1.541,1.541,1.541,1.541,1.541,1.541,0.0,0.0,0.0,0.0,0.0,0.0,0.0,0.0,0.0,0.0,0.0,0.0,0.0,0.0,0.0,0.0,0.0,0.0,0.0,0.0,0.0,0.0,0.0,0.0,0.0,0.0,0.0,0.0,0.0,0.0,0.0,0.0,0.0,0.0,0.0,0.0,0.0,0.0,0.0,0.0,0.0,0.0,0.0,0.0,0.0,0.0,0.0,0.0,0.0,0.0,2.1858,2.1867,2.5661,2.628,2.6042,2.8395,2.8136,2.759,2.9719,3.038,3.0436,3.0406,3.0194,2.914,2.57,2.4205,2.2658,1.9819,0.0,1.7371,1.5478,1.5931,1.652,1.6408,0.0,1.8859,2.0109,2.108,2.233,2.4145,2.4631,2.5648,2.7974,2.8084,2.7858,2.7532,2.5947,2.4941,2.4796,2.4347,2.4786,2.6314,2.5423,2.4381,2.3203,2.3251,2.3153,2.3078,2.3078,2.275,2.2063,2.1939,2.0159,1.729,1.8539,1.7147,1.4098,1.5039,1.5407,1.541,1.541,1.541,1.541,1.541,1.541,1.541,0.0,0.0,0.0,0.0,0.0,0.0,0.0,0.0,0.0,0.0,1.6702,1.7093,0.0,0.0,0.0,0.0,0.0,0.0,0.0,0.0,0.0,0.0,0.0,0.0,0.0,0.0,0.0,0.0,0.0,0.0,0.0,0.0,0.0,0.0,0.0,0.0,0.0,0.0,0.0,0.0,0.0,0.0,0.0,0.0,0.0,0.0,0.0,0.0,0.0,0.0,2.2716,2.4668,2.9058,3.0384,3.0005,2.8411,2.8822,2.9694,2.9219,2.9725,3.0435,3.0921,2.9785,2.7977,2.567,2.3979,0.0,0.0,0.0,1.6209,1.6349,1.612,1.6771,1.9488,0.0,0.0,0.0,0.0,2.4109,0.0,0.0,0.0,0.0,0.0,0.0,0.0,2.7888,2.7114,2.6214,2.6077,2.5958,2.5749,2.5561,2.4946,2.3853,2.3853,2.3602,2.3078,2.3078,2.3005,2.2884,2.2187,2.1908,2.1825,1.9907,0.0,1.8265,1.6249,1.5407,1.541,1.541,1.541,1.541,1.541,1.541,1.541,0.0,0.0,0.0,0.0,0.0,0.0,0.0,1.5543,1.6158,1.6931,1.6906,1.6866,1.7027,1.6448,0.0,0.0,0.0,0.0,0.0,0.0,0.0,0.0,0.0,0.0,0.0,0.0,0.0,0.0,0.0,0.0,0.0,0.0,0.0,0.0,0.0,0.0,0.0,0.0,0.0,0.0,0.0,0.0,0.0,0.0,0.0,0.0,0.0,0.0,0.0,0.0,2.1718,2.3991,2.9227,3.1422,3.1596,2.9286,3.0018,3.1159,2.9402,2.9843,3.0602,2.9984,2.8411,2.6109,2.2385,0.0,0.0,0.0,0.0,1.4094,1.4404,0.0,0.0,0.0,0.0,0.0,0.0,0.0,0.0,0.0,0.0,0.0,0.0,0.0,0.0,2.7595,2.6751,2.6578,2.7293,2.6766,2.6189,2.5611,2.5598,2.5222,2.4431,2.4142,2.3853,2.3577,2.3215,2.3078,2.3078,2.2702,2.236,2.2054,2.1163,1.9715,1.7983,1.6973,1.6079,1.5395,1.5407,1.537,1.541,1.541,1.541,1.541,0.0,0.0,0.0,0.0,0.0,0.0,0.0,1.5353,1.5899,1.7081,1.6971,1.6763,1.6686,1.6394,1.6219,0.0,0.0,0.0,0.0,0.0,0.0,0.0,0.0,0.0,0.0,0.0,0.0,0.0,0.0,0.0,0.0,0.0,0.0,0.0,0.0,0.0,0.0,0.0,0.0,0.0,0.0,0.0,0.0,0.0,0.0,0.0,0.0,0.0,0.0,0.0,2.017,2.1925,2.6857,2.964,3.0874,2.9509,3.0201,3.1085,2.984,2.994,3.0129,2.8692,2.7025,2.4393,1.9472,1.7865,0.0,0.0,1.2291,1.2688,1.3048,0.0,0.0,0.0,0.0,0.0,0.0,0.0,0.0,0.0,0.0,0.0,0.0,0.0,0.0,2.6615,2.582,2.6021,2.7695,2.6929,2.6251,2.5799,2.5774,2.5473,2.4833,2.4393,2.4054,2.3803,2.3351,2.3078,2.3078,2.3078,2.2515,2.162,2.2126,2.0294,1.7164,1.7645,1.7034,1.5879,1.6126,1.5874,1.541,1.541,1.541,1.541,0.0,0.0,0.0,0.0,0.0,0.0,0.0,1.4472,1.5188,1.5319,1.6208,1.6686,1.6382,1.6067,1.5983,0.0,0.0,0.0,0.0,0.0,0.0,0.0,0.0,0.0,0.0,0.0,0.0,0.0,0.0,0.0,0.0,0.0,0.0,0.0,0.0,0.0,0.0,0.0,0.0,0.0,0.0,0.0,0.0,0.0,0.0,0.0,0.0,0.0,0.0,0.0,0.0,1.9271,2.1039,2.3776,2.6546,2.7495,0.0,0.0,3.043,2.9559,2.8,2.8,2.609,2.3296,1.9736,0.0,0.0,1.3636,1.3085,1.362,1.5197,0.0,0.0,0.0,0.0,1.6851,0.0,0.0,0.0,0.0,0.0,0.0,0.0,0.0,0.0,2.713,2.7548,2.7435,2.6653,2.6584,2.6496,2.6445,2.6445,2.5887,2.4833,2.477,2.423,2.3153,2.3103,2.3078,2.3078,2.3078,2.304,2.2905,2.2477,2.0855,0.0,1.852,1.8057,1.7489,1.8552,1.7472,1.541,1.541,1.541,1.541,0.0,0.0,0.0,0.0,0.0,0.0,1.3988,1.4454,1.4838,1.511,1.5732,1.6101,1.601,1.589,1.5841,0.0,0.0,0.0,0.0,0.0,0.0,0.0,0.0,0.0,0.0,0.0,0.0,0.0,0.0,0.0,0.0,0.0,0.0,0.0,0.0,0.0,0.0,0.0,0.0,0.0,0.0,0.0,0.0,0.0,0.0,0.0,0.0,0.0,0.0,0.0,0.0,0.0,1.7565,1.8752,0.0,0.0,2.4803,2.6564,2.7193,2.7814,2.8104,2.7253,2.5014,2.2121,1.8794,0.0,0.0,1.2806,1.2735,1.3292,1.3689,0.0,0.0,0.0,0.0,0.0,0.0,0.0,0.0,0.0,0.0,0.0,0.0,0.0,2.4664,2.5105,2.6071,2.6553,2.6533,2.6848,2.6804,2.6533,2.6533,2.6088,2.5297,2.4971,2.4594,2.4142,2.3816,2.3653,2.3653,2.3653,2.3464,2.3065,2.284,2.1058,0.0,1.8954,1.8678,1.7787,1.7183,1.6296,1.5419,1.542,1.5381,1.5428,0.0,0.0,0.0,0.0,0.0,1.3583,1.4107,1.436,1.4624,1.4954,1.5315,1.5613,1.5759,1.5785,1.5811,1.5812,0.0,0.0,0.0,0.0,0.0,0.0,0.0,0.0,0.0,0.0,0.0,0.0,0.0,0.0,0.0,0.0,0.0,0.0,0.0,0.0,0.0,0.0,0.0,0.0,0.0,0.0,0.0,0.0,0.0,0.0,0.0,0.0,0.0,0.0,0.0,0.0,0.0,0.0,0.0,0.0,2.1994,2.4299,2.4193,2.5833,2.7245,2.6051,2.3627,2.079,0.0,0.0,0.0,1.209,1.2551,1.3243,1.273,1.307,0.0,0.0,0.0,1.776,0.0,0.0,0.0,0.0,0.0,0.0,0.0,2.5413,2.4505,2.4505,2.5505,2.6201,2.6521,2.6979,2.703,2.6546,2.6533,2.6189,2.5598,2.5234,2.4895,2.4569,2.4192,2.3692,2.3183,2.3542,2.3304,2.2588,2.2942,2.1455,0.0,2.0191,1.9625,1.7961,1.7745,1.6761,1.5487,1.6382,1.6483,1.6194,0.0,0.0,0.0,0.0,0.0,0.0,0.0,1.4039,1.4494,1.4511,1.4905,1.5327,1.5679,1.5767,1.5808,1.5796,0.0,0.0,0.0,0.0,0.0,0.0,0.0,0.0,0.0,0.0,0.0,0.0,0.0,0.0,0.0,0.0,0.0,0.0,0.0,0.0,0.0,0.0,0.0,0.0,0.0,0.0,0.0,0.0,0.0,0.0,0.0,0.0,0.0,0.0,0.0,0.0,0.0,0.0,0.0,0.0,1.9439,2.1072,2.2445,2.3813,2.472,2.4167,2.1907,1.9246,0.0,0.0,0.0,1.1958,1.2825,1.3735,1.3288,1.3581,1.4305,1.5568,0.0,0.0,1.8857,0.0,0.0,0.0,0.0,0.0,2.6476,2.6547,2.644,2.644,2.6954,0.0,2.6559,2.6979,2.703,2.6546,2.6533,2.6189,2.5598,2.5586,2.5059,2.4004,2.4004,2.3022,2.1248,2.2515,2.2406,2.1308,2.2515,2.2145,0.0,2.2365,2.1061,1.8354,2.1681,1.991,1.5743,1.8691,1.9003,1.7882,0.0,0.0,0.0,0.0,0.0,0.0,0.0,1.3599,1.3682,1.3488,1.4005,1.4632,1.5288,1.5384,1.5681,1.6412,0.0,0.0,0.0,0.0,0.0,0.0,0.0,0.0,0.0,0.0,0.0,0.0,0.0,0.0,0.0,0.0,0.0,0.0,0.0,0.0,0.0,0.0,0.0,0.0,0.0,0.0,0.0,0.0,0.0,0.0,0.0,0.0,0.0,0.0,0.0,0.0,0.0,0.0,0.0,0.0,0.0,0.0,1.8669,1.994,2.0815,2.0652,1.907,1.7174,1.5718,0.0,0.0,1.275,1.3503,1.4181,1.3769,1.3802,1.4305,1.5568,1.5841,0.0,0.0,0.0,0.0,0.0,0.0,2.6349,0.0,0.0,2.5649,2.6471,2.5925,2.585,2.6496,2.6697,2.671,2.6533,2.6533,2.6189,2.5598,2.5598,2.5423,2.5084,2.5084,2.3976,2.1946,2.3529,2.2985,2.0863,2.2427,2.194,2.0143,2.2243,1.9727,1.5089,2.0861,2.1202,1.868,2.114,2.1835,2.1283,0.0,0.0,0.0,0.0,0.0,0.0,0.0,1.3396,1.3311,1.3049,1.3355,1.3835,1.439,1.4897,1.5478,1.6174,0.0,0.0,0.0,0.0,0.0,0.0,0.0,0.0,0.0,0.0,0.0,0.0,0.0,0.0,0.0,0.0,0.0,0.0,0.0,0.0,0.0,0.0,0.0,0.0,0.0,0.0,1.6592,0.0,0.0,0.0,0.0,0.0,0.0,0.0,0.0,0.0,0.0,0.0,0.0,0.0,0.0,0.0,0.0,1.74,1.8405,1.8405,1.6823,0.0,0.0,0.0,0.0,0.0,1.4324,1.5203,1.4295,1.4546,1.4985,1.5318,1.6596,0.0,0.0,0.0,0.0,0.0,0.0,0.0,0.0,2.5711,2.5724,2.6483,2.5824,2.5737,2.6496,2.6533,2.6533,2.6533,2.6533,2.6289,2.5925,2.5699,2.5498,2.531,2.5084,2.3889,2.1898,2.3443,2.2936,2.0899,2.2439,2.2293,0.0,2.2489,2.0617,1.714,2.1467,2.2251,2.1223,2.2571,2.2675,2.2116,0.0,0.0,0.0,0.0,0.0,0.0,0.0,0.0,1.3311,1.3067,1.3031,1.3108,1.3265,1.4417,1.5194,1.5343,0.0,0.0,0.0,0.0,0.0,0.0,0.0,0.0,0.0,0.0,0.0,0.0,1.5799,1.5799,1.5799,0.0,0.0,0.0,0.0,0.0,0.0,0.0,0.0,0.0,0.0,0.0,0.0,0.0,0.0,0.0,0.0,0.0,0.0,0.0,0.0,0.0,0.0,0.0,0.0,0.0,0.0,0.0,0.0,0.0,0.0,0.0,0.0,0.0,0.0,0.0,0.0,0.0,0.0,1.6661,1.4994,1.5789,1.6312,1.5079,1.7901,0.0,0.0,0.0,0.0,0.0,2.3463,0.0,2.5532,2.6173,2.6589,2.6658,2.6589,2.6589,2.6589,2.6521,2.6508,2.6471,2.6471,2.6483,2.6533,2.5887,2.531,2.468,2.428,2.301,2.1057,2.2515,2.2418,0.0,2.2503,2.3078,2.3078,2.3078,2.3069,2.3083,2.3083,2.3083,2.3083,2.3083,2.2201,2.1076,0.0,0.0,0.0,0.0,0.0,0.0,0.0,0.0,0.0,0.0,1.3311,1.3528,1.4134,1.4518,1.5076,0.0,0.0,0.0,0.0,0.0,0.0,0.0,0.0,0.0,0.0,0.0,0.0,1.5799,1.5799,1.5799,1.5799,1.5799,0.0,0.0,0.0,0.0,0.0,0.0,0.0,0.0,0.0,0.0,0.0,0.0,0.0,0.0,1.4797,1.5139,0.0,0.0,0.0,0.0,0.0,0.0,0.0,0.0,1.4572,1.4219,1.4511,0.0,1.3743,1.4543,1.3859,0.0,0.0,0.0,0.0,0.0,0.0,1.7349,1.6632,1.7576,1.8075,1.6877,1.7929,1.9263,2.0378,0.0,0.0,2.2458,2.497,2.6202,2.4818,2.636,2.767,2.8363,2.7802,2.7417,2.7417,2.685,2.6319,2.5812,2.5799,2.6013,2.6521,2.5887,2.49,2.3509,2.4277,2.2788,1.9459,2.2444,2.2651,2.0861,2.2402,2.3078,2.3078,2.3078,2.3088,2.3072,2.3072,2.3072,2.3072,2.3072,2.3378,2.3554,0.0,0.0,0.0,0.0,0.0,0.0,0.0,0.0,0.0,0.0,0.0,0.0,0.0,0.0,0.0,0.0,0.0,0.0,0.0,0.0,0.0,0.0,0.0,0.0,0.0,0.0,0.0,0.0,0.0,1.5799,0.0,0.0,0.0,0.0,0.0,0.0,0.0,0.0,0.0,0.0,1.5933,0.0,0.0,0.0,0.0,0.0,1.4797,1.5022,0.0,1.5004,1.5304,1.5754,0.0,0.0,0.0,0.0,1.5566,1.5308,1.5623,1.4155,1.2812,1.3965,1.3144,1.2386,0.0,0.0,0.0,0.0,0.0,0.0,1.7777,1.8101,0.0,1.8054,1.8252,0.0,0.0,0.0,0.0,2.2764,2.4184,2.5195,0.0,2.7046,2.8298,2.8427,2.7986,2.767,2.767,2.6905,2.6506,2.6565,2.5924,2.5749,2.6063,2.5259,2.4163,2.2672,2.3567,2.2481,1.97,2.2381,2.2919,2.1768,2.1913,2.2365,2.3125,2.3103,2.3081,2.3078,2.3078,2.3078,2.3078,2.3078,2.3489,2.3929,0.0,0.0,0.0,0.0,0.0,0.0,0.0,0.0,0.0,0.0,0.0,0.0,0.0,0.0,0.0,0.0,0.0,0.0,0.0,0.0,0.0,0.0,0.0,0.0,0.0,0.0,0.0,0.0,0.0,0.0,0.0,0.0,0.0,0.0,0.0,0.0,0.0,0.0,0.0,0.0,1.5649,0.0,0.0,0.0,0.0,0.0,0.0,0.0,0.0,1.4303,1.4857,1.5709,1.5111,0.0,0.0,0.0,0.0,0.0,1.6666,1.5,1.3473,1.4755,1.3221,1.1855,0.0,0.0,0.0,0.0,0.0,0.0,0.0,0.0,0.0,0.0,0.0,0.0,2.1921,2.3168,2.3492,2.2724,2.354,0.0,2.6082,2.8023,2.8908,2.8312,2.792,2.7736,2.7855,2.704,2.6744,2.7353,2.6149,2.5473,2.5473,2.4494,2.3331,2.2104,2.2761,2.2194,2.0668,2.2328,2.3078,2.3027,0.0,0.0,2.26,2.2979,2.3107,2.3078,2.3078,2.3078,2.3078,2.3078,2.3083,2.3406,0.0,0.0,0.0,0.0,0.0,0.0,0.0,0.0,0.0,0.0,0.0,0.0,0.0,0.0,0.0,0.0,0.0,0.0,0.0,0.0,0.0,0.0,0.0,0.0,0.0,0.0,0.0,0.0,0.0,0.0,1.5799,1.5799,1.5799,0.0,0.0,0.0,1.4929,1.4348,1.4438,1.4932,1.4932,0.0,0.0,0.0,0.0,0.0,0.0,0.0,0.0,1.5529,1.5634,1.5784,1.5679,0.0,0.0,0.0,0.0,0.0,1.543,1.5238,1.5566,1.6514,1.5145,1.4083,0.0,0.0,0.0,0.0,0.0,0.0,0.0,0.0,0.0,0.0,0.0,2.203,0.0,0.0,2.6538,2.4044,0.0,2.9512,2.7061,2.8647,3.0129,3.0881,2.8939,2.8051,2.8748,2.7351,2.6294,2.5924,2.5275,2.4946,2.4946,2.4318,2.3145,2.1559,2.2588,2.2194,2.0668,2.2328,2.3078,2.3065,0.0,2.1765,2.0401,2.232,2.3075,2.3078,2.3078,2.3078,2.3078,2.3078,2.3095,2.3356,0.0,0.0,0.0,0.0,0.0,0.0,0.0,0.0,0.0,0.0,0.0,0.0,0.0,0.0,0.0,0.0,0.0,0.0,0.0,0.0,0.0,0.0,0.0,0.0,0.0,0.0,0.0,0.0,0.0,1.5454,1.5799,1.5799,1.5619,1.5259,0.0,0.0,1.4752,1.4094,1.3989,1.4259,0.0,0.0,0.0,0.0,0.0,0.0,0.0,0.0,0.0,0.0,1.5499,1.5739,1.5379,0.0,0.0,0.0,0.0,0.0,1.6443,1.6338,1.6547,1.7678,1.5934,0.0,0.0,0.0,0.0,0.0,0.0,0.0,0.0,0.0,0.0,0.0,0.0,2.5479,2.5049,2.6193,2.664,0.0,0.0,2.8827,2.7937,2.9638,3.0829,3.0851,2.9317,2.8556,2.9002,2.7802,2.6891,2.631,2.5755,2.5153,2.4381,2.3816,2.2798,2.1426,2.2551,2.2194,2.0668,2.2328,2.3078,2.304,0.0,2.1689,2.1524,2.1354,2.2002,2.3078,2.3078,2.3078,2.3078,2.3078,2.3095,2.3256,0.0,0.0,0.0,0.0,0.0,0.0,0.0,0.0,0.0,0.0,0.0,0.0,0.0,0.0,0.0,0.0,0.0,0.0,0.0,0.0,0.0,0.0,0.0,0.0,0.0,0.0,0.0,1.5055,1.4958,1.5194,1.5799,1.5799,1.5529,0.0,0.0,0.0,1.4513,1.369,1.3421,1.3585,0.0,0.0,0.0,0.0,0.0,0.0,0.0,0.0,0.0,0.0,0.0,0.0,0.0,0.0,0.0,1.6338,1.6592,1.6756,1.695,1.6861,1.6952,1.7919,0.0,0.0,0.0,0.0,0.0,0.0,0.0,0.0,0.0,0.0,0.0,0.0,2.6931,2.7921,2.7225,2.7342,2.7577,2.771,2.8209,2.8733,2.9241,3.0572,3.1176,3.0598,2.9425,2.8844,2.9045,2.8089,2.736,2.692,2.6409,2.5537,2.4289,2.3657,2.284,2.1811,2.2673,2.2449,2.1262,2.2511,2.3078,2.3015,2.1633,2.1753,2.279,2.0882,2.1287,2.3085,2.3085,2.3122,2.3078,2.3078,2.3106,2.3183,0.0,0.0,0.0,0.0,0.0,0.0,0.0,0.0,0.0,0.0,0.0,0.0,0.0,0.0,0.0,0.0,0.0,0.0,0.0,0.0,0.0,0.0,0.0,0.0,0.0,1.4903,1.4913,1.4639,1.5018,1.5396,1.5799,1.5799,1.5769,1.5679,0.0,0.0,1.3795,1.2493,1.2299,1.2936,1.3555,0.0,0.0,0.0,0.0,0.0,0.0,0.0,0.0,0.0,0.0,0.0,0.0,0.0,1.5814,1.5858,1.6263,1.6458,1.5321,1.5859,1.6668,1.6598,0.0,0.0,0.0,0.0,0.0,0.0,0.0,0.0,0.0,0.0,0.0,2.5905,2.6546,2.7769,3.069,0.0,3.1825,3.12,3.2258,3.2572,3.1379,3.1231,3.1241,3.1395,2.9348,2.8405,2.9213,2.7847,2.7023,2.6982,2.648,2.5828,2.5043,2.4465,2.38,2.2955,2.3053,2.304,2.2892,2.304,2.3078,2.304,2.2451,2.2239,2.2322,2.165,2.2046,2.3083,2.3083,2.3098,2.3078,2.3078,2.309,2.3115,0.0,0.0,0.0,0.0,0.0,0.0,0.0,0.0,0.0,0.0,0.0,0.0,0.0,0.0,0.0,0.0,0.0,0.0,0.0,0.0,0.0,0.0,0.0,1.431,1.4494,1.4271,1.3907,1.3366,1.4006,1.4604,1.5199,1.5604,0.0,0.0,0.0,0.0,1.3107,1.2179,1.1939,1.2194,1.2448,1.3211,0.0,0.0,0.0,0.0,0.0,0.0,0.0,0.0,1.6108,1.6067,1.5885,1.5799,1.5799,1.5799,1.5978,1.6039,1.5559,1.6054,1.6772,1.7137,0.0,0.0,0.0,0.0,0.0,0.0,0.0,0.0,0.0,0.0,0.0,2.7551,2.8495,2.9609,3.1243,3.1749,3.175,3.1497,3.1973,3.2078,3.1526,3.1041,3.0776,3.0854,2.9204,2.8322,2.8685,2.8153,2.7423,2.6524,2.682,2.6456,2.529,2.5073,2.4838,2.4496,2.359,2.3078,2.3078,2.3078,2.2949,2.2611,2.2397,2.2121,2.1807,2.1825,2.2038,2.2455,2.2917,2.3085,2.3078,2.3078,2.3078,2.3078,0.0,0.0,0.0,0.0,0.0,0.0,0.0,0.0,0.0,0.0,0.0,0.0,0.0,0.0,0.0,0.0,0.0,0.0,0.0,0.0,0.0,0.0,0.0,1.387,1.4157,1.4007,1.3722,1.3223,1.4038,1.4558,1.4797,0.0,0.0,0.0,0.0,0.0,0.0,1.2388,1.2072,1.182,1.2102,1.2727,0.0,0.0,0.0,0.0,0.0,0.0,0.0,0.0,1.6301,1.6246,1.5913,0.0,1.5799,1.5799,1.5799,1.5799,1.5799,1.6099,1.6562,0.0,0.0,0.0,0.0,0.0,0.0,0.0,0.0,0.0,0.0,0.0,0.0,0.0,2.8591,2.9729,3.1031,3.121,3.1228,3.1452,3.1482,3.1392,3.1225,3.0776,3.0417,3.0223,2.9086,2.8388,2.8388,2.7995,2.7429,2.6691,2.701,2.6741,2.5742,2.5728,2.5618,2.5398,2.4323,2.3813,2.3813,2.3603,2.3165,2.2617,2.2236,2.1832,2.1493,2.1531,2.1699,2.1906,2.2755,2.3078,2.3078,2.3078,2.3078,2.3078,0.0,0.0,0.0,0.0,0.0,0.0,0.0,0.0,0.0,0.0,0.0,0.0,0.0,0.0,0.0,0.0,0.0,0.0,0.0,0.0,0.0,0.0,0.0,1.4141,1.343,1.4235,1.4658,1.4599,1.5381,1.5439,1.4782,1.4797,0.0,0.0,0.0,0.0,0.0,0.0,1.2671,1.1871,1.2823,1.3031,1.2951,0.0,0.0,0.0,0.0,0.0,0.0,0.0,1.6285,1.6231,1.5898,0.0,0.0,1.5814,1.5814,1.5799,1.5814,1.5799,0.0,0.0,0.0,0.0,0.0,0.0,0.0,0.0,0.0,0.0,0.0,0.0,0.0,2.5693,2.6168,2.753,3.0133,3.0507,3.0746,3.1377,3.1467,3.124,3.0567,3.0492,3.0223,2.9624,2.8966,2.8592,2.8592,2.732,2.6901,2.7595,2.6946,2.6603,2.651,2.651,2.6122,2.5398,2.5398,2.5398,2.5398,2.4624,2.3949,2.3342,2.2043,2.1481,2.1443,2.0891,2.1026,2.1608,2.2718,2.3125,2.3125,2.3078,2.3078,2.3078,0.0,0.0,0.0,0.0,0.0,0.0,0.0,0.0,0.0,0.0,0.0,0.0,0.0,0.0,0.0,0.0,0.0,0.0,0.0,0.0,0.0,0.0,0.0,0.0,0.0,0.0,1.3775,1.4044,1.3805,1.3825,0.0,0.0,0.0,1.3825,0.0,0.0,0.0,0.0,1.2873,1.1841,1.2317,1.2626,1.2846,0.0,0.0,0.0,0.0,0.0,0.0,0.0,0.0,0.0,1.5803,0.0,0.0,1.6368,1.6475,1.6557,1.6805,1.6685,0.0,0.0,0.0,0.0,0.0,0.0,0.0,0.0,0.0,0.0,0.0,0.0,0.0,2.5796,2.6946,2.8592,3.0268,3.0133,3.0088,3.0731,3.0417,3.0088,2.9879,2.9445,2.9086,2.8906,2.8263,2.7874,2.7874,2.75,2.7365,2.761,2.738,2.7315,2.724,2.7255,2.7137,2.6967,2.6967,2.6428,2.5384,2.4668,2.3811,2.2816,2.2346,2.1681,2.097,2.1184,2.1794,2.2667,2.2967,2.3114,2.3081,2.3097,2.3078,2.3078,0.0,0.0,0.0,0.0,0.0,0.0,0.0,0.0,0.0,0.0,0.0,0.0,0.0,0.0,0.0,0.0,0.0,0.0,0.0,0.0,0.0,0.0,0.0,0.0,0.0,1.3392,1.3198,0.0,0.0,0.0,0.0,0.0,0.0,1.3445,0.0,1.4004,0.0,0.0,1.3524,1.2012,1.2567,1.2691,1.2576,0.0,0.0,0.0,0.0,0.0,0.0,0.0,0.0,0.0,0.0,0.0,0.0,1.6559,1.6756,1.7031,1.7257,0.0,0.0,0.0,0.0,0.0,0.0,0.0,0.0,0.0,0.0,0.0,0.0,0.0,0.0,2.6561,2.7395,2.8547,2.9594,2.943,2.943,3.0058,2.9804,2.949,2.922,2.8831,2.8487,2.8203,2.7814,2.7625,2.7625,2.732,2.7186,2.7186,2.6931,2.6797,2.6797,2.7051,2.7186,2.7235,2.744,2.7137,2.6254,2.5537,2.4713,2.3749,2.3393,2.2817,2.2232,2.2168,2.2731,2.378,2.4582,2.4158,2.3073,2.311,2.3078,2.3078,0.0,0.0,0.0,0.0,0.0,0.0,0.0,0.0,0.0,0.0,0.0,0.0,0.0,0.0,0.0,0.0,0.0,0.0,0.0,0.0,0.0,0.0,0.0,0.0,0.0,0.0,0.0,0.0,0.0,0.0,0.0,0.0,1.2938,1.2953,0.0,1.3494,0.0,0.0,1.4133,1.2086,1.3102,1.2946,1.2133,1.2508,0.0,0.0,0.0,0.0,0.0,0.0,0.0,0.0,1.533,0.0,1.6993,1.6495,1.6791,1.7304,0.0,0.0,0.0,0.0,0.0,0.0,0.0,0.0,0.0,0.0,0.0,0.0,0.0,0.0,2.8146,2.7585,2.758,2.7814,2.8502,2.8547,2.8757,2.9415,2.943,2.916,2.8562,2.8502,2.8248,2.767,2.7625,2.7625,2.7625,2.7006,2.6647,2.6587,2.6019,2.5674,2.5615,2.6258,2.6557,2.6512,2.7171,2.7535,2.7485,2.6791,2.6197,2.5568,2.4777,2.4486,2.4502,2.3602,2.3746,2.4669,2.6494,2.5528,2.3088,2.3125,2.3078,2.3078,0.0,0.0,0.0,0.0,0.0,0.0,0.0,0.0,0.0,0.0,0.0,0.0,0.0,0.0,0.0,0.0,0.0,0.0,0.0,0.0,0.0,0.0,0.0,0.0,0.0,0.0,0.0,0.0,0.0,0.0,0.0,0.0,0.0,1.3984,0.0,1.396,0.0,1.3473,1.2402,1.064,1.1582,1.1716,1.1358,1.1438,1.1739,0.0,0.0,0.0,0.0,0.0,0.0,0.0,1.4676,1.5128,1.5708,1.6409,1.6911,1.741,0.0,0.0,0.0,0.0,0.0,0.0,0.0,0.0,0.0,0.0,0.0,0.0,0.0,2.6549,2.6992,2.6846,2.7245,2.7814,2.8502,2.8128,2.8038,2.8727,2.8338,2.7949,2.785,2.785,2.779,2.7625,2.7625,2.7625,2.7625,2.749,2.7126,2.6602,2.6452,2.6138,2.5615,2.6258,2.6333,2.5824,2.6482,2.6797,2.6797,2.6649,2.6197,2.5466,2.4177,2.4244,2.5191,2.4529,2.3923,2.3458,2.3909,2.3658,2.3102,2.3097,2.3078,2.3078,0.0,0.0,0.0,0.0,0.0,0.0,0.0,0.0,0.0,0.0,0.0,0.0,0.0,0.0,0.0,0.0,0.0,0.0,0.0,0.0,0.0,0.0,0.0,0.0,0.0,0.0,0.0,0.0,0.0,0.0,0.0,0.0,0.0,1.3767,0.0,1.332,0.0,0.0,1.1968,1.0228,1.1159,1.1256,1.0798,1.0656,1.1051,1.1631,1.1409,0.0,0.0,0.0,0.0,0.0,0.0,0.0,1.5615,1.5868,1.654,1.7224,0.0,0.0,0.0,0.0,0.0,0.0,0.0,0.0,0.0,0.0,0.0,0.0,2.5615,2.5899,2.6228,2.6542,2.6871,2.7335,2.8008,2.7799,2.7709,2.8068,2.7784,2.7625,2.7625,2.7625,2.7625,2.7625,2.7625,2.749,2.7126,2.7096,2.6662,2.5674,2.5644,2.533,2.4657,2.5315,2.5325,2.4687,2.5383,2.5643,2.5633,2.6639,2.6686,2.594,2.5597,2.5834,2.6361,2.5411,2.4653,2.4117,2.3418,2.3102,2.3283,2.4701,2.436,2.3098,0.0,0.0,0.0,0.0,0.0,0.0,0.0,0.0,0.0,0.0,0.0,0.0,0.0,0.0,0.0,0.0,0.0,0.0,0.0,0.0,0.0,0.0,0.0,0.0,0.0,0.0,0.0,0.0,0.0,0.0,0.0,0.0,0.0,1.3619,0.0,0.0,0.0,0.0,0.0,0.0,0.0,0.0,1.024,1.0011,1.0463,1.1194,1.089,1.1505,1.245,1.2521,0.0,0.0,0.0,0.0,1.5534,1.5084,1.5829,1.6693,0.0,0.0,0.0,0.0,0.0,0.0,0.0,0.0,0.0,0.0,0.0,2.5405,2.5285,2.536,2.5615,2.6153,2.6348,2.6647,2.7305,2.7445,2.744,2.761,2.7625,2.7625,2.7625,2.752,2.7445,2.7445,2.7305,2.6991,2.6452,2.6422,2.5821,2.4476,2.4537,2.4209,2.3465,2.4194,2.4235,2.3533,2.412,2.4275,2.42,2.606,2.6711,2.6336,2.6811,2.7071,2.7122,2.5765,2.526,2.5133,2.3638,2.3107,2.345,2.6489,2.6054,2.3848,0.0,0.0,0.0,0.0,0.0,0.0,0.0,0.0,0.0,0.0,0.0,0.0,0.0,0.0,0.0,0.0,0.0,0.0,0.0,0.0,0.0,0.0,0.0,0.0,0.0,0.0,0.0,0.0,0.0,0.0,0.0,0.0,0.0,0.0,0.0,0.0,0.0,0.0,0.0,0.0,0.0,0.0,0.0,0.925,0.9598,1.0176,1.0623,1.1196,1.1793,1.2128,1.2805,0.0,0.0,0.0,1.3814,1.4129,1.473,1.5352,0.0,0.0,0.0,0.0,0.0,0.0,0.0,0.0,0.0,0.0,2.4283,2.4582,2.3969,2.4358,2.4746,2.4821,2.536,2.5974,2.6632,2.6722,2.6931,2.755,2.7625,2.7625,2.7625,2.7051,2.6722,2.6722,2.6198,2.5839,2.5749,2.5734,2.5141,2.3862,2.434,2.4029,2.2844,2.3999,2.3998,2.2824,2.2921,2.2889,2.275,2.3754,2.4693,2.5508,2.4951,2.5119,2.5631,2.4858,2.4627,2.4633,2.3516,2.3114,2.345,2.6489,2.7371,2.6806,0.0,0.0,0.0,0.0,0.0,0.0,0.0,0.0,0.0,0.0,0.0,0.0,0.0,0.0,0.0,0.0,0.0,0.0,0.0,0.0,0.0,0.0,0.8506,0.0,0.0,0.0,0.0,0.0,0.0,0.0,0.0,1.3598,1.4108,0.0,0.0,0.0,0.0,0.0,0.0,0.0,0.0,0.0,0.0,0.0,0.8911,0.9471,0.9673,1.0355,1.12,1.1528,1.2104,1.2741,1.2759,0.0,0.0,0.0,0.0,0.0,0.0,0.0,0.0,0.0,0.0,0.0,0.0,0.0,0.0,0.0,2.2772,2.3101,2.352,2.3849,2.4178,2.4522,2.4821,2.5285,2.5959,2.6363,2.6557,2.6482,2.6797,2.6871,2.6512,2.6213,2.6033,2.6033,2.5779,2.5295,2.4567,2.4552,2.3949,2.2616,2.2851,2.2708,2.2146,2.2708,2.2692,2.2068,2.2072,2.2135,2.2385,2.3076,2.3891,2.4768,2.4529,2.4791,2.5329,2.4666,2.441,2.4319,2.347,2.3129,2.3386,2.5572,2.6919,2.7492,0.0,0.0,0.0,0.0,0.0,0.0,0.0,0.0,0.0,0.0,0.0,0.0,0.0,0.0,0.0,0.0,0.0,0.0,0.0,0.0,0.0,0.8216,0.7585,0.7497,0.8154,0.0,0.0,0.0,0.0,0.0,1.3106,1.3144,1.3713,0.0,1.503,0.0,0.0,0.0,0.0,0.0,0.0,0.0,0.0,0.0,0.0,0.0,0.0,0.9929,1.0693,1.0997,1.1404,1.1866,1.2158,1.23,0.0,0.0,0.0,0.0,0.0,0.0,0.0,0.0,0.0,0.0,0.0,0.0,0.0,0.0,2.1494,2.2039,2.3146,2.337,2.3595,2.4253,2.4373,2.4597,2.527,2.5779,2.5911,2.5441,2.5938,2.609,2.5441,2.5357,2.536,2.536,2.5061,2.452,2.3693,2.338,2.2719,2.171,2.1697,2.1615,2.1472,2.1472,2.1493,2.1615,2.1393,2.1644,2.2322,2.2447,2.2941,2.3825,2.4062,2.4311,2.4595,2.401,2.373,2.3571,2.3109,2.3007,2.3249,2.4404,2.5605,2.6629,0.0,0.0,0.0,0.0,0.0,0.0,0.0,0.0,0.0,0.0,0.0,0.0,0.0,0.0,0.0,0.7292,0.6904,0.6723,0.6894,0.6911,0.7026,0.7266,0.7223,0.0,0.7266,0.0,0.0,0.0,0.0,0.0,1.0733,1.2654,1.394,1.4575,1.3579,1.3662,1.4379,0.0,0.0,0.0,0.0,0.9038,0.0,0.0,0.0,0.0,0.0,0.0,1.0289,1.0689,1.0751,1.0752,1.1163,1.1458,1.1727,0.0,0.0,0.0,0.0,0.0,0.0,0.0,0.0,0.0,0.0,0.0,0.0,0.0,2.0986,2.1904,2.2607,2.2768,2.2936,2.355,2.3655,2.3894,2.4537,2.4672,2.4697,2.4718,2.5269,2.5393,2.4791,2.4693,2.4627,2.4627,2.3535,2.3071,2.3581,2.244,2.1778,2.1683,2.1697,2.1438,2.0845,2.0845,2.1086,2.1615,2.0998,2.128,2.2284,2.1255,2.1423,2.2443,2.2934,2.2917,2.2483,2.247,2.214,2.168,2.225,2.2729,2.3109,2.3194,2.3513,2.3916,0.0,0.0,0.0,0.0,0.0,0.0,0.0,0.0,0.0,0.0,0.0,0.0,0.0,0.0,0.7245,0.7621,0.7014,0.6633,0.6689,0.6706,0.6807,0.6996,0.6881,0.6865,0.7012,0.0,0.0,0.0,0.0,0.7743,0.9566,1.0308,1.1596,1.3417,1.5752,1.5075,1.2231,1.2937,0.0,0.0,1.0716,1.0529,0.0,0.0,0.0,0.0,0.0,0.0,0.0,1.084,1.0769,1.0752,1.0902,1.1307,1.1764,1.19,0.0,0.0,0.0,0.0,0.0,0.0,0.0,0.0,0.0,0.0,1.6853,1.7741,1.9251,2.0483,2.0707,2.1839,2.275,2.301,2.3009,2.2947,2.2783,2.3122,2.3226,2.2822,2.3368,2.366,2.3461,2.2704,2.239,2.2849,2.1677,2.0864,2.0745,2.0548,2.0311,1.9986,2.0289,2.0383,2.0156,2.0156,2.0438,2.1013,2.0813,2.1242,2.2284,2.1543,2.1606,2.2297,2.2146,2.197,2.1769,2.1835,2.169,2.1549,2.1746,2.236,2.3083,2.3108,2.4434,2.57,0.0,0.0,0.0,0.0,0.0,0.0,0.0,0.0,0.0,0.0,0.0,0.0,0.0,0.0,0.7035,0.7216,0.6698,0.6395,0.6453,0.647,0.6557,0.6791,0.6668,0.6668,0.6791,0.0,0.0,0.0,0.0,0.0,0.0,0.0,0.9745,1.1444,1.4867,1.4863,0.0,0.0,0.0,1.0561,0.0,1.1929,1.0989,0.0,0.0,0.0,0.0,0.0,0.0,0.0,1.182,1.1352,1.1313,0.0,0.0,0.0,0.0,0.0,0.0,0.0,0.0,0.0,0.0,0.0,0.0,0.0,1.6187,1.6442,1.8215,1.975,1.9989,2.0995,2.1875,2.2294,2.2569,2.2472,2.1773,2.2088,2.2131,2.1479,2.1987,2.2193,2.1829,2.1272,2.0997,2.1283,2.0242,0.0,1.9687,1.9611,1.9423,1.9258,1.9623,1.9798,1.9798,1.9798,2.0087,2.0718,2.0718,2.1242,2.2284,2.1543,2.1506,2.1995,2.1242,2.1029,2.1204,2.1204,2.1091,2.0941,2.1142,2.1564,2.2018,2.243,2.3581,2.4459,0.0,0.0,0.0,0.0,0.0,0.0,0.0,0.0,0.0,0.0,0.0,0.0,0.0,0.0,0.0,0.5945,0.5911,0.5991,0.6171,0.6189,0.6318,0.6582,0.6582,0.6599,0.6599,0.0,0.0,0.0,0.0,0.0,0.0,0.0,0.8603,0.0,1.055,1.2772,1.5039,0.0,1.4218,1.4507,0.0,1.3193,1.2875,0.0,0.0,0.0,1.5878,1.5509,0.0,1.4632,0.0,0.0,0.0,0.0,0.0,0.0,0.0,0.0,0.0,0.0,0.0,0.0,0.0,0.0,0.0,0.0,1.6059,1.6047,1.7983,1.9839,2.0528,2.0226,2.0287,2.1451,2.2191,2.239,2.1713,2.1601,2.1411,2.0845,2.128,2.1179,2.0133,2.0492,2.0595,2.01,1.9405,1.9529,2.073,1.9659,1.9257,1.9761,1.9786,1.9773,1.9773,1.9773,2.0062,2.0668,2.0693,2.1204,2.2234,2.1142,2.0941,2.1405,2.0288,2.0125,2.0693,2.0693,2.0313,1.9861,2.0426,2.0329,1.99,2.1021,2.0747,1.9814,0.0,0.0,0.0,0.0,0.0,0.0,0.0,0.0,0.0,0.0,0.0,0.0,0.0,0.0,0.0,0.6141,0.5991,0.5918,0.5991,0.5991,0.6088,0.6301,0.6318,0.6401,0.6599,0.6599,0.0,0.0,0.0,0.0,0.0,0.0,0.0,0.0,0.8014,0.9244,1.012,1.2642,0.0,0.0,1.4559,1.4209,0.0,0.0,0.0,0.0,0.0,1.5799,1.4454,0.0,1.4995,1.3168,0.0,0.0,0.0,0.0,0.0,0.0,1.1745,0.0,0.0,0.0,0.0,0.0,0.0,0.0,0.0,1.5056,1.6818,1.8463,1.9136,1.9938,2.0451,2.0288,2.0174,2.0024,1.9769,1.9746,1.9845,2.0054,1.9898,1.9833,1.9998,1.9002,1.8498,0.0,1.7732,1.7444,1.8332,1.875,1.9244,1.9773,1.9434,1.9246,1.9246,1.9246,1.9321,1.9484,1.9861,2.0413,2.1091,2.0376,2.0351,2.0853,2.0125,1.9899,2.0037,2.0037,1.9949,1.9823,1.9974,1.9947,1.9845,2.0127,2.0089,1.982,0.0,0.0,0.0,0.0,0.0,0.0,0.0,0.0,0.0,0.0,0.0,0.0,0.0,0.0,0.0,0.5752,0.563,0.5603,0.5726,0.5726,0.5826,0.607,0.6088,0.6195,0.6436,0.636,0.0,0.0,0.0,0.0,0.0,0.0,0.0,0.0,0.0,0.0,0.0,0.0,0.0,0.0,1.4503,0.0,0.0,1.7592,1.732,0.0,0.0,0.0,1.6897,1.8402,1.705,0.0,0.0,0.0,0.0,0.0,0.0,0.0,0.0,0.0,0.0,0.0,0.0,0.0,1.1571,1.306,1.4532,0.0,1.6701,1.819,1.8125,1.8382,1.8487,1.8086,1.7664,1.7726,1.8793,1.8792,1.8794,1.9108,1.8869,1.8725,1.8895,1.8015,1.7441,1.754,1.6834,1.6663,1.737,1.8204,1.8819,1.9133,1.8844,1.8681,1.8681,1.892,1.8983,1.8983,1.9228,1.9825,2.0639,1.9458,1.94,2.0182,1.9286,1.8874,1.8927,1.9202,1.9527,1.9823,2.0075,2.0012,1.9811,1.9793,1.9803,1.9778,0.0,0.0,0.0,0.0,0.0,0.0,0.0,0.0,0.0,0.0,0.0,0.0,0.0,0.0,0.0,0.0,0.503,0.5146,0.5387,0.5406,0.5539,0.5856,0.5826,0.5925,0.6165,0.5979,0.0,0.0,0.0,0.0,0.0,0.0,0.0,0.0,0.0,0.0,0.0,0.0,0.0,1.3452,1.3938,1.5823,0.0,0.0,1.9266,1.8566,2.1267,2.1122,1.981,2.0976,1.932,0.0,0.0,0.0,0.0,0.0,1.1561,0.0,0.0,0.0,0.0,0.0,0.0,0.0,1.1196,1.309,1.4848,0.0,1.6737,1.7971,1.7171,1.6222,1.5604,1.5604,1.5116,1.5634,1.818,1.8299,1.8091,1.8028,1.8078,1.7915,1.7438,1.7325,1.7099,1.6647,1.6722,1.6999,1.7451,1.8003,1.8267,1.8204,1.8141,1.8069,1.8009,1.8496,1.8709,1.8685,1.8562,1.9131,2.0271,1.8441,1.8267,1.9294,1.81,1.7578,1.7633,1.8286,1.9028,1.9833,2.0388,2.03,1.9936,1.9846,1.9785,1.9826,0.0,0.0,0.0,0.0,0.0,0.0,0.0,0.0,0.0,0.0,0.0,0.0,0.0,0.0,0.0,0.0,0.0,0.4814,0.4853,0.4853,0.5069,0.5568,0.5375,0.5478,0.5954,0.5918,0.0,0.0,0.0,0.0,0.0,0.0,0.0,0.0,0.0,0.0,0.0,0.0,0.0,0.8909,1.3665,0.0,1.5311,2.0017,1.9619,1.7024,2.0504,2.0702,1.9367,1.9887,1.9621,1.8584,0.0,0.0,0.0,1.2245,0.0,0.0,0.0,0.0,0.0,0.0,0.0,0.0,1.0968,1.1378,1.2057,0.0,1.3643,1.425,1.5134,1.5117,1.4989,1.4989,1.4306,1.4364,1.6081,1.7017,1.7363,1.6898,1.7262,1.7501,1.7388,1.6961,1.6835,1.7187,1.8028,1.8392,1.8066,1.8568,1.8668,1.8216,1.7777,1.7285,1.6773,1.6869,1.6847,1.6738,1.7128,1.763,1.8219,1.7776,1.7733,1.7999,1.7722,1.7578,1.7633,1.7743,1.8542,1.9673,1.989,2.0265,2.062,2.001,1.9812,1.9826,0.0,0.0,0.0,0.0,0.0,0.0,0.0,0.0,0.0,0.0,0.0,0.0,0.0,0.0,0.0,0.0,0.0,0.0,0.0,0.0,0.4626,0.4893,0.4776,0.4884,0.5289,0.5175,0.5165,0.0,0.0,0.0,0.0,0.0,0.0,0.0,0.0,0.0,0.0,0.0,0.5137,0.7531,1.2468,0.0,1.5325,2.0134,2.0315,1.834,2.0519,2.0893,2.0135,1.8693,1.8692,0.0,0.0,1.4758,1.3158,0.0,1.1121,1.0592,0.0,0.0,0.0,1.0873,0.0,0.0,0.0,1.1178,1.1776,1.2209,1.2743,1.3128,1.3054,1.2852,1.2677,1.2677,1.2309,1.2244,1.3011,1.4698,1.5996,1.6441,1.6773,1.6948,1.6948,1.6685,1.676,1.7338,1.7626,1.7777,1.779,1.7777,1.7652,1.7375,1.6806,1.632,1.6025,1.5963,1.5934,1.5867,1.6045,1.653,1.7274,1.6513,1.6531,1.7034,1.6641,1.6518,1.6518,1.6922,1.7588,1.8578,1.9389,1.9748,1.9826,2.021,2.0129,1.9826,0.0,0.0,0.0,0.0,0.0,0.0,0.0,0.0,0.0,0.0,0.0,0.0,0.0,0.0,0.0,0.0,0.0,0.0,0.0,0.0,0.4412,0.4391,0.4285,0.4337,0.462,0.4418,0.4398,0.0,0.0,0.0,0.0,0.0,0.0,0.0,0.0,0.0,0.0,0.0,0.0,0.8333,0.0,1.4201,1.5411,1.9515,2.0286,1.9254,2.0255,2.081,2.0645,1.7547,1.744,1.834,1.6754,1.4543,0.0,0.0,0.0,0.0,0.0,0.0,0.0,0.0,0.0,0.997,0.0,0.0,0.0,1.1404,1.2012,0.0,0.0,0.0,0.0,0.0,0.0,0.0,0.0,1.2212,0.0,1.5307,1.5558,1.5699,1.5768,1.615,1.6673,1.7338,1.7149,1.7112,1.7363,1.6936,1.6591,1.6337,1.5864,1.5499,1.5276,1.5173,1.5145,1.5099,1.493,1.5404,1.6403,1.5279,1.5299,1.6141,1.5603,1.541,1.5468,1.6036,1.6587,1.7143,1.8634,1.9003,1.8809,1.9853,2.0072,1.9745,0.6366,0.6488,0.0,0.0,0.0,0.0,0.0,0.0,0.0,0.0,0.0,0.0,0.0,0.0,0.0,0.0,0.0,0.0,0.4418,0.0,0.0,0.4745,0.4231,0.4068,0.4345,0.4305,0.4305,0.4345,0.0,0.0,0.0,0.0,0.0,0.0,0.3466,0.0,0.0,0.0,0.8872,0.0,1.5057,1.4604,0.0,1.7404,1.7924,1.6289,1.8438,1.9399,1.9248,0.0,1.6593,1.7136,0.0,1.281,1.1503,1.1702,0.0,0.0,0.0,0.0,0.0,0.0,0.9957,0.0,0.0,0.0,0.9736,0.9683,0.0,0.0,0.0,0.0,0.0,0.0,0.0,0.0,1.0321,1.0431,1.0731,1.1629,1.2257,1.2773,1.3163,1.4929,1.6441,1.7338,1.8229,1.8342,1.7438,1.7325,1.6814,1.5744,1.5632,1.5084,1.3993,1.401,1.3917,1.375,1.3698,1.3945,1.4423,1.472,1.487,1.4985,1.5302,1.541,1.541,1.5468,1.5556,1.576,1.7267,1.8125,1.8487,1.809,1.8777,1.9696,0.0,0.5797,0.0,0.0,0.0,0.0,0.0,0.0,0.0,0.0,0.0,0.0,0.0,0.0,0.0,0.0,0.0,0.6028,0.0,0.0,0.0,0.0,0.377,0.3247,0.3368,0.3368,0.3368,0.3368,0.3368,0.0,0.0,0.0,0.0,0.0,0.2909,0.0,0.7052,0.0,0.8937,0.0,0.0,0.0,0.0,1.7056,1.8053,1.6273,1.5237,1.6308,1.7545,0.0,1.4863,0.0,0.0,0.0,0.0,0.0,0.0,0.0,0.0,0.0,0.0,0.0,0.0,0.0,1.1629,0.0,0.8992,0.0,0.0,0.0,0.0,0.0,0.0,0.0,0.7859,0.0,0.0,0.0,0.895,0.0,0.0,0.0,1.3493,1.3895,1.4452,1.5154,1.611,1.6418,1.5743,1.6122,1.6106,1.5632,1.4903,1.4318,1.3815,1.3467,1.3242,1.3145,1.3145,1.3359,1.3779,1.3965,1.418,1.4414,1.459,1.4814,1.5029,1.4775,1.4961,1.5449,1.5797,1.6536,1.7372,1.7545,1.7588,1.763,0.0,0.0,0.0,0.0,0.0,0.0,0.0,0.0,0.0,0.0,0.0,0.0,0.5848,0.4994,0.0,0.0,0.676,0.6712,0.0,0.0,0.5316,0.0,0.0,0.0,0.0,0.2995,0.2742,0.2697,0.2697,0.0,0.0,0.0,0.0,0.0,0.0,0.4035,0.6585,0.0,0.0,1.2321,1.2718,1.2456,1.2228,1.5887,1.6986,1.6221,1.3542,1.4406,1.6145,1.1757,1.3492,0.0,1.4018,0.0,0.0,0.0,0.0,0.0,1.2157,0.0,0.0,0.0,0.0,0.0,0.0,0.0,0.0,0.0,0.0,0.0,0.0,0.0,0.0,0.0,0.0,0.6931,0.0,0.67,0.0,0.0,0.0,0.0,0.0,1.2714,1.2678,1.2993,1.424,1.4704,1.4082,1.5022,1.5454,1.5129,1.4272,1.3732,1.3552,1.3104,1.2881,1.2881,1.2881,1.3037,1.334,1.3457,1.3672,1.3912,1.4029,1.4208,1.4304,1.4286,1.4378,1.4515,1.4506,1.4895,1.5558,1.6342,1.615,1.5525,0.6323,0.582,0.0,0.0,0.0,0.0,0.0,0.0,0.0,0.0,0.0,0.0,0.0,0.0,0.0,0.0,0.0,0.624,0.7211,0.0,0.6632,0.0,0.0,0.3808,0.0,0.3743,0.2829,0.2697,0.2697,0.0,0.0,0.0,0.0,0.0,0.0,0.4104,0.7437,1.0109,1.28,1.5485,1.8084,1.7829,1.563,0.0,1.3238,1.5086,1.4613,0.0,0.0,1.2832,1.2829,0.0,0.0,0.0,0.0,0.0,0.0,0.0,0.0,0.0,0.0,1.3105,0.0,0.0,0.0,0.0,0.8195,0.0,0.0,0.0,0.0,0.0,0.0,0.0,0.0,0.0,0.0,0.0,0.0,0.0,0.0,0.0,0.0,1.1168,1.184,1.1597,1.3678,1.4347,1.2929,1.4607,1.5039,1.3909,1.3815,1.3505,1.292,1.2929,1.2881,1.2881,1.2881,1.2891,1.291,1.332,1.3516,1.3555,1.3902,1.3755,1.325,1.4313,1.3737,1.2329,1.3426,1.3407,1.2822,1.3892,1.4119,1.3916,0.0,0.0,0.0,0.0,0.0,0.0,0.0,0.5211,0.0,0.0,0.0,0.0,0.0,0.7717,0.7124,0.0,0.0,0.7991,0.7404,0.7373,0.0,0.0,0.0,0.5606,0.0,0.0,0.3577,0.2365,0.2274,0.2168,0.0,0.0,0.0,0.0,0.0,0.3875,0.0,0.0,0.0,0.0,0.0,1.5941,1.2903,0.0,1.3856,1.4332,1.456,1.484,0.0,1.2824,1.3895,1.584,1.456,1.4212,1.4846,1.7791,1.6293,0.0,0.0,0.0,1.7492,1.6685,0.0,0.0,0.0,0.0,0.0,0.0,0.0,0.0,0.0,0.0,0.0,0.0,0.0,0.0,0.0,0.0,0.0,0.0,0.0,0.0,0.0,0.0,0.0,0.8658,1.026,1.0758,0.9766,1.2152,1.3218,1.2535,1.3246,1.3392,1.2881,1.2881,1.2881,1.2881,1.2881,1.2881,1.2881,1.3027,1.3096,1.3096,1.2742,1.265,1.2688,1.2272,1.2128,1.2103,1.2436,1.2092,1.1628,1.2747,1.3024,1.2856,0.6054,0.0,0.0,0.0,0.0,0.0,0.0,0.0,0.0,0.0,0.709,0.0,0.9712,0.0,0.8128,0.0,0.8316,0.8171,0.8024,0.7187,0.0,0.8747,0.7123,0.0,0.0,0.0,0.0,0.33,0.2461,0.2303,0.0,0.0,0.0,0.0,0.0,0.0,0.5357,0.0,1.1378,0.0,0.0,1.3854,0.0,0.0,1.3055,1.3641,0.0,1.3926,1.3886,1.3066,1.4264,1.5948,1.5069,1.5216,1.6177,1.8636,1.7462,1.596,1.8407,1.9317,0.0,1.8712,1.7027,0.0,1.4135,0.0,0.8332,0.0,0.0,0.0,0.0,0.0,0.0,0.0,0.0,0.0,0.0,0.5137,0.0,0.0,0.0,0.0,0.0,0.7462,0.7139,0.6757,0.814,0.8649,0.0,1.0637,1.2133,1.1792,1.2891,1.3379,1.3105,1.3105,1.3027,1.2881,1.2881,1.2881,1.2881,1.2618,1.2501,1.2452,1.1774,1.1463,1.1498,1.1164,1.0841,1.0621,1.1304,1.0763,0.984,1.1642,1.1804,1.1134,0.0,0.0,0.0,0.0,0.4816,0.0,0.0,0.0,0.7402,0.0,0.8727,0.8176,0.9553,0.8096,0.7131,0.7447,0.6649,0.6864,0.8704,0.6104,0.0,0.0,0.6469,0.5583,0.8074,0.0,0.0,0.0,0.0,0.0,0.0,0.0,0.0,0.0,0.1425,0.0,0.1935,0.4802,0.8131,1.1521,1.1847,1.2093,1.2024,1.0239,1.0985,1.3002,1.2625,1.248,1.2625,1.3593,1.3916,1.4202,1.5788,1.6336,1.6663,1.8313,1.9111,1.9697,2.0682,2.1213,2.1054,1.9174,1.8291,0.0,0.0,0.0,1.2871,0.0,0.0,0.0,0.0,0.0,0.0,0.0,0.0,0.0,0.0,0.0,0.0,0.0,0.0,0.0,0.0,0.7087,0.7051,0.5957,0.7404,0.0,0.0,0.0,1.1685,1.164,1.2674,1.3336,1.3506,1.3406,1.3202,1.2881,1.2881,1.2881,1.2822,1.2129,1.1765,1.1715,1.1065,1.0364,0.9888,1.093,0.9923,0.7895,0.9981,0.9343,0.767,1.054,1.0368,0.8865,0.6061,0.5286,0.4778,0.0,0.4825,0.525,0.0,0.0,0.0,0.0,0.8459,0.8575,0.8541,0.8356,0.7579,0.5967,0.6899,0.0,0.0,0.0,0.0,0.7627,0.7465,0.7322,0.7295,0.6526,0.0,0.4871,0.0,0.0,0.1036,0.0,0.0,0.0,0.0,0.0,0.1292,0.3566,0.6615,1.0077,1.2044,1.1718,1.0109,0.0,1.1801,1.259,1.3273,1.3504,1.3604,1.4261,1.4507,1.4575,1.5005,1.5419,1.591,1.6777,1.7424,1.8113,1.9576,2.0028,2.0058,1.9902,1.8208,1.634,0.0,0.0,0.0,0.0,0.0,0.0,0.0,0.0,0.0,0.0,0.0,0.0,0.0,0.0,0.0,0.4399,0.0,0.0,0.5568,0.5772,0.5781,0.548,0.5855,0.6649,0.7809,0.0,0.0,1.2191,1.0684,1.1028,1.3496,1.2021,1.1828,1.2881,1.2881,1.2608,1.208,1.1873,1.1516,1.1015,1.0364,0.9961,0.9769,0.9604,0.8864,0.7912,0.8743,0.8523,0.7927,0.8676,0.8382,0.7723,0.493,0.0,0.0,0.3826,0.0,0.0,0.6174,0.7281,0.0,0.8827,0.8669,0.0,0.8793,0.8762,0.8071,0.6514,0.6982,0.0,0.5337,0.0,0.0,0.6878,0.6878,0.659,0.5949,0.7032,0.0,0.4813,0.0,0.0,0.1338,0.0,0.0,0.0,0.0,-0.0694,0.0,0.4532,0.7444,0.9454,1.1162,1.119,0.0,1.0337,1.0979,1.189,1.2348,1.2813,1.3215,1.3725,1.3931,1.3978,1.4247,1.4527,1.4903,1.5748,1.6213,1.6796,1.8389,1.8803,1.9002,1.9708,1.8584,1.7263,1.7221,1.5829,1.4702,0.0,1.542,1.5319,0.0,0.0,0.0,0.0,0.0,0.0,0.0,0.0,0.0,0.0,0.4491,0.495,0.4543,0.466,0.473,0.473,0.473,0.5196,0.6253,0.0,0.8399,0.9828,0.9711,1.0195,1.1259,1.0149,1.0317,1.1743,1.146,1.149,1.1765,1.1216,1.0712,1.032,0.9666,0.9361,0.9323,0.9098,0.8361,0.7445,0.7488,0.7461,0.7437,0.7437,0.7228,0.7019,0.0,0.0,0.0,0.0,0.0,0.0,0.0,0.7965,0.0,1.0213,0.0,0.8471,0.9193,0.882,0.8228,0.7669,0.0,0.6542,0.6991,0.4562,0.4158,0.6537,0.5424,0.4735,0.4701,0.7022,0.7068,0.0,0.0,0.0,0.0,0.0,0.0,0.0,0.0,0.0,0.0,0.6007,0.8648,0.9151,0.9644,1.0367,1.0932,0.9185,0.9616,1.1116,1.0906,1.1314,1.2072,1.2493,1.2618,1.2706,1.3341,1.3521,1.3794,1.4937,1.5283,1.56,1.7075,1.7489,1.7738,1.873,1.8743,1.8612,1.9178,1.8593,1.8288,1.9354,1.9236,1.8513,0.0,0.0,0.0,0.0,0.0,0.0,0.0,0.0,0.0,0.0,0.0,0.0,0.3418,0.3649,0.3956,0.3993,0.3993,0.4112,0.4356,0.0,0.7457,0.689,0.9092,0.9769,0.8754,0.864,0.9261,1.0624,0.9927,1.0317,1.1616,1.0364,0.9762,0.9614,0.9061,0.8804,0.8831,0.9064,0.8315,0.6919,0.6591,0.6514,0.6719,0.6719,0.6785,0.6915,0.0,0.0,0.0,0.0,0.0,0.4618,0.8254,0.9724,1.013,0.9217,0.9076,0.8577,0.7188,0.7185,0.6984,0.6143,0.6024,0.0,0.0,0.0,0.0,0.417,0.4105,0.4428,0.5154,0.5242,0.4402,0.0,0.0,0.0,0.0,0.0,0.0,0.0,0.0,0.0,0.4985,0.4246,0.0,0.7997,0.8274,0.846,0.8738,0.9915,1.0541,1.0873,1.0839,1.0931,1.1039,1.1149,1.1174,1.1275,1.1963,1.2159,1.2395,1.369,1.4122,1.4378,1.5557,1.588,1.604,1.6677,1.6773,1.6881,1.7478,1.7491,1.7679,1.8803,1.9273,1.9409,1.9191,0.0,0.0,0.0,0.0,0.0,0.0,0.0,0.0,0.0,0.0,0.4127,0.1888,0.2852,0.3714,0.0,0.0,0.4687,0.0,0.0,0.5614,0.0,0.7237,0.0,0.0,0.0,1.0552,1.2436,1.1519,1.1075,1.0965,1.0167,0.951,0.8962,0.8857,0.8804,0.8831,0.9064,0.8467,0.7353,0.6843,0.6689,0.6719,0.6719,0.7177,0.7702,0.0,0.0,0.0,0.0,0.0,0.0,0.0,0.8785,0.9978,0.9457,0.9315,0.8837,0.7562,0.719,0.67,0.6021,0.5925,0.5541,0.4731,0.402,0.3769,0.414,0.4013,0.3759,0.3497,0.4154,0.2747,-0.0788,0.0,0.0,0.0,0.0,0.0,0.0,0.0,0.0605,0.0,0.0,0.0,0.8462,0.9554,0.997,0.9971,1.0205,1.0041,0.9673,0.9318,0.8954,0.8835,1.0297,1.0813,1.0864,1.1166,1.1266,1.1466,1.2444,1.2745,1.3024,1.4275,1.4596,1.4767,1.5327,1.546,1.5636,1.6188,1.6316,1.6654,1.7799,1.8355,1.8087,1.616,1.2926,0.0,0.0,0.0,0.0,0.0,0.0,0.2299,0.0,0.0,0.0,0.0,0.0,0.0,0.0,0.0,0.0,0.0,0.0,0.4432,0.0,0.0,0.0,0.0,0.0,0.0,1.1538,1.0386,1.0171,1.0771,0.9762,0.9113,0.8804,0.8804,0.8804,0.8785,0.8315,0.7941,0.7683,0.701,0.6396,0.6075,0.6527,0.6658,0.6662,0.0,0.4358,0.0,0.0,0.5943,0.0,0.6233,0.7733,0.9266,0.9858,0.9461,0.8866,0.8356,0.7601,0.6806,0.609,0.5849,0.5443,0.4627,0.3975,0.3738,0.4081,0.3656,0.3047,0.2189,0.3069,0.1306,0.0,0.0,0.0,0.0,0.0,0.0,0.0,0.0,0.0,0.0,0.0,0.8915,0.9562,1.0882,1.1258,1.099,0.9791,0.8908,0.8159,0.7658,0.7074,0.6956,0.9148,0.9931,0.9931,1.0077,1.0238,1.0493,1.1149,1.1449,1.1805,1.289,1.3178,1.3273,1.3737,1.3971,1.425,1.479,1.506,1.546,1.6612,1.7182,1.6573,1.3631,1.207,0.0,0.0,0.0,0.0,0.0,0.0,0.0,0.0,0.0,0.0,0.3333,0.0,0.0,0.0,0.0,0.0,0.3219,0.0,0.0,0.0,0.0,0.8837,0.8187,0.0,0.9546,1.0822,0.9376,0.9435,1.0762,0.9413,0.8804,0.8804,0.8804,0.8732,0.8609,0.7717,0.7471,0.7639,0.7158,0.6465,0.5752,0.6461,0.64,0.6013,0.0,0.0,0.0,0.0,0.0,0.0,0.9398,0.8455,0.819,0.987,0.9082,0.8356,0.8312,0.7797,0.6879,0.551,0.5381,0.4458,0.2267,0.3069,0.3135,0.2105,0.2034,0.2452,0.3428,0.1481,-0.0502,0.0,0.0,-0.5887,0.0,0.0,0.0,0.0,0.0,0.0,0.0,0.7998,0.9359,1.0957,1.0256,0.9585,0.8888,0.8184,0.7444,0.6799,0.675,0.6642,0.6637,0.6902,0.7009,0.7111,0.7717,0.8351,0.9037,0.9688,1.0375,1.0914,1.1065,1.1057,1.1107,1.1157,1.1607,1.2239,1.2908,1.3501,1.4297,1.5416,1.6095,1.6346,1.5986,1.2289,0.8553,0.0,0.0,0.0,0.0,0.0,-0.0262,0.1591,0.0,0.0,0.0,-0.0281,0.0,0.0,0.0532,0.0,0.0,0.0,0.0,0.6011,0.0,0.842,0.9319,1.1388,1.2492,1.2648,1.088,1.0301,1.0762,0.9413,0.8804,0.8804,0.8804,0.8575,0.8267,0.8248,0.7617,0.6615,0.756,0.7372,0.6588,0.6654,0.7177,0.7572,0.0,0.0,0.0,0.0,0.0,0.0,0.0,0.8484,0.7968,0.8666,0.8489,0.8312,0.8312,0.7506,0.6594,0.562,0.5053,0.4219,0.2973,0.3351,0.3375,0.2919,0.2197,0.1683,0.1444,0.048,-0.0712,0.0,0.0,0.0,0.0,0.0,0.0,0.0,0.0,0.4362,0.6428,0.8556,0.979,1.0218,0.946,0.8678,0.7982,0.7272,0.6583,0.5928,0.5928,0.5664,0.5348,0.5348,0.5887,0.6642,0.6891,0.7208,0.7581,0.8233,0.8645,0.8964,0.9416,0.9519,0.9519,0.9519,1.0038,1.0604,1.0898,1.1463,1.2376,1.3637,1.4369,1.4688,1.4279,1.2256,0.9657,0.6428,0.0,0.0,0.0,0.0,0.0,0.3052,0.0,0.3382,0.0,0.0,0.0,0.0,0.0,0.0,0.0,0.0,0.0,0.7551,0.0,0.9073,1.1874,1.1027,1.1348,1.2881,1.1314,1.0615,1.0762,0.9413,0.8804,0.8804,0.8804,0.8622,0.8282,0.779,0.7196,0.6552,0.6502,0.6207,0.5947,0.5947,0.6141,0.6338,1.0923,0.0,0.8422,0.0,0.94,0.9006,0.8905,0.8159,0.7585,0.7403,0.7533,0.7684,0.7781,0.6991,0.6065,0.5129,0.4648,0.3956,0.2859,0.3304,0.3378,0.2811,0.2498,0.0,0.0051,-0.0676,-0.1445,-0.2174,-0.414,0.0,0.0,0.0,0.0,0.0,0.1939,0.4671,0.6182,0.8461,0.9301,0.9003,0.8357,0.7617,0.6919,0.6529,0.5882,0.5222,0.5226,0.4912,0.4428,0.3971,0.4508,0.5374,0.5832,0.5996,0.6086,0.6543,0.6908,0.7228,0.7735,0.7998,0.8063,0.8063,0.8586,0.9054,0.9054,0.9798,1.0788,1.1984,1.258,1.2783,1.2288,1.1648,0.9951,0.6178,0.0,0.0,0.0,0.0173,0.0,0.3126,0.1769,0.1225,0.2838,0.0892,0.0,0.0,0.0,0.0,0.0,0.0,0.0,0.0,0.0,0.0,1.1766,0.9703,1.0075,1.2881,1.1484,1.0813,1.0762,0.9413,0.8699,0.848,0.848,0.8142,0.7501,0.7231,0.6722,0.6109,0.5773,0.5556,0.5304,0.5348,0.5408,0.5377,0.9399,0.9324,0.9156,0.8774,0.8716,0.8565,0.8154,0.7465,0.6838,0.6288,0.6095,0.6176,0.659,0.6265,0.5316,0.3682,0.4057,0.3415,0.1082,0.259,0.2805,0.0,0.0,0.2475,0.0053,-0.232,-0.3094,-0.2174,0.0,0.0,-0.5809,0.0,-0.3664,0.0224,0.1492,0.4238,0.7957,0.7659,0.7585,0.7553,0.6897,0.6199,0.5542,0.5791,0.5305,0.4536,0.449,0.4497,0.4268,0.2736,0.2232,0.251,0.4036,0.4529,0.4553,0.4553,0.5198,0.595,0.595,0.6293,0.6642,0.6642,0.7149,0.76,0.76,0.8691,0.9944,1.0653,1.0813,1.0813,1.0813,1.0261,0.8802,0.5696,0.0,0.0,0.0,-0.0391,0.0,0.0127,-0.1963,-0.2866,-0.1474,-0.2595,0.0,0.0,0.0,0.0,0.0,0.0,0.0,0.7449,0.6861,0.0,0.7755,0.7747,0.9475,1.2881,1.1484,1.0813,1.0762,0.9413,0.8427,0.7723,0.7723,0.6907,0.5614,0.6656,0.6182,0.4845,0.594,0.5832,0.5105,0.5321,0.5425,0.5389,0.8096,0.8498,0.8748,0.837,0.7882,0.7486,0.7368,0.6557,0.5913,0.5731,0.5505,0.5363,0.5311,0.5362,0.5153,0.0,0.3514,0.2846,0.0,0.2493,0.2125,0.1529,0.1272,0.0771,0.0,-0.157,-0.2786,-0.3556,0.0,0.0,0.0,-0.5977,-0.461,-0.1798,0.0909,0.3335,0.5477,0.6132,0.6329,0.618,0.6159,0.5622,0.4802,0.4927,0.4082,0.2959,0.2905,0.3588,0.4452,0.3937,0.3086,0.23,0.2751,0.291,0.295,0.295,0.3166,0.3608,0.4684,0.503,0.5144,0.5144,0.5328,0.5508,0.5508,0.6945,0.8495,0.9193,0.9754,1.0069,1.0108,0.9533,0.7954,0.467,0.4638,0.0,0.1236,0.0,0.0695,0.1329,-0.1537,-0.278,-0.0817,-0.1036,0.0,0.0,0.0,0.0,0.0,0.0,0.0,0.0,0.8219,0.0,1.0971,0.9399,0.9777,1.2138,1.1216,1.0041,0.8652,0.8249,0.767,0.6966,0.7317,0.6924,0.5997,0.6539,0.6015,0.4887,0.5262,0.5343,0.5034,0.2779,0.193,0.1914,0.7292,0.7717,0.7929,0.7536,0.71,0.6656,0.6307,0.5707,0.5227,0.512,0.4902,0.4679,0.4522,0.4642,0.0,0.4413,0.3396,0.2989,0.3568,0.246,0.1983,0.246,0.089,-0.042,-0.1317,-0.2078,0.0,-0.4082,-0.4529,-0.508,-0.5705,-0.5859,-0.4872,-0.2776,-0.0362,0.1713,0.353,0.4687,0.5173,0.5124,0.5305,0.4659,0.3678,0.4304,0.3898,0.2916,0.1779,0.2015,0.2979,0.412,0.3095,0.1347,0.1347,0.14,0.1397,0.1397,0.1396,0.173,0.3249,0.3644,0.3697,0.3863,0.3956,0.4103,0.4707,0.5896,0.7026,0.7735,0.8252,0.8561,0.8593,0.8224,0.7117,0.4708,0.5076,0.4908,0.2843,0.0,0.0673,0.0,0.0,0.0,0.0,-0.1916,-0.0727,0.0,0.0,0.0,0.0,0.0,0.0,0.6189,0.6455,0.7767,1.0356,0.8939,0.9314,1.1408,1.0442,0.9051,0.7289,0.7289,0.6918,0.6381,0.6678,0.6027,0.4713,0.4898,0.4198,0.3036,0.3066,0.3124,0.3032,0.0953,-0.0507,-0.1508,0.6872,0.6945,0.6907,0.0,0.6356,0.0,0.5119,0.4901,0.478,0.4498,0.4347,0.4207,0.4197,0.4197,0.4026,0.3649,0.0,0.0,0.0,0.2319,0.2099,0.3308,0.1121,-0.1183,-0.3407,-0.3514,-0.3635,-0.3883,-0.4797,-0.5316,-0.5396,-0.542,-0.4556,-0.2965,-0.2179,-0.0408,0.2106,0.3225,0.3958,0.4324,0.4428,0.3621,0.2509,0.3701,0.4184,0.3827,0.0995,0.0,0.0449,0.3268,0.2305,0.0,0.0,0.0,0.0,0.0,0.0,0.0279,0.1679,0.2068,0.2232,0.2954,0.3121,0.3506,0.5101,0.5433,0.5651,0.6367,0.6529,0.6534,0.6588,0.6588,0.6312,0.5655,0.5673,0.5395,0.4252,0.1735,0.0048,0.0,0.0,0.0,-0.7206,-0.4394,0.0,0.0,0.0,0.0,0.0,0.0,-0.1275,0.2694,0.2827,0.4151,0.6937,0.699,0.8242,1.0551,0.92,0.7841,0.6529,0.6534,0.6273,0.58,0.5804,0.4398,0.2007,0.1839,0.1001,-0.0167,-0.0288,-0.0416,-0.0613,-0.0377,-0.2128,-0.4528,0.0,0.0,0.7124,0.6391,0.6175,0.5831,0.5031,0.4626,0.4337,0.4254,0.4357,0.4368,0.4207,0.4197,0.411,0.3847,0.2974,0.2759,0.3562,0.075,-0.0396,0.0798,-0.0573,-0.164,-0.222,-0.3246,-0.3842,-0.3973,-0.4439,-0.4577,-0.4379,-0.462,-0.453,-0.4073,-0.2693,-0.111,0.0561,0.0809,0.1626,0.2843,0.3767,0.405,0.3759,0.179,0.1065,0.0995,0.0271,0.0,0.0112,0.0842,0.0617,0.0,0.0,0.0,0.0,0.0,0.0,0.0056,0.0448,0.0504,0.1119,0.3546,0.416,0.4255,0.4629,0.4732,0.4952,0.5597,0.576,0.5928,0.648,0.6332,0.6009,0.5845,0.5254,0.3653,0.0151,0.1814,0.2018,0.0,-0.3681,-0.4742,-0.4356,-0.2084,0.0631,0.0,0.0,0.0,0.0,0.1876,0.2654,0.7062,0.72,0.7271,0.7447,0.7993,0.8326,0.8338,0.7522,0.6627,0.576,0.595,0.5631,0.4809,0.4831,0.3186,0.0334,-0.1956,-0.2404,-0.1788,-0.2954,-0.3595,-0.375,-0.3558,-0.4002,-0.4725,0.6348,0.7061,0.7347,0.6378,0.6139,0.5805,0.488,0.4446,0.4217,0.4338,0.4358,0.4362,0.4348,0.4345,0.4237,0.4049,0.3366,0.3129,0.3578,0.1742,-0.0139,-0.1961,-0.2706,-0.263,-0.1831,-0.3284,-0.4059,-0.4073,-0.4216,-0.4246,-0.4226,-0.444,-0.452,-0.4435,-0.2863,-0.1391,0.0,0.0,0.048,0.1228,0.1922,0.2957,0.3793,0.1069,0.0,0.0,0.0,0.0,0.0,0.0,0.0,0.0,0.0,0.0,0.0,0.0,0.0,0.0,0.0,0.0,0.0561,0.2863,0.3987,0.4484,0.4522,0.4519,0.4625,0.4948,0.5058,0.5167,0.5559,0.5407,0.5022,0.4343,0.2527,0.041,-0.1786,-0.083,0.0223,0.0569,-0.2096,-0.3372,-0.1912,-0.0706,0.0437,0.1499,0.4455,0.0,0.5039,0.1701,0.2336,0.7906,0.8131,0.7676,0.6806,0.7676,0.7759,0.7144,0.6786,0.6073,0.5073,0.5199,0.4239,0.245,0.2458,0.1114,-0.1169,-0.3532,-0.3984,-0.3355,-0.4622,-0.5219,-0.5348,-0.5533,-0.5669,-0.573,0.7432,0.7656,0.7509,0.6364,0.6141,0.5794,0.475,0.4343,0.4204,0.4379,0.429,0.426,0.4382,0.4416,0.4385,0.428,0.3885,0.3616,0.3586,0.3275,0.1001,-0.3604,-0.4218,-0.3723,-0.2148,-0.3489,-0.4158,-0.4197,-0.4141,-0.4192,-0.445,-0.4494,-0.4487,-0.4383,-0.3121,-0.1589,0.0,0.0,0.0,0.0,0.0,0.1208,0.2864,0.1207,0.0327,0.0,0.0,0.0,0.0,0.0,0.0,0.0,0.0,0.0,0.0,0.0,0.0,0.0,0.0,0.0,0.0336,0.184,0.3352,0.4477,0.4522,0.4519,0.4519,0.4519,0.4522,0.4525,0.448,0.4484,0.3785,0.1638,-0.1735,-0.401,-0.3787,0.0,-0.2829,0.2743,0.0439,-0.1179,-0.0111,0.0,0.0111,0.0331,0.3381,0.5442,0.5792,0.0665,0.0356,0.6081,0.65,0.6327,0.5692,0.6327,0.641,0.5945,0.5711,0.4978,0.3808,0.3808,0.2397,-0.0056,-0.0722,-0.1668,-0.2899,-0.4311,-0.4923,-0.5073,-0.5841,-0.6225,-0.6322,-0.6966,-0.7202,-0.7172,0.6966,0.7443,0.7452,0.6108,0.5972,0.5745,0.4985,0.4368,0.4063,0.4087,0.407,0.4063,0.4087,0.4206,0.4284,0.4446,0.3227,0.2794,0.3562,0.1692,0.0208,-0.0651,-0.2885,-0.3934,-0.365,-0.3925,-0.4097,-0.4197,-0.4348,-0.429,-0.4094,-0.4345,-0.4431,-0.4235,-0.4157,-0.2601,0.0,0.0,0.0,0.0,0.0,0.0218,0.0719,0.2417,0.1755,0.0,0.0,0.0,0.0,0.0,0.0,0.0,0.0,0.0,0.0,0.0,0.0,0.0,0.0,0.0,0.0336,0.184,0.3355,0.4487,0.4522,0.4519,0.4522,0.4473,0.4477,0.448,0.449,0.4501,0.2887,-0.1981,-0.7056,-1.0199,-0.9677,0.0,-0.3351,-0.1784,0.1355,0.2481,0.0223,0.0,0.0502,0.1764,0.0164,0.0055,0.2083,0.0543,0.0054,0.1105,0.233,0.3569,0.4705,0.3569,0.2952,0.2843,0.1609,0.0887,0.0721,0.0721,0.0444,-0.0222,-0.395,-0.5474,-0.5403,-0.6519,-0.7036,-0.7132,-0.7298,-0.7757,-0.8428,-0.8413,-0.8476,-0.8587,0.6231,0.6653,0.6653,0.5624,0.5483,0.5242,0.4511,0.4094,0.3927,0.4009,0.3948,0.3931,0.4072,0.4144,0.4305,0.4488,0.3849,0.2953,0.1762,0.0621,0.0,0.0,-0.1921,-0.3374,-0.4101,-0.3966,-0.4012,-0.4197,-0.4148,-0.4073,-0.4022,-0.4158,-0.4206,-0.4086,-0.4267,-0.3151,-0.1135,-0.0317,0.0,0.0,0.0,0.0,0.0112,0.1246,0.0982,0.0,0.0,0.0,0.0,0.0,0.0,0.0,0.0,0.0,0.0,0.0,0.0,0.0,0.0,0.0,0.0168,0.0837,0.2798,0.4501,0.4477,0.4477,0.448,0.448,0.3858,0.3522,0.433,0.3193,0.0714,-0.3478,-0.7066,0.0,-0.9363,-0.647,-0.461,-0.5519,-0.105,0.1225,-0.0947,-0.2619,-0.2947,-0.1487,-0.2593,-0.3252,-0.2905,-0.3299,-0.3528,-0.3531,-0.1107,0.0444,0.089,0.1001,0.0611,-0.0167,-0.1662,-0.2771,-0.3553,-0.4358,-0.4671,-0.483,-0.7402,-0.8068,-0.7458,-0.8285,-0.8619,-0.8734,-0.9475,-1.0015,-1.0395,-1.0714,-1.0864,-1.0938,0.5774,0.6018,0.5904,0.4982,0.5,0.4935,0.4409,0.4011,0.3788,0.3904,0.3819,0.3842,0.4021,0.3814,0.3794,0.4275,0.3813,0.2303,-0.0655,-0.0595,-0.0542,-0.0846,-0.1925,-0.305,-0.409,-0.3914,-0.3924,-0.4143,-0.3961,-0.3904,-0.4019,-0.4019,-0.4019,-0.4019,-0.4086,-0.358,-0.2472,-0.0726,0.0,0.0,0.0,0.0,0.0,0.0,0.0,-0.0111,-0.0783,-0.0603,-0.0053,-0.0376,-0.0736,-0.0971,-0.062,-0.0527,-0.0485,-0.0538,-0.0494,-0.0448,-0.0112,-0.0505,-0.0951,-0.0498,0.1333,0.3183,0.3427,0.3498,0.3461,0.3458,0.2506,0.195,0.2798,0.1059,-0.1494,-0.4588,0.0,-0.7224,-0.7424,-0.6007,-0.5519,-0.7057,-0.3573,-0.1555,-0.2952,-0.5203,-0.627,-0.5433,-0.54,-0.6,-0.7365,-0.7187,-0.7069,-0.7069,-0.4249,-0.2883,-0.3226,-0.2432,-0.2595,-0.3718,-0.5089,-0.6426,-0.774,-0.8513,-0.9008,-0.919,-1.0035,-1.0026,-0.9402,-1.0073,-1.0507,-1.0829,-1.1851,-1.2425,-1.2745,-1.3351,-1.3522,-1.3522,0.6054,0.6171,0.5769,0.4334,0.4733,0.5267,0.5227,0.4296,0.3615,0.3626,0.3619,0.3615,0.3629,0.2662,0.2438,0.3566,0.1862,-0.0435,-0.3137,-0.2311,-0.2159,-0.3268,-0.3422,-0.3641,-0.3938,-0.3856,-0.3873,-0.4036,-0.4016,-0.4009,-0.4019,-0.4019,-0.4019,-0.4019,-0.3929,-0.3883,-0.363,-0.106,0.0,0.0,0.0,0.0,0.0,0.0,0.0,-0.0376,-0.3166,-0.236,-0.0214,-0.1595,-0.3,-0.3909,-0.2471,-0.2055,-0.2063,-0.2058,-0.206,-0.173,-0.0392,-0.2018,-0.3741,-0.2098,-0.136,-0.077,0.0266,0.0433,0.0332,0.0332,0.0222,-0.0222,-0.1448,-0.1895,-0.3089,-0.6234,0.0,0.0,-0.5741,-0.5443,-0.5202,-0.479,-0.4418,-0.4536,-0.5517,-0.6215,-0.7106,-0.8312,-0.8359,-0.8785,-0.9814,-0.8999,-0.8573,-0.8573,-0.7047,-0.6218,-0.6277,-0.749,-0.8104,-0.8224,-0.9221,-1.0104,-1.0929,-0.9964,-0.9849,-1.0426,-1.1172,-1.1434,-1.1425,-1.2176,-1.3138,-1.4146,-1.4247,-1.4966,-1.5948,-1.6003,-1.6015,-1.6015,0.3358,0.2976,0.2358,0.1794,0.2023,0.2229,0.2164,0.2224,0.2078,0.1461,0.1378,0.1378,0.1378,0.0945,0.0546,0.0274,-0.0502,-0.1702,-0.3485,-0.3191,-0.3114,-0.3592,-0.371,-0.3844,-0.3903,-0.4217,-0.4196,-0.3877,-0.4105,-0.4237,-0.4237,-0.4237,-0.4237,-0.4237,-0.4241,-0.4018,-0.3665,-0.2644,-0.192,-0.1363,-0.1362,-0.1387,-0.1347,-0.1382,-0.1385,-0.1536,-0.2672,-0.281,-0.2433,-0.2245,-0.324,-0.4389,-0.3804,-0.3475,-0.3475,-0.4209,-0.492,-0.5306,-0.473,-0.4524,-0.4488,-0.4699,-0.4599,-0.405,-0.2628,-0.3217,-0.3667,-0.2133,-0.3729,-0.5567,-0.6145,-0.6725,-0.7301,-0.7909,0.0,-0.6156,-0.5766,-0.6262,-0.653,-0.6337,-0.6018,-0.595,-0.6327,-0.73,-0.8096,-0.8679,-0.951,-1.0146,-1.0514,-1.057,-1.0572,-1.0572,-1.0447,-0.9766,-0.8495,-0.8996,-0.9453,-0.9817,-1.0656,-1.1172,-1.1518,-1.2292,-1.2755,-1.3026,-1.4058,-1.4518,-1.4574,-1.5219,-1.5757,-1.6211,-1.6603,-1.7003,-1.741,-1.741,-1.741,-1.741,0.0771,0.0251,-0.0286,-0.0572,-0.0596,-0.0588,-0.0689,-0.0285,-0.0083,-0.052,-0.0914,-0.1138,-0.1108,-0.1111,-0.1468,-0.2279,-0.2366,-0.2726,-0.3547,-0.3585,-0.3585,-0.3592,-0.3732,-0.3876,-0.4053,-0.4409,-0.4496,-0.4268,-0.4542,-0.4696,-0.4696,-0.4696,-0.4696,-0.4696,-0.4696,-0.4482,-0.4108,-0.3994,-0.3661,-0.321,-0.3493,-0.3594,-0.3565,-0.3586,-0.3591,-0.3621,-0.3767,-0.4247,-0.4696,-0.3875,-0.4401,-0.5376,-0.5094,-0.4927,-0.5026,-0.6002,-0.6904,-0.7659,-0.7816,-0.6985,-0.6345,-0.7153,-0.698,-0.6324,-0.5327,-0.5991,-0.6349,-0.465,-0.6514,-0.8476,-0.8476,-0.9117,-0.9406,-0.8625,-0.753,-0.6712,-0.6586,-0.727,-0.7783,-0.7783,-0.7486,-0.7362,-0.7576,-0.8462,-0.9186,-0.9651,-1.0594,-1.1308,-1.1697,-1.2122,-1.2502,-1.2871,-1.3168,-1.2994,-1.2292,-1.1738,-1.1648,-1.2098,-1.2952,-1.3502,-1.3725,-1.4822,-1.5441,-1.5659,-1.6507,-1.6879,-1.692,-1.7288,-1.7599,-1.7799,-1.8338,-1.8598,-1.8612,-1.8736,-1.8698,-1.8612,-0.133,-0.1329,-0.1605,-0.2553,-0.2712,-0.2712,-0.2712,-0.2913,-0.2802,-0.1922,-0.287,-0.3616,-0.3626,-0.3598,-0.3598,-0.3598,-0.3629,-0.3626,-0.3626,-0.3626,-0.3626,-0.3626,-0.3626,-0.3836,-0.4387,-0.4391,-0.4691,-0.5303,-0.5308,-0.5308,-0.5308,-0.5308,-0.5308,-0.5308,-0.5308,-0.5303,-0.5303,-0.4904,-0.4937,-0.538,-0.6283,-0.6597,-0.663,-0.6607,-0.6643,-0.6701,-0.7202,-0.7078,-0.6597,-0.6625,-0.695,-0.7258,-0.6457,-0.6425,-0.6721,-0.7164,-0.7701,-0.8218,-0.8688,-0.9338,-0.9794,-0.9147,-0.8227,-0.753,-0.7852,-0.7646,-0.7433,-0.7427,-0.774,-0.8032,-0.8032,-0.8413,-0.8564,-0.8121,-0.842,-0.8557,-0.8071,-0.8433,-0.8716,-0.8716,-0.8716,-0.8982,-0.9673,-0.9731,-1.03,-1.1706,-1.1814,-1.2404,-1.3721,-1.3826,-1.4322,-1.5474,-1.5013,-1.5846,-1.8181,-1.6397,-1.5532,-1.5543,-1.6761,-1.7622,-1.8179,-1.7525,-1.7572,-1.8106,-1.8145,-1.8145,-1.8131,-1.8131,-1.8458,-1.8954,-1.9441,-1.9651,-1.9747,-2.0158,-2.0054,-1.9782,-0.2332,-0.259,-0.2934,-0.3199,-0.3168,-0.3162,-0.3319,-0.3142,-0.2994,-0.2873,-0.3278,-0.3752,-0.4136,-0.414,-0.4316,-0.4753,-0.4792,-0.4792,-0.4792,-0.4792,-0.4792,-0.4792,-0.4395,-0.422,-0.4387,-0.5221,-0.5524,-0.5303,-0.5744,-0.5916,-0.5916,-0.5916,-0.6124,-0.6482,-0.6482,-0.647,-0.6433,-0.6687,-0.7161,-0.7693,-0.7898,-0.8323,-0.874,-0.831,-0.8153,-0.8231,-0.8695,-0.8502,-0.8049,-0.8507,-0.8441,-0.8207,-0.7947,-0.8231,-0.8657,-0.8672,-0.9582,-1.0595,-1.0725,-1.1421,-1.1773,-1.0447,-1.0039,-0.9925,-0.9833,-0.9874,-0.9862,-0.9684,-0.9995,-1.0398,-1.0732,-1.103,-1.113,-1.0839,-1.0922,-1.0912,-1.0693,-1.0815,-1.1029,-1.1478,-1.1096,-1.1064,-1.1737,-1.1871,-1.2064,-1.2483,-1.2928,-1.3379,-1.3768,-1.4965,-1.5788,-1.6127,-1.7202,-1.8118,-1.8819,-1.7509,-1.7498,-1.8747,-1.9094,-1.9353,-1.9539,-2.0096,-2.0148,-1.9839,-2.0579,-2.0617,-2.0116,-2.0116,-2.0249,-2.04,-2.0534,-2.0583,-2.0648,-2.0764,-2.0731,-2.0632,-0.3018,-0.3239,-0.3474,-0.3651,-0.3646,-0.3568,-0.3479,-0.3278,-0.3187,-0.3384,-0.363,-0.4043,-0.4852,-0.5014,-0.532,-0.5871,-0.5786,-0.5689,-0.5689,-0.5689,-0.577,-0.5908,-0.5975,-0.5727,-0.513,-0.6033,-0.6465,-0.6331,-0.693,-0.7301,-0.7487,-0.7487,-0.7755,-0.8246,-0.8213,-0.8198,-0.8198,-0.8697,-0.9215,-0.9701,-0.983,-1.0209,-1.0695,-1.049,-1.0371,-1.0446,-1.0855,-1.0864,-1.0676,-1.0902,-1.0704,-1.0264,-0.9973,-1.0182,-1.0526,-1.0421,-1.1388,-1.2436,-1.2436,-1.2981,-1.3308,-1.234,-1.1957,-1.1794,-1.1872,-1.1821,-1.1715,-1.1365,-1.1661,-1.1995,-1.214,-1.2403,-1.2478,-1.2213,-1.2288,-1.2372,-1.2372,-1.2511,-1.2832,-1.3414,-1.3155,-1.307,-1.3465,-1.3517,-1.3538,-1.3538,-1.3946,-1.4283,-1.4503,-1.5725,-1.6608,-1.7117,-1.8382,-1.9449,-2.0105,-1.9512,-1.9713,-2.0797,-2.1012,-2.121,-2.1403,-2.1512,-2.1384,-2.1157,-2.151,-2.1407,-2.0991,-2.0991,-2.0991,-2.1039,-2.1181,-2.115,-2.1023,-2.1181,-2.1134,-2.1023,-0.339,-0.3405,-0.3523,-0.3988,-0.4058,-0.3923,-0.3486,-0.3401,-0.3445,-0.3624,-0.3932,-0.4572,-0.5634,-0.6043,-0.6485,-0.7079,-0.6825,-0.6582,-0.6485,-0.6614,-0.6823,-0.7107,-0.8174,-0.8093,-0.6658,-0.7064,-0.7536,-0.8103,-0.8553,-0.9032,-0.943,-0.9424,-0.9667,-1.019,-1.021,-1.025,-1.0394,-1.0883,-1.1228,-1.1545,-1.1937,-1.2296,-1.2629,-1.2942,-1.3038,-1.3103,-1.3447,-1.3711,-1.3858,-1.3652,-1.3376,-1.3011,-1.2349,-1.2252,-1.2351,-1.2282,-1.3092,-1.3953,-1.3882,-1.4244,-1.4633,-1.4621,-1.3915,-1.333,-1.3735,-1.3415,-1.291,-1.2513,-1.2686,-1.2831,-1.2499,-1.2709,-1.2858,-1.253,-1.2793,-1.3107,-1.3331,-1.3696,-1.4192,-1.4778,-1.4789,-1.4789,-1.4846,-1.488,-1.4869,-1.4915,-1.4915,-1.5174,-1.5708,-1.6299,-1.7131,-1.8232,-1.8892,-2.0074,-2.1727,-2.1872,-2.1974,-2.1989,-2.2587,-2.3051,-2.3375,-2.2253,-2.1913,-2.2213,-2.1585,-2.1247,-2.1134,-2.1134,-2.1134,-2.115,-2.1538,-2.1446,-2.115,-2.1538,-2.1446,-2.1166,-0.3261,-0.363,-0.3988,-0.4409,-0.4473,-0.4441,-0.4339,-0.4125,-0.4009,-0.4056,-0.4786,-0.5597,-0.6253,-0.6941,-0.7732,-0.8697,-0.894,-0.8756,-0.8079,-0.8945,-0.9297,-0.88,-1.0046,-1.0456,-0.983,-0.9559,-0.9488,-0.9624,-0.96,-0.9626,-0.9724,-0.95,-0.9942,-1.0945,-1.0956,-1.1503,-1.2399,-1.2939,-1.3437,-1.3892,-1.4199,-1.4596,-1.5046,-1.4963,-1.4907,-1.4984,-1.5577,-1.563,-1.547,-1.571,-1.5408,-1.49,-1.4758,-1.4625,-1.4404,-1.3767,-1.4837,-1.6022,-1.5193,-1.5772,-1.6556,-1.6333,-1.5692,-1.4905,-1.4127,-1.367,-1.3212,-1.2595,-1.238,-1.239,-1.2738,-1.2672,-1.2684,-1.2985,-1.3094,-1.346,-1.4418,-1.46,-1.5029,-1.5997,-1.5688,-1.5599,-1.6064,-1.6058,-1.6194,-1.6638,-1.668,-1.6722,-1.6847,-1.7807,-1.8461,-1.8731,-1.9782,-2.0966,-2.2319,-2.2234,-2.2299,-2.2542,-2.3549,-2.3829,-2.3421,-2.4494,-2.4403,-2.3375,-2.3616,-2.3087,-2.202,-2.202,-2.202,-2.202,-2.2106,-2.2077,-2.202,-2.2106,-2.2077,-2.202,-0.3691,-0.3928,-0.4188,-0.4826,-0.4922,-0.4858,-0.4634,-0.4635,-0.4677,-0.4677,-0.5574,-0.6521,-0.7264,-0.8156,-0.8994,-0.9745,-1.0002,-1.0012,-0.9884,-1.051,-1.0929,-1.1064,-1.2181,-1.2531,-1.1977,-1.2439,-1.2067,-1.0821,-1.0654,-1.0761,-1.1116,-1.0985,-1.1577,-1.2724,-1.2724,-1.3283,-1.4221,-1.4736,-1.5102,-1.5375,-1.5711,-1.6031,-1.6273,-1.6336,-1.6443,-1.6616,-1.7122,-1.7294,-1.7291,-1.7301,-1.724,-1.7029,-1.6308,-1.6011,-1.5816,-1.5327,-1.5894,-1.6527,-1.594,-1.6255,-1.6731,-1.6597,-1.5837,-1.506,-1.4858,-1.4302,-1.3762,-1.3527,-1.3228,-1.3134,-1.3322,-1.3262,-1.3283,-1.3571,-1.382,-1.4346,-1.5518,-1.5891,-1.6361,-1.7165,-1.6983,-1.6899,-1.7229,-1.745,-1.7652,-1.7917,-1.7956,-1.7956,-1.7956,-1.8567,-1.8902,-1.8907,-2.0262,-2.1302,-2.1958,-2.2416,-2.2518,-2.2377,-2.3273,-2.3664,-2.3562,-2.4123,-2.41,-2.3546,-2.3489,-2.3004,-2.231,-2.231,-2.231,-2.231,-2.231,-2.231,-2.231,-2.231,-2.231,-2.231,-0.4209,-0.4264,-0.4344,-0.5151,-0.5309,-0.5182,-0.4884,-0.5093,-0.5331,-0.5425,-0.6387,-0.7376,-0.8193,-0.9327,-1.0159,-1.0466,-1.0613,-1.0937,-1.1452,-1.1683,-1.2247,-1.3148,-1.4001,-1.4178,-1.3585,-1.4648,-1.4139,-1.1941,-1.2058,-1.2403,-1.2957,-1.2932,-1.3594,-1.4775,-1.4643,-1.5034,-1.5887,-1.6238,-1.6375,-1.6391,-1.6757,-1.6901,-1.7002,-1.7327,-1.753,-1.7719,-1.8203,-1.8646,-1.8932,-1.8458,-1.8521,-1.8554,-1.7275,-1.675,-1.6558,-1.6305,-1.6373,-1.6453,-1.6203,-1.6228,-1.6318,-1.6303,-1.5539,-1.4981,-1.5649,-1.5041,-1.4388,-1.4571,-1.4439,-1.4256,-1.4192,-1.4216,-1.4319,-1.4472,-1.4835,-1.5457,-1.6489,-1.7006,-1.7505,-1.8037,-1.8106,-1.8145,-1.8224,-1.8608,-1.8881,-1.9053,-1.8993,-1.903,-1.9148,-1.9133,-1.9185,-1.9242,-2.0563,-2.1389,-2.163,-2.2378,-2.2595,-2.2247,-2.268,-2.3124,-2.3523,-2.3126,-2.3098,-2.3359,-2.275,-2.2429,-2.231,-2.231,-2.231,-2.231,-2.231,-2.231,-2.231,-2.231,-2.231,-2.231,-0.4409,-0.4538,-0.4698,-0.5214,-0.5309,-0.5404,-0.5665,-0.5758,-0.5937,-0.6267,-0.7351,-0.8114,-0.821,-0.9885,-1.0964,-1.0854,-1.1527,-1.1911,-1.1839,-1.2865,-1.3629,-1.4013,-1.4716,-1.5051,-1.5009,-1.4419,-1.3854,-1.3336,-1.4452,-1.4813,-1.4412,-1.4239,-1.4914,-1.6261,-1.5595,-1.6042,-1.7315,-1.7148,-1.7068,-1.7085,-1.7191,-1.7358,-1.7603,-1.7941,-1.7815,-1.7576,-1.8672,-1.9406,-1.9711,-1.8982,-1.8344,-1.7846,-1.7635,-1.6962,-1.612,-1.5339,-1.6012,-1.6792,-1.5713,-1.5935,-1.6427,-1.6252,-1.613,-1.6096,-1.6186,-1.5525,-1.494,-1.5091,-1.5098,-1.511,-1.5343,-1.5558,-1.5811,-1.6146,-1.6221,-1.6492,-1.7098,-1.7232,-1.7505,-1.8037,-1.8106,-1.8302,-1.8727,-1.8841,-1.9236,-2.0043,-1.9773,-1.9914,-2.0667,-2.0333,-2.0311,-2.0693,-2.0923,-2.152,-2.2508,-2.2049,-2.225,-2.318,-2.266,-2.2562,-2.2862,-2.3821,-2.3938,-2.3393,-2.3291,-2.2885,-2.231,-2.231,-2.231,-2.231,-2.231,-2.231,-2.231,-2.231,-2.231,-2.231,-0.4151,-0.4622,-0.5004,-0.5246,-0.5491,-0.5703,-0.5882,-0.6091,-0.6457,-0.7089,-0.798,-0.8642,-0.8844,-1.0173,-1.105,-1.1108,-1.1653,-1.2089,-1.2391,-1.2941,-1.3535,-1.416,-1.4658,-1.4858,-1.4679,-1.4897,-1.4663,-1.3934,-1.4266,-1.4375,-1.4247,-1.4154,-1.4688,-1.5679,-1.5349,-1.58,-1.6835,-1.717,-1.7058,-1.671,-1.7645,-1.7814,-1.7626,-1.8282,-1.8485,-1.8449,-1.8832,-1.9431,-1.9755,-1.8086,-1.7922,-1.8254,-1.7311,-1.672,-1.6265,-1.5721,-1.6026,-1.6388,-1.5709,-1.5769,-1.6155,-1.6508,-1.6291,-1.6197,-1.7098,-1.6903,-1.6459,-1.6267,-1.6084,-1.6142,-1.6674,-1.6874,-1.7106,-1.7611,-1.7715,-1.7928,-1.8513,-1.8608,-1.8738,-1.8977,-1.9006,-1.9095,-1.9332,-1.9543,-1.9849,-2.028,-2.0398,-2.0599,-2.0959,-2.0797,-2.0797,-2.0991,-2.1213,-2.1577,-2.209,-2.2019,-2.2257,-2.2784,-2.2462,-2.2377,-2.2517,-2.3181,-2.3316,-2.3035,-2.3206,-2.3094,-2.2798,-2.2798,-2.2695,-2.2527,-2.2527,-2.2426,-2.231,-2.231,-2.231,-2.231]}]]